GFSGL_850_spd_000.txt.gz
Wind_Speed
12 10 9 6 6 7 7 8 9 10 10 12 14 14 13 13 12 13 13 15 18 21 24 28 30 32 34 33 35 36 37 37 34 32 30 29 26 24 22 20 21 22 21
9 9 8 7 7 8 9 9 11 12 13 16 17 16 15 15 15 14 16 18 22 27 27 29 34 34 35 37 35 37 35 37 35 33 31 29 31 28 25 26 21 21 21
10 9 9 8 8 8 9 10 11 13 15 16 16 15 15 14 14 15 16 18 21 23 31 33 39 37 35 36 37 36 36 37 35 35 33 29 31 26 28 29 26 24 21
10 10 10 9 9 9 10 12 13 14 16 15 16 15 14 14 14 14 13 16 24 20 32 38 41 28 30 32 33 36 36 37 35 36 35 32 32 29 26 26 27 26 25
12 11 11 11 11 12 13 14 14 15 15 14 14 14 14 15 15 14 15 15 23 23 27 37 36 26 19 26 28 32 35 39 40 36 36 34 33 29 31 27 28 25 26
13 11 11 12 12 13 13 14 15 14 14 13 14 14 14 14 16 17 17 13 19 23 25 27 35 35 26 17 27 37 37 39 42 39 39 37 37 33 30 28 26 29 29
13 11 11 11 11 12 12 13 13 14 15 14 13 13 13 13 17 19 18 13 16 21 23 25 30 34 39 32 30 29 38 39 45 43 44 41 34 34 33 33 32 28 31
13 12 11 12 13 12 12 12 12 14 14 13 13 12 11 14 18 18 20 20 17 18 22 26 31 35 33 43 36 34 32 42 42 48 48 42 40 33 32 34 32 34 29
14 14 12 13 13 13 13 13 13 13 13 13 13 11 13 15 19 20 20 17 19 22 22 24 27 33 41 40 42 39 32 37 46 42 45 47 40 32 31 27 31 31 33
16 14 13 12 13 14 15 14 13 12 11 11 12 13 15 16 16 17 17 16 19 20 23 25 26 28 46 41 47 37 41 29 38 46 41 44 44 40 37 33 29 29 26
15 13 13 14 15 16 15 15 13 13 13 13 14 13 13 13 15 14 14 15 17 20 21 23 26 24 34 42 42 42 32 18 29 40 44 40 39 43 42 38 35 28 27
15 15 13 13 16 19 16 13 13 15 14 13 16 15 13 12 15 15 15 15 14 18 24 21 21 24 24 34 42 38 40 7 15 31 40 37 38 41 42 41 34 36 32
20 18 16 16 20 16 17 17 14 14 13 15 17 14 16 16 17 16 17 16 15 17 20 18 18 19 21 26 35 34 39 34 15 13 19 33 34 33 34 37 36 33 34
14 12 17 19 14 14 14 13 13 14 15 15 14 15 15 16 16 17 21 16 15 16 17 16 16 15 18 19 25 31 33 39 32 31 25 10 22 27 30 32 29 28 31
13 14 9 10 12 12 11 14 12 16 17 12 11 10 12 14 17 19 17 15 13 14 15 12 15 15 19 13 15 20 26 26 34 39 38 31 30 15 26 30 24 27 28
10 10 11 12 13 12 11 9 10 11 11 11 11 11 13 16 16 13 11 10 11 12 7 11 11 13 14 13 8 11 15 22 23 23 34 32 33 33 32 20 19 23 22
5 6 8 10 10 11 9 12 13 11 11 12 12 11 10 11 12 11 10 9 9 6 6 8 10 12 14 12 8 7 9 11 18 24 20 21 28 32 32 29 26 25 21
6 9 7 7 7 5 4 4 9 7 5 6 9 7 8 10 11 11 9 7 5 8 8 9 9 11 13 15 13 13 7 6 8 12 14 19 20 15 13 16 21 26 20
5 6 5 5 8 7 4 4 1 3 2 2 4 9 8 9 11 8 4 6 7 9 10 11 11 11 10 10 12 14 14 16 14 11 11 11 9 9 9 9 10 12 15
1 2 2 6 7 7 8 7 4 6 8 5 3 3 4 4 3 7 6 7 8 9 10 12 12 11 12 13 15 14 14 14 14 15 13 13 14 14 8 11 12 6 4
6 13 8 8 3 1 3 3 3 4 4 2 2 2 2 3 4 6 8 8 7 7 9 9 10 11 12 13 13 13 13 13 14 14 14 13 13 12 14 11 9 11 5
6 7 5 3 2 1 2 2 1 2 3 2 1 3 4 3 2 2 4 5 4 6 9 8 9 10 10 10 12 12 11 10 10 11 13 14 13 12 10 10 10 6 3
5 4 3 2 2 3 1 2 3 3 3 2 1 1 3 1 2 0 2 4 7 7 6 7 8 9 10 10 12 12 12 11 10 11 11 11 11 11 11 10 7 9 9
4 3 2 3 3 3 3 3 4 5 4 3 2 2 1 1 1 6 3 4 5 5 6 7 8 8 8 8 8 10 10 10 10 9 11 11 11 10 9 9 9 8 6
2 3 3 4 3 4 4 5 4 4 4 4 4 4 3 2 2 2 3 3 4 5 6 6 6 7 8 8 8 9 10 11 12 12 11 12 12 12 12 11 10 9 8
4 4 4 3 3 4 5 6 7 6 6 5 5 4 4 3 3 3 3 3 4 4 4 4 4 5 5 6 6 7 7 9 10 10 11 10 10 10 10 11 12 11 12

GFSGL_850_spd_003.txt.gz
Wind_Speed
8 7 7 6 6 8 8 8 9 11 12 12 13 14 14 13 15 17 16 14 17 20 22 21 24 27 27 33 36 38 37 37 38 41 38 38 32 37 42 28 27 25 26
9 9 8 7 7 7 9 10 10 11 12 14 15 16 16 16 15 17 17 17 19 20 19 20 22 25 32 34 35 38 36 38 37 41 39 32 35 33 28 28 21 21 23
10 8 8 8 8 9 9 9 10 11 13 15 16 17 17 16 17 15 17 18 17 17 17 18 20 27 35 32 32 28 33 33 37 40 40 37 38 29 31 35 33 32 29
11 9 9 10 9 9 10 10 10 12 15 17 17 17 17 17 17 18 19 15 16 16 15 19 19 28 31 36 36 27 21 27 33 36 39 39 37 34 32 31 34 34 33
12 10 9 10 10 10 11 11 12 14 15 16 16 17 17 17 18 16 14 18 18 17 16 15 19 26 30 36 34 38 27 26 30 32 38 36 38 38 36 36 34 31 29
12 10 10 10 11 11 11 11 13 14 14 15 16 17 17 17 19 20 21 23 18 18 17 17 24 26 30 37 35 35 34 27 33 46 33 39 40 39 34 32 35 29 29
13 12 12 11 11 10 10 12 13 13 14 16 16 15 16 16 19 20 24 24 21 21 19 21 22 29 34 37 42 38 40 34 27 33 43 39 42 43 39 34 29 32 34
15 14 13 12 12 11 12 13 14 13 14 16 15 16 15 16 19 22 26 25 23 22 22 24 28 29 33 34 47 41 43 37 31 31 35 47 44 38 39 44 33 39 34
17 17 15 13 13 13 14 14 14 14 15 14 15 17 17 17 20 23 22 21 20 22 22 21 24 26 29 29 43 41 48 46 39 36 38 47 45 37 37 32 39 30 36
20 17 15 15 14 14 15 14 13 15 15 14 15 16 18 22 21 18 16 15 19 20 20 21 22 25 28 28 40 44 49 47 41 33 30 41 44 44 43 39 33 36 35
19 18 17 15 15 15 16 18 16 16 15 16 15 19 21 23 28 18 15 15 15 18 21 22 22 25 24 29 37 46 45 39 35 20 19 25 39 39 43 42 38 36 31
20 19 18 17 16 15 18 18 13 14 17 18 17 20 23 9 19 18 16 17 19 22 20 20 25 26 22 31 28 34 37 44 39 15 11 23 30 32 37 39 41 39 33
20 21 19 17 15 15 13 14 13 17 17 19 18 21 21 17 17 7 13 20 21 21 19 23 22 24 22 28 22 26 31 41 42 45 35 7 22 31 31 32 36 39 38
17 16 15 16 15 11 14 14 18 17 14 18 20 19 17 19 10 19 23 24 16 14 17 15 15 22 21 22 17 20 30 34 34 44 40 37 4 29 28 30 32 32 38
11 12 12 13 14 13 13 14 15 16 19 17 13 12 12 12 16 22 21 16 15 13 14 11 12 17 18 17 9 13 22 31 34 27 38 41 41 33 9 24 23 30 31
10 12 13 13 14 16 13 11 14 14 13 12 14 14 15 17 17 16 15 13 12 11 7 11 11 13 17 18 15 12 13 19 26 27 28 33 39 44 39 24 13 18 20
9 10 12 10 11 9 7 7 7 13 12 15 18 15 14 15 15 14 13 12 11 7 7 8 9 11 13 15 16 16 14 12 14 18 23 28 28 32 36 37 30 31 30
7 10 8 9 4 5 4 7 7 8 6 8 8 13 18 16 15 14 9 8 7 7 6 7 9 10 12 12 13 14 14 14 13 12 15 22 26 23 23 27 31 32 29
6 7 5 2 2 3 2 4 3 7 9 4 3 12 15 17 11 9 4 3 2 4 6 6 8 9 9 10 12 14 15 16 17 21 19 16 20 21 25 19 18 17 20
6 9 6 4 4 6 4 2 5 8 9 9 6 10 7 7 7 6 6 4 3 6 6 8 10 11 13 14 15 15 16 16 18 19 19 19 18 18 20 17 15 14 15
4 3 8 8 6 3 5 6 4 4 6 3 8 12 2 1 2 3 4 6 6 7 7 8 8 9 10 11 12 12 12 14 15 15 18 18 18 14 14 18 15 11 9
6 7 7 5 4 4 4 5 4 4 4 4 5 5 3 3 1 2 3 4 4 5 7 8 8 10 10 12 10 10 10 11 12 14 15 15 15 16 16 11 9 11 10
5 4 4 3 4 7 7 4 6 6 5 4 3 3 2 3 6 3 2 3 4 4 4 5 6 6 7 8 10 10 10 9 9 12 14 14 14 15 14 14 15 12 11
10 10 5 6 7 7 8 7 7 8 6 5 4 3 2 2 3 3 2 2 2 4 4 4 6 6 6 7 8 9 11 12 12 11 16 14 13 14 15 14 14 14 13
6 6 7 8 9 7 8 8 7 6 5 6 5 4 3 2 1 1 1 1 2 3 4 3 4 5 6 6 7 8 9 10 11 12 12 12 13 13 14 13 14 14 15
8 8 9 9 9 8 8 8 8 8 7 6 6 5 4 4 3 2 1 1 1 2 1 1 2 2 3 5 5 6 6 7 8 8 11 10 10 11 11 11 12 11 12

GFSGL_850_spd_006.txt.gz
Wind_Speed
16 11 11 10 7 8 8 7 8 10 12 14 15 15 17 16 18 18 20 19 16 17 20 17 18 20 19 25 27 29 34 33 39 47 41 38 37 36 35 35 33 40 36
17 12 9 8 6 10 10 8 10 12 12 14 15 16 18 18 20 20 19 19 19 22 19 16 18 21 19 24 29 32 31 34 36 39 38 39 38 38 34 38 41 37 44
17 16 11 9 8 9 9 9 10 12 12 13 16 19 20 19 20 20 21 20 19 19 20 18 19 20 18 23 29 36 35 34 39 31 31 35 37 38 35 32 35 36 33
21 16 12 13 12 9 9 10 13 11 14 17 19 20 19 18 20 21 22 21 20 19 23 24 21 22 20 25 31 36 41 38 34 38 32 29 32 36 37 36 34 32 33
23 17 15 16 14 10 11 11 11 12 15 17 18 18 18 19 21 18 16 20 21 25 27 25 21 21 26 28 32 35 38 45 39 40 38 36 37 35 37 36 38 36 35
18 20 17 16 13 12 11 13 13 14 17 16 17 18 22 21 21 23 23 21 24 27 27 27 24 23 25 30 30 31 35 41 42 42 41 38 39 38 36 36 37 36 34
25 20 17 17 15 15 14 13 14 16 15 15 19 20 23 21 19 20 21 25 29 28 26 27 26 23 22 23 29 32 39 44 40 41 43 40 39 42 39 39 39 39 42
26 20 18 18 17 17 17 15 15 16 16 19 19 23 20 21 20 21 22 26 27 27 25 25 22 23 23 25 29 33 42 45 41 44 43 43 41 40 37 38 38 38 37
28 24 22 20 19 20 19 17 16 17 17 19 22 21 21 19 20 21 24 19 25 26 26 24 23 23 22 24 29 33 40 48 47 48 40 38 43 43 38 38 41 37 38
25 23 21 20 20 20 19 18 16 19 20 24 19 21 19 20 27 29 27 26 23 23 24 24 23 21 22 27 26 33 38 46 48 52 49 27 25 37 45 43 41 36 43
25 22 20 20 20 21 21 19 20 22 27 19 21 25 24 24 26 26 22 20 19 20 25 23 19 23 27 25 26 31 32 39 42 49 51 31 12 19 35 45 43 38 38
19 19 20 20 21 19 20 21 21 21 22 19 20 20 19 19 21 22 28 17 15 21 22 16 19 23 25 25 25 20 29 38 37 45 51 50 14 13 20 37 42 42 40
12 14 19 19 17 20 24 20 20 18 19 19 18 19 15 20 22 21 10 15 22 18 15 14 17 20 24 26 19 16 24 32 40 39 42 48 37 6 19 26 29 39 40
13 15 17 19 22 22 24 18 15 17 16 12 8 12 17 14 16 10 19 18 18 15 14 12 8 17 24 19 14 11 14 25 31 34 40 45 51 19 6 18 24 27 32
11 11 15 15 16 19 21 16 15 20 17 15 15 15 14 12 16 20 19 18 17 14 12 10 8 17 24 19 15 12 12 17 26 31 34 38 49 49 29 9 10 20 29
7 9 12 15 14 13 7 7 8 12 15 15 15 15 15 16 17 17 15 15 11 8 10 8 9 14 20 18 17 16 15 16 18 22 27 34 37 42 46 41 28 10 8
11 12 10 10 12 11 6 5 9 13 12 14 15 15 10 10 14 15 15 11 5 3 5 7 12 13 15 14 15 15 17 18 20 17 21 27 25 27 40 43 45 39 40
7 7 8 8 6 5 3 5 4 6 8 11 11 7 10 14 17 16 9 6 3 4 4 8 8 8 8 10 11 14 14 14 19 21 18 20 24 27 27 27 30 35 37
3 5 4 6 7 5 3 4 5 8 5 4 7 5 6 12 16 17 4 2 3 3 7 6 8 10 11 12 12 13 16 17 17 21 22 21 23 21 25 24 25 24 27
4 9 9 7 4 4 3 2 4 8 9 5 7 11 11 11 15 11 9 3 2 4 6 7 7 8 10 11 12 13 13 14 16 18 19 19 19 20 19 22 19 19 23
6 5 4 4 4 7 4 5 4 4 6 8 7 12 10 9 9 5 2 4 4 7 7 5 9 11 13 11 10 10 10 11 12 16 16 17 15 17 17 15 16 15 16
5 5 5 9 7 6 6 4 6 6 6 8 10 9 9 7 9 5 2 1 4 5 3 5 3 5 6 10 11 9 9 8 8 11 15 16 16 15 14 16 16 18 17
7 6 9 10 11 7 8 10 7 7 7 5 6 7 7 2 6 3 3 2 2 2 3 4 4 3 3 7 9 10 11 11 10 12 16 16 18 21 17 20 20 18 18
6 5 11 11 10 8 9 8 10 10 11 6 7 6 5 4 1 3 2 2 2 1 2 4 9 6 5 7 8 10 11 12 11 12 14 16 15 18 17 21 23 21 21
7 7 7 8 9 8 9 8 10 9 6 7 7 6 6 5 4 3 2 1 1 2 3 1 1 9 6 6 7 7 8 9 10 10 11 12 12 11 15 15 16 17 18
8 9 10 10 10 10 10 9 9 9 8 8 8 8 8 7 6 5 4 3 2 2 1 1 3 3 8 4 4 4 5 5 6 7 9 9 8 11 10 13 11 14 15

GFSGL_850_spd_009.txt.gz
Wind_Speed
25 18 12 8 8 8 6 5 5 6 8 10 12 12 13 14 14 14 18 19 16 16 17 18 19 20 19 19 18 19 24 27 33 40 38 36 33 30 32 34 33 34 36
26 20 16 15 13 12 9 9 7 8 9 10 10 11 15 17 16 15 17 16 17 17 16 17 20 22 23 21 21 24 26 29 32 43 42 38 33 31 32 33 36 36 37
29 23 20 18 12 12 12 10 8 7 8 7 10 13 16 15 14 13 15 18 18 19 19 19 22 23 26 25 23 26 27 33 32 39 45 38 39 30 33 30 34 35 33
29 24 22 18 14 11 9 8 8 7 8 9 11 14 14 14 16 17 18 18 18 18 19 22 25 26 27 26 25 27 29 29 33 39 46 43 43 37 30 36 33 34 35
26 23 23 20 15 13 11 9 7 7 8 10 13 15 15 14 16 17 18 21 21 18 22 24 26 25 24 26 26 26 28 32 35 38 46 43 42 41 39 33 33 33 35
29 28 26 23 19 18 14 11 10 10 11 12 16 17 17 16 17 18 18 19 20 21 24 24 25 23 23 25 24 26 28 32 34 34 46 44 46 44 44 41 35 32 34
36 32 30 26 22 19 16 15 15 15 15 14 14 16 17 18 17 16 18 19 22 24 22 20 21 22 22 22 23 27 29 31 33 42 44 45 47 43 42 43 41 33 35
39 32 29 26 24 20 21 20 19 16 17 16 14 17 17 17 18 19 19 22 26 28 25 22 21 22 23 25 25 26 32 29 32 38 38 43 41 41 41 44 42 35 35
35 30 31 27 25 23 23 20 19 19 20 19 18 20 17 20 20 16 19 23 29 22 19 20 19 24 23 24 26 31 31 30 34 44 38 43 46 47 36 36 43 36 37
31 29 27 26 25 25 24 21 21 24 23 21 20 22 18 18 20 21 21 23 21 25 24 17 20 22 22 26 29 28 28 26 35 42 44 49 49 48 23 35 46 41 37
28 23 24 24 23 23 23 22 25 25 24 19 21 22 20 16 18 19 21 24 22 21 20 21 19 19 22 26 25 27 20 24 33 36 49 51 55 47 18 16 35 46 37
22 24 24 23 21 22 24 24 26 25 20 16 22 19 12 14 16 16 22 20 14 20 24 18 16 19 24 25 27 23 18 20 28 33 49 50 53 52 17 14 18 38 44
20 15 16 17 18 22 25 24 23 17 26 18 21 13 12 14 14 17 13 12 17 17 14 13 15 17 17 23 22 18 16 18 25 29 37 44 55 49 29 3 7 21 36
20 2 7 13 18 18 20 19 15 18 16 13 13 11 10 13 15 10 12 16 12 10 8 4 8 12 18 23 18 15 14 16 20 26 30 37 47 54 47 16 9 13 21
14 7 19 12 24 26 24 21 17 20 18 16 13 13 13 12 12 14 16 11 9 6 3 4 6 11 18 23 15 15 16 18 19 19 27 32 38 45 52 46 25 3 18
19 21 17 16 14 18 19 16 13 15 13 12 14 13 14 14 14 14 12 10 5 4 5 5 9 16 19 13 15 16 16 17 19 17 21 27 29 38 40 49 46 40 22
13 16 15 11 15 14 15 14 10 8 10 10 10 9 9 8 7 8 11 3 7 8 7 8 13 11 12 12 12 14 14 15 17 20 20 21 26 33 39 39 42 47 46
13 12 11 11 11 11 10 6 5 4 5 5 5 5 7 10 12 9 1 8 6 5 6 9 7 6 8 9 10 13 14 15 16 18 22 24 25 25 27 29 34 32 36
9 11 11 14 11 9 9 7 6 7 6 6 6 7 8 8 12 9 10 9 8 6 2 2 3 5 6 7 8 9 11 13 15 16 18 19 21 22 21 21 24 26 27
13 11 10 8 12 11 10 7 4 5 5 5 6 6 10 14 14 14 6 2 0 2 3 4 5 5 6 7 7 8 8 9 11 14 15 17 18 19 19 19 18 18 22
9 10 6 8 9 8 6 7 4 3 4 8 9 11 15 10 8 7 4 4 4 5 6 7 8 8 9 11 11 8 7 7 9 11 13 15 16 18 19 16 17 17 17
8 9 7 8 9 9 5 1 1 5 8 9 12 12 9 9 10 4 4 3 2 0 5 8 8 10 11 9 7 8 6 5 8 10 11 14 17 19 19 19 19 17 18
10 9 14 14 10 10 7 6 8 8 6 7 7 6 6 7 9 9 5 6 3 6 10 8 8 7 6 6 7 9 11 11 10 12 11 13 14 17 19 21 21 21 18
10 11 9 9 10 9 10 9 5 9 8 7 6 6 4 2 5 7 7 4 5 8 9 7 5 5 5 5 6 8 10 11 9 9 9 10 11 10 14 17 19 21 22
8 8 6 5 8 11 8 5 7 6 7 4 8 6 4 2 0 1 4 5 6 2 4 7 8 5 3 4 4 5 6 6 6 7 8 8 7 8 9 12 13 16 16
5 12 11 10 11 10 11 11 9 7 8 7 10 10 10 9 9 9 9 7 4 4 7 8 9 6 5 5 5 3 3 3 3 5 7 7 7 7 8 10 9 13 12

GFSGL_850_spd_012.txt.gz
Wind_Speed
35 31 26 20 16 11 9 9 9 9 9 9 9 9 9 9 9 12 12 12 12 13 13 14 15 16 18 20 20 20 19 21 29 34 29 35 38 36 28 26 28 27 33
37 34 29 23 17 11 9 9 7 7 7 8 9 8 9 9 10 10 9 10 12 15 14 14 17 18 20 21 22 23 22 22 27 33 35 37 38 36 36 33 28 27 29
38 34 32 28 19 12 12 11 8 8 8 10 9 8 8 9 9 9 11 13 14 16 14 16 16 18 22 22 23 24 23 24 26 32 36 36 39 39 42 39 36 30 29
40 33 35 29 20 14 12 10 11 10 10 10 10 9 10 12 13 11 13 14 14 13 17 15 17 20 20 22 23 24 24 25 28 32 37 40 43 43 43 42 42 35 32
43 36 37 28 22 18 14 12 12 13 12 11 11 11 12 14 14 14 14 16 16 14 15 17 20 20 18 18 22 23 24 26 28 32 36 40 43 47 46 43 46 44 40
44 40 34 27 26 22 17 14 14 17 14 12 12 12 15 15 14 15 14 17 16 17 20 22 24 20 17 17 18 20 21 26 30 31 34 35 46 42 43 47 45 39 41
45 39 33 29 27 25 20 17 18 20 16 16 15 13 14 14 14 15 15 16 18 20 22 22 21 20 17 18 20 21 23 23 26 29 31 34 40 46 47 43 45 44 42
43 35 35 30 26 30 25 21 24 21 19 18 16 18 16 15 16 17 18 18 18 22 20 17 19 20 18 20 24 23 24 27 27 22 28 32 42 44 44 42 45 48 48
42 32 37 34 32 33 29 24 23 21 21 21 20 19 19 22 22 19 17 20 22 25 23 22 18 18 20 23 22 24 28 27 26 21 27 32 47 44 50 46 49 45 41
41 31 36 34 34 36 28 24 24 22 22 21 23 21 17 22 24 20 20 20 19 22 24 17 17 20 22 21 22 27 31 31 27 26 32 38 50 52 50 41 38 41 40
30 30 33 36 34 31 23 24 24 24 24 26 28 16 16 18 21 21 21 20 21 23 20 19 22 20 18 20 24 27 30 29 26 26 31 38 50 57 59 47 34 27 36
27 30 32 30 31 31 22 23 23 25 28 27 25 21 13 17 21 21 19 19 19 16 19 19 18 14 17 20 21 26 26 24 22 22 28 38 50 58 58 52 15 15 22
28 19 23 19 28 26 15 20 26 28 25 25 22 16 15 19 21 18 17 17 15 19 18 18 17 17 17 17 22 25 22 18 18 20 23 31 44 51 53 48 14 5 10
11 10 14 28 20 22 18 26 21 19 18 18 15 12 13 17 15 17 17 15 17 16 17 17 14 13 16 18 21 17 14 15 17 15 19 25 37 47 53 47 39 2 4
8 6 4 26 14 18 22 20 17 16 15 14 11 11 12 14 15 16 17 17 14 14 15 12 12 12 16 20 12 11 12 12 14 14 16 21 28 39 44 50 43 40 19
12 5 17 24 24 21 16 13 16 17 12 11 10 11 12 14 14 13 13 13 13 13 10 9 10 14 14 10 10 9 10 12 14 15 16 19 24 30 35 43 44 43 43
12 11 19 18 18 17 16 14 11 10 8 10 13 12 13 12 9 10 11 8 12 11 9 10 11 10 9 10 7 8 10 12 12 12 14 18 20 23 27 35 40 44 41
12 15 14 14 14 13 11 9 8 10 11 11 13 10 9 10 8 5 6 6 9 10 10 10 5 5 6 6 7 7 8 11 12 13 13 15 19 21 22 27 32 31 37
9 12 14 15 14 11 11 12 10 11 10 11 9 7 8 9 12 10 10 10 13 12 8 4 3 4 6 7 8 9 10 11 12 13 14 15 18 19 18 17 21 28 27
10 20 16 16 15 13 11 5 6 9 10 10 6 2 6 12 13 11 7 6 5 4 2 3 4 5 6 8 10 9 8 7 8 10 12 14 15 16 17 18 16 17 19
13 14 12 12 11 10 8 7 6 7 4 4 5 5 6 8 7 6 3 3 3 2 3 6 8 10 10 11 10 8 4 5 7 8 10 12 15 16 16 15 16 15 16
13 13 16 15 13 12 9 8 7 6 5 7 10 8 5 6 7 6 6 4 3 2 5 11 13 11 8 7 5 5 4 5 6 8 10 12 14 16 16 17 14 15 15
11 13 15 16 13 10 10 8 9 10 11 13 11 9 7 3 4 7 6 7 5 5 8 11 8 5 3 2 4 5 5 6 9 8 9 10 11 14 15 17 18 16 17
14 13 12 10 10 10 10 10 9 10 10 11 13 10 9 6 3 4 3 6 5 6 10 6 4 4 3 3 3 4 4 6 7 7 7 7 9 9 11 13 16 18 18
9 7 6 6 6 7 8 10 8 8 8 10 11 12 10 7 5 3 2 2 5 6 4 5 5 3 1 1 1 1 2 4 5 7 6 6 6 7 8 10 12 13 15
8 7 11 14 14 13 13 15 14 13 11 12 12 12 10 9 8 8 8 8 8 8 4 3 6 5 3 4 4 2 3 4 5 6 6 5 6 6 5 8 10 10 12

GFSGL_850_spd_015.txt.gz
Wind_Speed
43 39 33 28 24 18 17 16 14 11 12 13 11 11 10 9 8 10 12 12 12 11 12 14 14 14 16 19 20 20 21 24 28 31 29 28 29 27 28 32 29 30 31
47 43 38 30 29 23 19 17 14 13 13 12 11 9 8 7 8 9 9 10 13 14 15 14 14 16 20 20 22 23 23 24 27 31 32 32 32 31 33 33 37 35 35
51 48 44 35 33 29 22 18 15 13 13 12 11 9 7 7 8 9 10 12 14 15 16 15 17 17 20 21 21 24 24 25 26 30 34 33 33 33 34 38 40 43 41
56 53 52 45 36 32 24 19 17 15 14 14 13 10 9 9 10 11 12 14 14 15 19 20 19 19 22 22 23 23 23 25 26 29 33 37 37 37 35 40 48 49 57
60 59 55 50 35 32 26 20 18 17 16 17 16 13 10 11 11 11 13 16 16 17 17 19 21 23 25 24 22 22 22 24 26 29 32 35 37 37 36 38 49 51 49
57 59 48 34 25 26 25 24 22 20 17 18 22 17 13 12 12 12 15 17 17 18 19 20 22 26 26 21 21 23 23 25 27 29 31 34 35 34 36 40 50 45 48
49 51 48 36 26 41 38 35 25 21 20 25 22 20 14 11 10 13 16 17 19 19 20 23 24 24 21 22 23 23 23 24 25 27 31 33 32 32 37 45 47 47 52
45 47 46 41 45 34 40 40 28 23 24 24 24 20 17 17 15 17 17 19 21 20 22 24 26 24 24 22 22 25 25 23 25 29 31 33 29 33 37 47 49 56 53
44 44 39 34 43 32 34 39 31 23 26 23 23 20 21 19 18 21 17 19 21 22 23 24 24 22 21 22 24 24 26 26 28 29 30 29 29 34 41 45 54 51 50
38 38 39 32 39 37 30 27 29 25 27 26 24 24 26 22 23 23 21 20 21 21 21 25 25 20 22 24 20 21 26 28 31 32 27 23 24 31 41 44 57 51 49
28 29 29 29 25 29 27 23 23 26 31 30 28 28 27 27 22 19 19 18 19 19 22 20 19 20 19 18 19 22 26 30 33 29 28 26 27 34 47 50 58 53 49
19 21 28 27 25 24 21 18 21 25 40 31 29 29 27 25 20 18 17 18 19 19 17 20 21 20 19 20 21 23 26 30 26 25 25 23 27 35 50 56 56 51 21
21 24 26 20 18 16 15 23 30 20 25 30 26 23 20 18 17 16 17 17 19 20 18 20 21 19 17 16 20 24 25 23 23 23 22 23 25 32 47 54 54 40 16
20 22 19 19 16 19 22 15 27 24 25 19 16 17 15 14 14 14 15 17 19 21 20 18 19 17 15 18 22 24 17 18 19 19 20 21 24 29 39 45 52 43 30
13 11 9 17 15 19 13 12 16 19 18 17 14 12 12 11 12 14 15 17 19 19 18 16 14 14 16 20 18 13 13 14 14 15 18 21 23 27 34 40 45 48 40
14 10 17 20 17 14 16 19 22 17 14 12 8 9 10 11 12 12 12 12 14 14 14 12 12 14 18 18 15 11 11 11 12 16 18 21 23 25 27 34 38 45 45
12 7 6 9 12 13 12 15 15 13 8 9 9 9 10 11 9 8 10 10 11 11 9 10 13 15 14 12 11 12 13 14 15 16 18 20 22 22 22 25 30 37 41
12 12 13 10 12 11 9 8 7 8 8 8 9 8 7 7 8 10 11 10 8 8 10 12 14 12 11 10 11 12 12 12 14 16 18 20 21 21 20 19 21 24 30
11 12 11 12 11 9 7 6 6 7 7 8 8 5 6 9 12 12 12 14 13 13 15 13 10 9 11 11 12 14 13 13 14 15 16 18 19 20 17 17 16 18 22
10 11 12 10 6 6 7 8 7 7 8 8 7 5 5 8 11 12 10 9 9 8 8 7 7 9 10 11 13 13 11 9 9 11 13 15 17 18 17 17 16 17 17
13 14 11 10 9 7 7 7 5 5 5 4 5 5 4 5 9 12 10 8 6 5 4 6 8 10 11 10 9 8 6 6 7 9 11 13 17 19 17 15 15 14 15
15 13 13 13 12 10 9 8 8 9 8 4 4 7 8 7 7 10 8 6 6 5 4 8 12 10 8 6 4 3 3 4 4 6 9 12 15 17 18 17 16 15 14
11 12 14 16 14 12 11 9 9 9 9 9 12 11 9 12 8 8 8 7 4 3 6 10 10 7 3 1 1 2 3 4 5 7 9 11 13 15 17 18 19 17 15
10 12 14 14 14 12 10 13 11 9 8 10 12 13 13 12 10 7 6 4 4 5 7 6 5 4 2 0 0 1 2 4 6 8 8 9 11 12 13 14 15 16 15
11 11 10 10 11 12 11 12 12 10 10 8 9 11 15 15 13 8 5 3 2 3 3 4 4 2 2 2 2 3 3 3 5 7 7 7 8 9 10 12 12 13 14
9 10 13 13 12 13 15 14 13 13 14 12 11 13 15 17 14 11 8 7 6 4 5 3 2 1 1 1 3 5 5 4 3 5 6 6 5 6 7 10 11 12 14

GFSGL_850_spd_021.txt.gz
Wind_Speed
42 45 44 42 37 30 27 18 16 15 14 15 14 14 16 15 15 14 12 13 13 12 10 10 11 12 13 14 14 18 18 20 20 25 21 24 25 25 24 24 26 28 30
46 47 46 44 40 31 24 21 17 12 13 15 17 18 18 17 16 15 13 14 13 12 10 13 14 15 16 16 17 19 20 21 23 25 27 22 24 25 29 30 29 30 31
50 50 48 48 42 38 38 34 18 6 10 18 20 21 21 19 17 15 14 14 15 14 12 14 15 16 18 18 19 19 20 23 23 29 28 24 24 28 30 30 28 30 32
45 48 48 48 46 41 41 38 32 22 33 31 25 26 25 20 20 19 17 15 16 16 14 17 17 18 17 17 19 21 24 25 24 26 28 24 22 23 22 25 26 25 30
41 42 46 46 45 45 47 50 48 28 23 37 32 28 26 24 23 22 18 17 16 16 16 17 19 19 19 19 21 23 26 22 20 22 23 23 24 23 25 26 28 29 32
34 35 38 41 41 46 52 56 50 43 32 30 40 31 29 28 27 23 21 21 19 19 18 18 19 20 22 22 23 24 25 27 27 26 23 25 32 26 26 27 30 32 35
24 27 29 30 34 40 49 55 52 44 37 31 38 37 33 33 27 24 23 24 24 23 22 22 22 22 21 22 24 25 27 26 25 26 28 28 26 29 29 33 33 32 34
17 21 23 24 26 32 41 47 50 45 36 36 37 38 33 30 28 25 24 25 27 28 25 25 26 23 23 23 24 25 22 23 25 24 24 29 30 32 36 34 34 33 33
14 16 19 20 22 28 35 41 44 44 35 33 38 40 32 27 29 27 23 27 29 33 28 28 24 22 22 21 23 22 23 22 22 24 25 27 29 30 26 26 29 25 33
7 8 10 14 20 25 30 36 40 44 36 30 33 40 31 26 28 28 35 36 34 33 27 27 22 20 20 20 20 21 22 21 24 25 26 28 26 22 21 21 24 27 33
11 12 10 12 17 19 25 29 32 33 32 31 27 27 25 27 29 32 31 26 27 33 26 24 20 20 20 20 20 20 20 21 25 25 24 20 19 19 19 19 25 26 35
15 12 10 13 14 17 20 25 25 29 26 19 20 24 23 25 27 27 25 24 24 19 19 20 20 19 20 22 19 18 17 21 23 20 18 17 18 21 24 27 29 31 34
12 10 10 11 13 12 17 19 22 19 22 20 17 18 20 19 19 19 20 16 14 15 19 19 18 20 21 19 18 17 18 21 21 17 16 18 21 25 28 30 32 32 35
5 6 11 13 14 14 15 16 17 17 16 16 13 14 15 15 14 12 10 10 11 13 16 18 19 19 18 17 15 15 19 20 17 17 19 20 23 24 26 29 32 31 36
6 10 12 13 12 12 15 13 12 12 13 15 14 15 14 13 11 9 8 9 11 14 17 18 17 15 14 13 13 16 16 14 13 15 17 19 22 23 26 27 28 29 32
9 9 7 6 9 11 10 9 11 10 12 13 12 11 10 9 7 7 8 11 14 15 16 15 12 13 12 11 13 13 12 12 14 17 18 20 21 22 24 25 23 26 28
9 9 3 4 9 10 11 12 10 10 11 10 8 7 7 7 7 9 11 12 13 14 13 12 10 11 11 13 12 11 11 14 16 16 17 18 18 19 21 21 21 25 25
8 1 4 4 7 8 8 7 7 7 7 7 7 6 7 7 7 7 9 11 10 11 11 9 10 12 13 12 10 11 13 13 13 14 13 14 15 17 18 19 18 23 27
4 3 2 5 7 6 6 6 8 10 11 11 11 10 8 6 4 2 4 6 6 7 9 11 12 11 10 10 11 12 13 12 11 10 10 11 14 16 17 18 18 20 24
4 2 3 4 4 5 8 10 12 12 12 12 11 9 7 6 4 1 5 7 6 4 6 7 7 7 9 10 11 10 8 6 6 6 8 10 13 14 16 18 17 19 21
7 7 7 6 4 5 7 8 10 11 12 11 10 7 5 5 3 3 6 8 4 2 4 5 6 8 10 9 7 4 3 3 4 5 8 10 12 13 15 16 16 16 19
8 8 7 6 6 6 10 11 12 13 11 12 11 10 10 8 6 6 5 7 6 4 4 5 6 9 9 6 2 1 1 2 4 6 7 9 11 12 14 15 16 16 15
9 8 9 8 9 10 11 11 14 12 13 14 10 8 7 10 9 9 7 6 6 6 5 6 8 9 6 3 3 2 1 1 4 6 7 8 9 12 12 13 15 15 15
5 5 7 9 10 10 11 14 16 12 12 11 8 6 7 9 10 12 11 8 8 8 6 7 8 6 5 4 4 3 2 2 4 5 6 8 8 10 10 11 12 15 14
4 6 7 8 9 9 9 12 13 13 11 11 9 7 7 7 9 12 12 11 9 9 7 7 7 6 6 5 5 5 5 4 4 4 6 7 7 9 9 10 11 12 14
1 1 2 3 5 7 8 10 13 13 13 11 10 10 10 11 11 12 13 14 12 10 9 8 7 5 4 4 4 4 5 5 4 3 3 5 5 6 7 9 10 10 12

GFSGL_850_spd_024.txt.gz
Wind_Speed
37 39 39 38 35 34 32 29 26 21 18 17 13 7 14 16 14 15 14 13 13 11 10 11 12 13 11 11 13 13 14 15 20 19 18 18 18 21 20 18 19 20 21
38 39 40 41 40 39 36 32 30 25 20 19 11 16 16 21 18 16 16 13 13 12 11 12 12 12 15 15 13 15 16 16 19 24 24 23 23 21 21 23 23 23 24
31 34 37 40 42 44 37 39 34 29 25 23 14 23 23 21 21 22 18 17 15 15 13 13 13 14 15 14 14 14 16 17 19 23 24 24 24 22 23 21 21 25 23
30 30 32 36 44 43 43 44 42 41 34 28 23 20 31 26 22 23 22 20 18 16 16 14 15 15 16 15 15 15 17 18 19 23 25 24 22 22 23 23 23 25 28
28 28 30 32 37 38 43 45 44 46 44 35 32 28 25 27 25 25 22 21 20 16 16 16 15 16 16 18 18 18 21 22 22 25 27 26 25 23 22 26 27 27 29
27 28 27 29 30 35 40 45 49 50 49 48 45 33 27 30 26 26 24 22 21 18 16 17 16 19 21 19 20 22 23 27 26 24 25 25 24 23 25 25 27 29 33
26 25 24 25 24 24 31 39 50 50 50 50 43 34 28 32 31 28 23 23 22 19 18 19 24 23 21 23 22 23 24 25 27 25 23 23 23 22 25 29 26 28 32
25 24 22 22 19 20 26 30 38 48 53 50 46 39 30 28 31 31 24 25 26 28 25 26 28 30 25 25 23 23 21 18 19 21 21 21 22 24 29 29 29 32 30
21 21 19 16 17 18 21 24 27 32 39 41 35 34 31 24 28 27 27 29 31 29 31 31 36 31 24 25 25 23 22 19 19 23 27 27 27 27 28 23 22 22 26
19 16 14 13 15 16 18 21 22 25 28 23 26 26 23 21 26 23 26 28 29 30 32 30 33 32 28 24 25 22 18 17 18 20 21 21 22 21 22 22 23 23 27
16 15 14 12 14 17 16 20 19 19 20 21 21 25 28 24 25 27 24 27 28 28 25 29 25 22 20 22 22 21 18 22 24 21 20 20 19 18 17 17 19 23 28
13 10 10 14 16 15 15 18 17 17 19 20 20 22 22 21 22 21 22 25 26 25 24 13 15 17 19 19 21 22 21 21 18 17 19 19 18 19 19 20 24 25 25
12 14 16 16 13 13 13 15 14 13 15 18 20 18 17 16 16 17 23 23 21 23 17 14 18 19 19 21 22 19 18 14 14 17 17 17 17 20 22 23 24 26 25
12 14 15 15 13 11 10 11 12 12 14 16 15 9 9 13 14 13 16 15 17 15 15 16 18 18 19 15 19 14 9 12 13 14 14 16 17 19 22 22 24 22 23
15 14 12 13 14 13 14 12 8 9 9 7 7 8 10 11 14 14 11 9 9 11 13 10 10 10 10 11 11 12 11 10 10 12 14 15 17 19 21 21 21 20 22
13 11 11 11 11 10 10 10 10 8 11 13 12 10 10 11 10 10 12 12 12 13 12 11 13 13 13 13 12 12 11 11 10 12 13 14 17 18 19 19 18 18 22
13 13 13 11 10 10 10 8 7 10 9 10 11 11 10 10 11 11 10 11 12 14 12 12 13 13 12 12 11 10 10 11 13 10 12 13 15 15 18 18 18 18 21
15 14 9 8 9 10 10 10 8 7 8 12 12 11 11 9 7 7 8 11 10 10 8 10 11 11 10 10 10 10 10 10 10 11 10 11 11 13 15 17 17 18 21
10 9 10 11 11 11 11 11 10 10 10 11 13 11 10 8 7 8 8 5 7 8 9 9 9 9 9 9 9 9 10 8 9 7 8 9 10 12 14 16 17 18 22
9 11 11 10 11 10 11 10 11 11 12 11 10 10 10 7 5 4 4 3 4 5 7 7 7 7 7 8 9 9 6 6 6 6 7 8 9 11 14 15 16 17 18
10 11 12 9 9 9 9 10 10 11 11 11 11 12 12 8 6 6 5 5 4 4 5 5 7 7 7 8 7 6 4 4 4 4 6 7 9 11 12 13 15 15 16
11 9 9 7 7 7 8 9 10 10 11 12 12 14 12 9 7 7 7 6 5 4 5 7 6 7 7 7 6 4 3 2 3 4 6 7 8 10 11 12 14 14 15
8 8 8 8 8 9 10 9 10 11 12 13 13 11 12 11 8 10 9 7 7 6 6 6 7 7 7 5 5 4 3 3 3 4 6 7 8 10 10 11 12 13 14
5 6 7 8 9 9 9 11 12 14 14 13 13 12 11 11 11 11 10 10 9 7 6 6 7 7 7 6 5 4 3 5 3 4 5 6 7 9 9 10 10 12 12
4 5 7 8 9 9 11 12 13 14 15 14 13 12 11 10 9 10 10 10 10 9 7 6 7 7 7 8 7 7 10 7 6 4 3 6 7 8 8 8 9 10 11
3 5 6 7 8 9 10 11 12 14 15 14 14 13 12 11 11 10 10 10 11 10 9 8 8 7 7 6 7 8 7 7 6 5 3 4 5 6 4 7 8 7 9

GFSGL_850_spd_027.txt.gz
Wind_Speed
39 38 37 37 35 35 33 33 31 27 27 27 22 20 16 11 12 16 9 14 12 11 10 12 11 9 8 10 11 10 11 13 18 18 14 15 17 20 21 21 20 21 20
38 40 40 39 38 38 38 36 34 33 31 29 25 23 21 15 15 14 13 11 14 14 15 10 11 10 11 13 11 11 12 16 17 21 19 18 19 19 21 23 23 19 23
36 36 39 41 42 43 42 40 38 38 35 32 29 28 24 14 17 17 15 16 17 16 12 13 13 12 13 12 15 15 14 15 17 18 21 20 22 21 20 22 24 24 22
35 35 38 42 44 43 42 43 43 43 40 38 34 29 27 13 20 19 18 18 17 15 15 13 14 12 14 16 15 17 17 17 16 19 23 23 23 26 20 24 24 22 24
38 38 38 39 40 38 38 40 42 42 41 39 35 32 30 21 21 21 21 20 19 17 17 15 15 14 18 16 18 20 21 20 19 20 22 24 25 25 24 22 25 25 23
38 39 37 37 38 39 37 35 37 35 36 40 37 35 33 24 20 19 21 20 19 20 18 16 19 18 19 20 21 24 24 27 27 25 24 25 28 23 20 22 22 25 28
37 37 36 36 37 35 29 30 36 35 40 45 44 40 31 24 21 21 20 22 20 20 21 24 22 23 25 24 26 29 28 25 25 24 26 25 23 21 21 26 25 27 29
40 33 33 34 32 29 26 30 33 32 35 39 35 35 29 24 24 21 20 26 25 25 25 26 26 26 27 27 32 25 21 24 23 23 25 25 22 24 27 29 33 33 29
35 34 33 29 28 26 27 28 27 26 29 30 30 26 27 30 25 26 23 24 24 27 26 30 28 30 31 32 35 27 24 25 20 23 24 25 29 30 23 19 20 22 27
31 33 29 26 26 23 21 21 22 22 24 27 26 28 29 33 31 29 25 25 23 22 26 27 29 30 30 33 30 27 23 19 19 19 22 23 28 22 21 21 23 22 24
26 25 25 24 21 18 20 19 21 22 21 23 22 17 19 19 19 22 20 22 20 21 21 25 25 26 30 25 22 20 20 21 24 26 22 21 20 20 19 18 17 20 25
25 22 21 20 17 18 18 16 17 18 18 16 13 13 16 21 23 24 22 24 23 20 16 21 19 24 22 17 16 19 21 22 24 18 18 19 19 19 18 19 24 28 27
24 22 20 19 15 16 18 16 14 15 14 14 11 9 15 16 15 16 17 18 15 16 17 23 23 22 19 16 18 21 21 19 14 15 17 18 18 18 22 22 22 24 27
22 20 19 18 20 16 13 11 10 11 11 9 9 9 9 10 11 11 9 11 15 23 25 23 18 17 19 18 19 16 14 9 12 16 17 15 17 17 19 19 22 23 24
17 16 16 16 14 17 19 18 13 11 8 5 6 8 9 8 8 9 10 11 13 12 10 10 12 9 10 12 12 12 13 12 14 14 15 15 17 17 18 18 20 21 22
17 15 15 16 15 12 12 11 8 6 8 8 13 10 11 10 10 9 11 12 12 14 11 13 13 15 15 14 10 11 13 13 13 13 14 14 16 16 17 18 17 19 20
15 14 12 11 12 11 10 9 10 11 9 10 11 11 12 11 12 12 10 11 13 13 13 11 13 14 13 13 11 13 13 13 15 15 12 14 15 15 16 16 17 18 19
20 21 19 14 11 10 9 9 8 7 7 10 11 10 9 9 8 7 7 7 8 9 7 8 12 12 11 11 12 12 12 12 12 12 12 12 13 14 14 15 16 18 19
17 14 11 11 11 11 11 10 9 8 8 7 10 12 11 10 8 6 7 6 7 8 9 10 10 10 10 10 10 10 10 10 11 11 8 10 11 12 13 14 16 17 18
13 14 12 11 10 10 10 10 9 9 10 9 9 9 14 10 6 5 4 4 4 6 6 7 8 8 7 8 9 9 9 8 7 7 8 9 10 11 13 14 15 16 16
6 11 13 12 9 11 10 10 10 10 11 13 13 16 8 7 6 6 6 6 5 5 6 6 6 7 7 7 7 6 6 6 6 6 7 8 10 11 12 12 14 14 15
11 11 11 13 12 13 10 10 11 11 12 10 12 15 12 10 8 8 8 7 6 6 5 6 6 6 7 7 7 5 5 5 5 6 6 8 9 10 11 12 12 13 14
8 10 9 10 10 10 9 10 9 9 8 11 12 15 14 12 9 9 8 8 8 7 7 6 6 7 7 7 5 5 5 4 5 5 6 7 8 10 10 11 12 13 13
8 6 6 5 8 7 8 9 8 11 11 13 14 11 12 12 10 9 10 8 8 8 8 8 7 8 7 7 5 5 5 10 6 4 6 5 8 10 9 10 11 11 12
6 5 7 6 7 7 9 9 11 15 13 11 14 13 14 12 10 10 10 9 10 10 10 9 8 9 9 9 7 10 15 13 10 8 6 4 7 9 8 9 10 10 11
4 6 8 7 7 9 9 8 12 10 13 15 16 15 13 14 14 11 11 10 10 11 10 10 10 10 9 9 9 15 12 10 9 7 4 1 6 6 6 7 8 8 9

GFSGL_850_spd_030.txt.gz
Wind_Speed
44 41 41 40 40 36 35 35 35 33 29 31 28 23 20 19 19 15 14 12 11 9 12 15 16 13 12 12 9 9 9 10 13 15 15 18 20 21 22 22 22 24 22
46 43 44 41 40 40 39 39 40 37 35 36 34 29 23 24 23 16 17 19 16 13 12 11 11 9 7 8 7 7 9 11 14 18 20 18 17 20 21 25 23 23 23
45 46 45 44 42 42 41 39 41 41 40 40 39 35 31 28 27 18 19 18 18 18 15 14 12 9 11 11 13 12 15 15 15 18 20 20 23 21 22 22 21 22 25
45 46 47 46 45 44 41 40 39 42 42 43 41 37 35 32 30 21 21 21 20 20 18 17 14 14 14 14 12 13 12 14 17 18 19 21 20 20 21 24 26 29 23
46 45 46 47 45 43 42 41 39 40 42 42 40 37 38 35 33 25 22 22 21 20 20 19 18 16 14 18 16 16 16 19 25 25 25 28 27 29 30 33 25 21 20
47 47 43 43 43 44 42 40 39 39 42 41 42 38 39 37 35 26 22 24 22 21 22 23 20 20 22 22 19 19 21 22 26 28 26 24 30 29 29 29 27 29 34
47 47 45 43 43 43 41 39 40 39 38 38 36 36 36 37 34 26 24 23 24 23 22 22 21 23 27 27 22 24 27 27 30 22 21 20 25 26 26 28 30 32 36
47 45 46 45 45 42 40 39 37 35 37 36 33 33 34 34 31 26 25 22 23 22 25 24 24 28 26 27 27 27 29 29 25 22 25 23 22 23 27 30 34 34 28
44 44 43 44 43 42 39 35 33 31 32 32 29 30 30 29 26 27 25 27 24 25 30 28 27 28 29 26 28 27 30 32 25 25 18 21 22 27 28 28 23 25 28
43 43 37 39 40 39 34 32 26 27 29 26 26 25 26 25 26 25 24 25 26 26 27 27 27 27 28 27 26 27 30 27 15 15 19 21 25 29 18 21 27 31 30
37 35 34 34 33 31 27 20 20 21 20 23 22 24 25 25 25 25 26 27 26 25 24 20 21 17 19 23 23 26 23 17 17 20 24 26 19 16 19 20 16 16 22
32 33 32 31 29 26 22 20 23 19 22 22 19 20 19 18 18 20 19 20 19 18 16 15 14 18 19 17 19 18 15 16 18 22 23 15 15 16 15 20 22 25 26
32 32 32 28 25 23 23 24 21 20 21 23 21 17 14 14 16 18 19 21 20 19 20 19 18 20 19 20 17 14 17 18 18 16 12 17 17 20 22 23 20 21 23
33 29 28 30 27 23 21 20 19 15 18 19 19 16 12 11 14 11 10 9 10 14 16 18 18 14 14 15 16 13 11 11 9 10 16 16 14 18 18 19 21 23 25
32 32 31 27 23 21 21 19 15 14 16 14 15 12 11 10 11 8 9 10 11 10 10 9 8 9 11 12 12 13 12 12 10 9 14 17 18 16 18 19 20 19 21
31 27 27 26 22 21 21 22 16 12 14 15 11 10 12 11 9 7 6 6 7 6 5 8 10 11 16 15 12 11 10 10 10 11 13 16 16 17 18 18 18 18 21
24 27 26 24 20 24 20 20 19 18 15 14 14 12 7 7 6 8 7 6 7 6 9 14 12 10 11 8 11 9 8 10 11 13 14 13 14 15 15 16 17 18 19
16 17 20 23 22 16 12 13 14 17 17 17 16 12 9 8 8 7 6 5 5 5 4 4 6 8 6 5 6 6 9 10 9 9 11 12 10 13 13 15 16 18 20
22 18 17 20 19 19 17 20 11 12 10 9 13 13 11 8 7 6 6 5 4 5 5 7 5 5 8 8 7 8 10 12 12 12 10 4 10 10 12 15 15 17 19
14 16 15 16 18 17 16 14 14 17 13 6 5 9 9 8 6 5 4 3 2 4 6 5 5 8 9 10 10 10 9 6 6 7 7 8 8 10 11 14 15 17 17
11 17 14 13 14 12 12 11 11 13 15 13 10 6 4 3 3 3 4 5 3 1 4 6 7 6 6 7 7 5 4 4 5 6 6 6 8 8 13 11 15 15 15
10 11 12 11 15 13 10 8 9 10 12 15 17 16 12 6 8 9 9 8 6 6 6 6 6 5 6 8 8 6 4 4 5 6 5 5 6 8 12 9 14 14 14
12 15 11 8 15 14 15 14 10 13 8 13 17 19 19 13 9 9 11 9 8 7 7 6 6 7 7 8 7 6 7 4 7 6 5 4 5 9 9 11 13 12 14
9 7 9 8 10 9 5 8 12 10 9 10 12 13 14 13 11 11 10 9 10 10 8 8 6 6 7 10 9 4 7 12 11 10 7 3 3 8 7 10 13 8 12
8 5 3 7 9 10 7 7 9 8 11 13 13 12 14 15 13 11 11 10 12 9 10 10 8 7 11 11 8 11 13 14 14 11 9 6 1 6 10 4 10 11 10
4 5 9 6 6 9 9 8 8 10 12 13 16 15 13 11 13 14 12 13 9 11 11 11 11 9 10 10 10 14 14 12 11 9 7 4 2 5 10 4 8 9 8

GFSGL_850_spd_033.txt.gz
Wind_Speed
44 41 38 36 39 40 40 40 35 31 29 30 28 27 26 24 23 22 18 15 16 15 15 14 13 12 11 17 16 13 11 12 11 12 11 10 13 16 14 16 17 19 22
46 42 40 39 38 41 41 41 40 40 38 34 32 32 30 28 25 26 23 19 19 18 17 19 19 16 15 15 20 17 15 12 13 14 14 15 17 15 16 19 19 18 23
49 46 42 41 41 43 42 41 41 39 43 41 40 39 38 35 30 28 27 21 21 19 19 20 19 18 16 16 15 15 13 12 15 18 20 19 17 14 16 14 17 19 20
50 48 46 45 44 44 44 41 41 41 42 44 43 43 41 39 35 31 29 25 25 23 23 21 21 21 18 16 16 16 14 16 16 15 18 22 22 18 18 20 24 26 27
50 49 48 45 45 45 45 44 40 42 43 43 44 44 43 40 38 34 30 29 27 25 25 27 24 24 21 19 19 18 17 17 17 17 21 26 28 27 23 21 22 24 23
50 48 46 44 46 46 46 45 43 41 42 44 45 43 42 39 38 33 31 33 29 26 26 27 26 25 24 23 22 20 19 22 22 23 27 27 24 22 20 18 19 22 25
54 50 47 45 45 46 46 45 44 42 39 41 41 39 37 36 36 32 32 34 30 27 26 27 28 27 26 26 26 24 23 22 24 25 28 24 19 21 19 22 22 24 29
55 53 50 46 45 42 43 44 43 39 38 37 37 34 32 32 30 28 29 30 29 27 28 26 27 28 29 27 25 24 25 26 26 27 28 23 20 19 19 22 24 28 29
57 54 52 48 46 43 43 43 40 37 36 35 32 29 28 27 23 22 27 30 28 28 29 28 27 29 27 25 24 24 25 28 27 27 27 19 18 19 20 22 25 29 29
55 55 54 51 49 46 44 43 38 36 32 28 24 24 21 23 19 20 21 26 29 31 29 29 30 30 29 23 22 23 27 26 24 24 16 15 17 20 23 20 21 28 29
53 51 51 46 47 46 45 41 35 31 26 28 27 24 11 22 18 20 24 26 26 25 26 27 27 24 20 18 18 19 19 23 20 16 17 19 19 15 12 15 14 15 19
48 37 41 41 43 45 41 36 29 27 27 27 25 25 19 16 19 21 23 21 20 23 25 23 21 20 16 15 15 17 17 15 13 15 19 17 10 10 11 16 20 20 18
38 37 36 38 40 36 33 32 24 28 27 24 20 16 14 14 16 19 20 20 20 21 21 21 17 16 17 16 17 12 10 9 8 10 12 9 12 16 17 18 20 19 21
40 38 38 36 32 29 26 24 25 25 23 22 18 13 12 16 19 17 17 18 20 22 21 17 19 17 16 8 4 6 5 7 9 13 11 9 14 16 19 19 18 21 19
39 37 36 34 31 29 27 23 21 20 19 19 18 13 14 17 16 13 13 13 12 11 12 15 16 12 4 4 6 7 8 11 13 11 10 11 17 20 20 18 15 15 17
29 26 28 27 28 29 27 26 22 17 19 17 15 14 17 15 13 11 10 10 9 9 10 9 7 5 6 9 12 13 13 12 11 10 13 14 16 16 15 12 14 14 17
20 23 27 30 27 25 26 25 26 20 17 19 14 13 13 13 11 11 10 8 7 7 6 5 7 9 9 11 5 7 8 10 8 9 11 12 15 15 12 13 13 16 17
30 33 25 22 20 21 21 19 16 16 21 19 19 17 14 14 12 11 9 8 8 5 3 2 2 5 3 5 6 7 8 9 10 11 12 14 15 9 10 11 14 15 17
18 21 21 21 19 18 17 16 14 18 19 16 18 18 15 13 11 9 9 8 8 5 7 6 5 8 6 6 8 11 14 16 18 18 5 2 4 7 10 10 13 12 16
16 16 19 20 18 17 14 14 16 14 13 12 18 17 15 13 10 9 8 8 11 6 6 8 8 8 10 11 13 15 16 16 7 3 4 5 6 8 8 11 11 14 15
12 16 19 20 19 16 13 18 21 15 14 11 10 12 9 7 6 7 7 7 7 11 10 9 10 11 11 12 8 6 1 1 4 7 9 10 11 7 9 11 9 12 15
11 15 15 14 19 16 17 14 22 26 23 15 12 12 11 9 7 8 9 11 10 7 8 9 9 9 7 7 8 8 7 7 9 11 12 13 8 4 7 6 9 12 13
10 5 4 12 15 19 19 20 17 20 17 21 17 12 13 13 14 13 13 11 13 11 12 8 8 10 10 13 13 11 10 13 10 12 12 10 6 4 5 6 10 13 12
19 21 23 18 23 23 18 14 14 9 6 13 16 17 18 19 15 14 13 12 11 13 12 12 13 12 11 12 12 12 9 11 15 13 9 7 5 4 2 4 9 7 10
16 18 22 14 12 11 11 8 12 14 15 13 13 16 17 19 17 16 15 13 11 15 15 13 14 12 10 9 9 9 9 10 12 13 11 8 5 3 4 7 6 8 10
11 12 10 8 3 12 9 9 10 12 17 13 14 14 14 20 21 20 20 18 10 12 18 18 15 13 12 11 11 10 9 11 12 11 8 7 9 6 2 2 2 5 7

GFSGL_850_spd_036.txt.gz
Wind_Speed
52 48 45 41 37 39 39 38 39 36 32 30 28 25 24 23 21 20 19 19 16 16 15 14 15 15 17 18 18 18 18 15 14 15 13 12 11 13 14 15 14 15 16
55 49 47 44 41 39 42 42 41 42 40 36 33 33 30 27 27 24 23 24 21 18 17 16 16 17 18 18 18 20 20 18 17 18 16 15 16 16 16 18 20 19 19
56 53 49 49 45 42 41 43 43 44 42 42 40 37 34 31 30 28 25 25 26 21 21 20 19 20 20 19 21 22 23 20 17 17 17 17 17 17 22 24 22 19 20
57 55 52 50 47 43 42 43 45 44 45 45 45 43 39 35 34 32 30 27 28 27 24 25 23 23 23 21 22 22 21 19 19 19 18 17 18 22 24 25 25 25 26
58 57 55 51 47 44 44 44 45 45 45 45 44 45 44 41 38 36 35 31 29 31 28 28 26 25 24 22 23 23 21 21 21 21 21 20 22 26 21 20 22 24 22
59 59 56 52 51 49 47 46 45 44 44 44 44 43 43 42 40 39 36 34 32 33 33 30 27 26 26 25 25 25 22 22 23 23 24 25 25 27 19 16 20 20 22
61 60 58 54 52 52 50 47 47 45 43 43 41 41 40 39 37 37 35 35 34 32 34 30 27 27 27 27 26 26 26 25 25 26 24 26 27 27 20 21 20 21 22
59 60 60 57 53 51 51 50 48 46 43 42 40 37 36 35 32 31 31 31 30 30 30 28 27 27 26 26 27 28 28 27 25 25 25 26 28 26 21 21 22 24 24
56 57 61 59 54 51 49 49 48 46 42 41 36 34 32 29 28 30 29 26 24 23 23 24 25 26 26 27 28 29 27 26 25 24 26 25 23 18 16 19 21 25 25
54 55 56 60 56 52 47 45 46 43 40 36 33 29 24 27 27 25 20 19 17 16 20 24 26 26 26 26 27 26 22 22 24 26 22 21 18 18 18 21 18 20 20
41 40 52 57 57 52 49 45 45 41 36 30 28 24 18 29 26 20 15 15 16 17 19 23 27 28 30 32 29 21 19 20 20 19 18 16 17 19 18 14 9 14 17
45 45 45 51 54 52 51 47 44 39 34 32 28 25 24 22 16 15 14 16 16 18 16 17 20 23 22 18 14 14 14 16 17 13 12 12 14 13 10 13 16 19 20
44 47 48 49 48 49 50 47 43 37 37 34 33 26 22 20 21 16 14 16 18 17 15 16 20 18 13 12 12 14 17 14 9 8 10 9 6 10 13 15 19 22 21
50 51 50 49 47 47 47 45 41 38 42 35 29 26 18 18 16 17 19 18 18 18 17 17 18 18 13 11 12 11 10 11 9 8 10 11 12 13 14 18 21 23 18
46 43 42 43 42 43 46 46 39 33 29 28 26 22 21 18 11 15 21 13 14 14 15 15 14 12 11 10 10 9 9 12 11 8 9 12 13 14 16 19 15 14 15
44 42 35 34 36 34 38 28 20 21 15 13 14 20 21 14 15 14 13 11 11 11 12 11 11 11 10 9 9 8 10 12 12 10 12 15 14 13 16 14 12 14 16
28 30 32 27 23 22 17 29 8 28 27 27 22 19 15 15 16 15 13 11 10 10 11 10 9 9 9 9 8 9 9 11 13 15 17 13 14 15 14 12 11 14 14
22 15 20 18 23 30 27 19 29 31 30 25 21 17 15 13 15 15 12 11 13 12 10 9 10 10 9 9 11 11 10 12 15 15 13 14 16 16 10 9 12 13 15
15 19 26 21 18 15 17 19 13 16 22 25 23 20 17 15 13 11 13 13 13 13 13 11 10 9 9 11 11 10 10 11 11 13 13 7 6 6 8 11 11 12 15
15 18 19 19 19 20 20 19 19 20 19 19 18 15 17 16 14 14 14 14 15 14 11 10 8 6 6 8 9 11 13 14 12 9 9 8 9 9 11 10 10 12 11
17 12 9 17 19 19 21 22 22 20 16 12 12 14 12 11 12 13 14 15 16 10 7 7 7 8 12 13 13 12 8 7 7 7 7 8 10 13 13 9 9 10 11
19 17 15 11 15 19 18 15 16 16 16 18 16 18 19 17 13 12 14 15 11 6 4 4 4 6 9 10 10 10 10 10 10 9 9 11 12 13 12 10 8 10 11
22 19 19 18 17 17 17 17 14 16 17 17 17 20 22 20 18 18 15 13 10 11 11 9 7 6 10 8 9 13 14 13 12 12 11 12 11 10 10 8 8 10 10
14 17 18 17 12 14 10 9 12 15 19 20 19 20 15 19 18 17 17 16 15 13 13 12 8 6 7 8 7 9 11 11 13 15 13 11 8 9 8 8 8 7 6
2 6 12 18 14 15 15 15 18 19 18 19 16 15 15 18 19 19 16 16 16 14 11 13 9 5 6 5 6 8 8 8 9 10 10 10 9 10 8 7 4 5 5
2 7 7 10 18 15 17 15 14 13 14 15 14 15 18 21 22 20 18 18 17 15 7 5 8 12 12 9 6 7 7 7 11 12 11 10 10 11 9 7 6 6 5

GFSGL_850_spd_042.txt.gz
Wind_Speed
53 54 52 51 48 44 40 34 33 33 33 37 35 30 26 25 24 24 22 21 21 19 17 16 15 14 14 15 16 16 15 14 14 11 10 9 9 7 8 9 12 16 18
55 53 53 51 50 47 44 38 35 34 34 36 37 35 31 29 26 24 24 24 24 22 21 21 19 17 17 16 16 15 14 13 14 13 12 11 11 9 7 7 8 15 17
53 53 53 52 52 50 47 42 39 37 37 38 39 40 37 35 33 29 27 26 25 23 22 23 22 21 20 19 18 17 16 16 15 16 15 14 12 11 12 14 17 20 22
50 51 51 52 51 50 47 46 43 40 39 41 42 42 40 38 37 33 30 30 28 26 25 25 25 26 23 21 20 19 18 18 18 19 18 17 15 15 16 19 21 21 22
47 49 52 51 50 49 50 49 46 44 43 42 44 45 45 44 42 38 35 33 31 29 28 28 29 28 26 23 22 20 18 19 19 20 20 20 20 17 17 18 22 23 25
45 46 48 50 50 50 50 51 48 47 46 45 45 48 49 49 47 43 40 37 34 32 31 29 33 32 28 26 25 22 22 20 20 21 22 22 21 19 20 19 21 24 27
46 46 47 48 49 48 49 50 52 51 49 49 48 49 51 51 50 46 42 39 38 36 33 33 38 33 25 25 26 25 24 23 23 22 22 24 24 22 21 23 24 27 24
48 47 49 48 48 46 45 48 49 52 53 51 51 52 51 51 51 50 46 42 43 38 34 33 33 25 24 25 26 26 23 21 24 24 22 23 25 24 25 24 26 23 20
46 47 46 47 48 48 48 46 48 50 53 55 54 54 54 53 50 47 42 44 45 40 34 29 22 24 23 26 27 24 21 20 21 22 22 22 23 25 19 24 20 18 19
47 46 47 48 49 49 47 45 46 47 50 52 55 56 55 52 50 44 40 43 43 38 31 30 25 15 22 22 22 19 19 19 20 19 16 13 13 15 17 17 15 17 17
45 45 44 45 46 46 46 44 43 44 46 49 52 54 56 52 49 43 41 41 39 32 33 27 24 19 21 20 18 18 16 17 18 19 15 13 12 12 12 13 12 10 9
39 39 36 36 37 41 42 41 39 38 43 46 49 49 51 46 38 38 36 33 32 31 19 16 19 16 18 18 20 17 16 18 16 14 14 12 9 8 9 9 8 8 9
30 32 31 33 36 37 37 37 39 37 36 37 39 43 46 46 39 36 40 39 32 24 14 16 24 21 18 19 17 15 16 15 15 14 12 10 9 8 11 11 10 10 11
20 21 24 29 29 29 29 30 30 30 29 29 33 37 40 38 40 40 43 35 34 28 28 25 25 19 16 15 17 17 18 17 14 13 13 12 10 11 13 13 12 13 13
14 14 14 17 22 24 25 27 23 24 27 29 33 29 27 30 32 29 36 42 29 25 24 19 27 21 19 18 18 19 19 17 16 15 15 13 13 13 12 12 13 13 15
3 4 5 10 14 16 19 17 15 16 22 30 25 16 13 11 20 26 12 4 24 23 27 24 24 22 22 20 20 21 17 15 14 16 16 14 14 13 13 13 13 13 12
2 3 3 4 8 15 20 20 25 30 22 20 7 12 11 32 16 11 10 22 29 27 30 28 25 24 23 22 21 18 15 13 14 15 16 16 15 15 14 12 13 12 8
4 5 5 6 8 15 23 24 23 22 21 15 22 17 20 12 17 19 16 35 36 32 26 25 23 24 22 20 19 16 14 15 14 15 16 14 13 14 12 12 10 7 9
1 3 9 13 12 13 16 17 17 18 26 20 13 14 15 19 24 22 30 33 28 24 23 21 20 19 18 17 15 15 15 13 14 15 16 14 14 12 11 8 7 7 8
5 4 3 6 13 14 10 11 13 10 15 11 11 19 19 23 32 31 26 21 19 19 19 18 18 16 15 14 15 15 15 15 16 15 15 14 13 10 9 7 5 5 5
18 16 13 13 11 10 10 10 9 12 9 12 16 18 27 30 27 25 23 21 20 20 19 17 16 14 13 13 14 14 15 15 15 14 14 14 13 11 9 5 3 3 6
10 9 7 10 12 13 12 12 9 8 10 14 19 24 24 22 22 21 20 20 19 16 14 15 13 11 9 8 11 13 15 14 13 13 13 14 13 12 8 4 3 3 4
6 8 11 14 15 16 16 17 14 12 17 21 24 25 25 22 21 21 21 20 20 19 18 14 11 11 7 6 9 11 13 12 11 12 14 15 14 11 6 4 3 3 3
2 4 8 14 15 12 11 15 17 18 21 23 24 24 24 24 22 21 21 21 21 19 17 16 13 9 6 7 7 9 10 10 13 14 14 14 12 7 5 5 4 3 3
3 2 6 10 13 13 10 9 11 14 17 19 20 20 20 23 23 22 21 21 20 20 18 17 15 10 10 8 7 6 4 8 10 13 13 12 10 7 6 6 4 3 2
4 6 8 7 7 12 3 1 5 6 10 16 18 19 20 22 23 24 24 23 21 19 17 16 17 16 15 10 6 3 4 3 6 9 9 8 8 7 7 7 6 4 3

GFSGL_850_spd_045.txt.gz
Wind_Speed
47 46 44 45 46 46 44 39 35 31 32 33 34 34 31 29 27 27 26 25 25 23 21 19 16 13 12 13 13 14 13 13 10 9 9 8 8 8 8 8 9 10 11
50 47 46 44 43 45 46 43 39 36 34 34 35 37 36 34 30 30 29 29 29 27 24 23 20 18 16 16 14 15 15 13 12 12 11 10 10 10 12 11 10 10 12
52 52 50 49 48 47 47 45 44 41 38 37 37 38 40 40 37 33 32 32 31 29 27 24 23 22 21 20 18 17 17 15 15 14 11 14 14 13 12 13 13 16 19
46 47 51 51 50 47 46 46 46 44 42 41 40 39 39 41 41 38 36 34 33 32 30 27 26 25 23 24 23 20 19 19 19 18 16 15 16 17 16 16 14 15 19
45 45 45 44 46 47 48 46 45 48 46 43 42 41 40 42 45 44 42 40 38 35 34 31 31 28 26 25 26 23 22 21 21 19 18 14 16 18 18 14 20 19 23
45 44 43 43 43 44 46 46 45 47 49 48 47 45 44 45 47 47 44 43 42 38 38 34 34 32 32 30 27 26 27 27 26 21 18 18 19 18 19 18 19 20 20
46 43 45 45 45 45 44 45 46 48 49 52 51 50 49 47 46 47 46 46 46 44 41 38 38 36 33 35 31 31 31 29 29 27 24 22 21 19 20 22 23 20 19
43 43 44 45 45 46 44 44 44 47 49 52 54 53 52 49 47 47 47 47 49 48 44 42 41 37 35 34 31 37 33 30 29 28 25 23 21 20 21 24 21 22 21
40 41 42 43 44 45 45 44 45 47 47 51 54 55 55 52 49 48 48 48 51 52 48 45 40 37 33 33 28 30 29 30 28 24 23 21 20 21 21 22 19 18 17
37 36 39 40 43 44 44 45 45 47 46 46 51 54 56 56 54 52 51 51 51 52 52 48 43 38 34 30 25 28 28 29 25 24 21 19 18 17 14 14 11 10 12
34 34 35 36 38 40 41 42 41 40 32 41 44 47 49 51 55 57 55 55 54 51 49 47 43 40 38 28 24 22 24 25 22 20 19 18 17 13 12 11 11 10 9
34 35 36 33 33 32 34 36 36 31 28 20 38 42 44 41 47 51 52 48 45 52 53 52 47 41 31 24 21 13 18 22 22 21 19 16 14 13 12 10 10 8 8
27 25 25 25 23 26 29 28 27 26 34 39 39 40 41 33 36 37 31 32 34 47 53 53 45 35 29 23 14 17 22 24 23 21 16 15 14 14 12 10 9 9 10
14 9 11 16 20 21 22 21 21 24 29 35 29 33 33 32 33 34 26 26 30 42 21 8 22 22 14 14 16 21 24 23 23 18 17 16 17 15 11 9 8 9 10
14 14 14 16 18 20 21 21 22 23 23 24 27 33 33 34 36 35 32 28 26 24 7 18 14 15 17 18 25 28 24 25 24 21 20 19 18 15 10 10 10 10 9
10 10 10 12 14 16 17 19 18 17 16 20 24 28 31 31 31 27 19 20 30 28 18 9 18 24 26 29 27 25 25 25 24 23 21 21 18 12 9 11 10 10 9
7 8 10 12 13 13 15 14 11 10 12 18 20 15 15 9 6 1 9 20 28 31 19 36 22 31 32 27 25 23 24 23 24 22 22 20 16 12 11 10 10 9 9
11 9 8 9 10 12 10 11 12 12 16 20 18 11 10 12 11 20 21 19 20 25 34 35 32 34 28 26 24 23 23 24 23 22 21 18 14 11 12 9 8 8 8
11 11 11 12 12 10 12 15 16 15 17 16 16 16 9 7 14 17 21 24 29 27 25 24 19 27 26 23 23 23 23 23 22 21 18 16 13 11 10 8 8 9 10
14 11 10 11 14 17 18 18 20 18 16 16 14 11 9 17 20 23 28 26 24 22 23 21 22 23 23 23 24 24 23 22 21 19 18 15 13 11 8 9 8 8 8
16 11 9 12 14 13 11 12 10 8 10 7 3 7 12 16 19 16 13 11 14 17 21 20 21 22 22 22 23 22 22 22 19 17 15 13 14 10 10 9 7 8 9
13 13 12 10 11 8 8 6 4 6 7 7 10 14 14 16 19 16 17 17 18 19 20 20 20 20 19 20 21 21 20 19 17 16 15 15 14 12 12 9 7 8 9
13 8 7 8 9 7 6 7 6 5 4 6 7 16 18 16 17 18 19 20 21 21 21 20 20 19 17 16 16 17 17 17 16 15 15 15 15 14 11 8 8 9 10
12 7 5 8 11 10 6 2 4 6 7 11 17 19 19 18 17 17 18 20 20 21 21 20 18 15 10 9 12 14 16 16 15 15 16 16 16 15 10 9 10 11 12
8 5 6 7 5 3 3 2 1 4 9 16 17 16 16 17 16 18 19 21 22 23 21 18 14 10 8 8 8 9 11 12 14 16 18 18 15 13 11 10 10 11 12
8 6 9 10 9 7 5 5 3 0 2 8 11 11 11 12 16 21 23 25 25 23 19 15 12 9 12 11 11 9 7 7 10 15 17 17 15 13 12 12 12 12 13

GFSGL_850_spd_048.txt.gz
Wind_Speed
46 47 48 47 45 42 44 43 40 37 35 30 30 26 28 28 27 28 26 22 26 26 25 23 20 18 14 13 12 11 11 11 10 9 9 11 12 11 9 10 9 9 8
46 45 45 45 46 44 43 44 42 40 38 35 33 32 32 30 30 32 31 27 30 29 29 28 26 22 20 18 14 15 13 14 11 12 11 11 13 12 12 13 10 8 10
41 43 46 46 46 49 46 43 43 42 41 38 37 37 35 36 37 37 37 34 32 31 30 31 29 27 25 19 19 16 15 16 14 12 12 12 13 12 13 13 13 12 14
38 39 46 49 49 48 49 46 45 43 43 42 42 40 39 38 40 41 37 38 36 34 31 32 32 30 27 25 25 22 20 17 16 16 15 14 14 14 13 13 15 14 11
43 44 45 47 50 51 51 51 48 46 44 43 44 45 43 42 41 44 46 45 44 40 36 35 35 33 30 28 27 27 24 24 18 16 17 16 15 15 15 14 16 16 16
44 47 45 45 46 50 52 53 50 49 47 45 46 48 49 48 48 46 46 49 50 44 42 41 36 35 34 33 30 29 25 26 25 20 19 19 17 16 17 16 17 17 19
46 47 45 46 45 45 45 47 49 50 48 48 48 49 52 52 51 50 48 47 48 52 49 46 42 35 36 36 33 32 32 32 30 29 28 23 16 17 17 17 19 21 20
39 42 45 46 45 42 41 43 44 46 48 48 49 50 52 55 54 52 50 47 49 49 49 49 47 42 41 39 38 37 35 36 35 33 30 25 23 22 21 19 21 19 18
38 38 41 42 41 41 41 42 41 38 38 36 34 38 46 47 52 53 52 52 51 51 45 50 49 49 48 45 43 40 36 38 36 30 31 27 24 23 21 17 19 12 14
35 36 36 37 39 39 38 37 35 34 32 28 29 31 33 32 32 39 44 45 41 35 42 50 54 55 54 50 48 43 38 37 29 28 31 29 24 24 23 23 17 12 10
30 31 33 34 35 34 33 32 30 30 27 30 30 32 31 28 26 23 37 43 45 50 56 49 50 52 51 52 48 46 43 34 29 30 25 27 24 22 22 21 16 12 12
27 28 30 32 31 27 32 29 28 28 29 35 34 31 29 32 42 29 57 38 44 49 59 57 45 51 44 44 35 42 43 31 29 31 24 25 21 18 13 14 14 10 10
24 28 29 27 25 25 26 24 24 26 26 28 30 33 35 35 36 45 46 34 32 45 44 46 49 52 35 24 30 40 50 28 32 28 26 20 17 13 16 19 12 11 12
23 23 22 22 22 21 21 20 22 23 25 25 27 31 28 29 27 34 31 27 29 37 52 43 41 38 22 19 27 25 19 27 32 27 23 18 16 18 18 13 9 8 8
20 20 21 20 21 20 21 21 20 20 20 20 23 25 26 28 31 34 28 29 32 36 43 36 31 33 31 29 31 35 39 40 31 26 21 21 19 17 17 13 10 11 11
20 19 18 18 19 21 25 25 25 23 24 26 26 21 24 25 25 27 31 27 30 40 38 35 29 22 29 37 39 34 32 30 35 27 23 20 18 18 15 12 12 12 12
19 21 19 17 18 18 17 15 22 22 21 20 20 23 30 26 12 5 4 6 16 22 34 24 21 25 26 36 36 35 30 31 29 21 20 19 19 17 15 13 13 12 12
17 16 15 15 13 10 10 10 11 11 13 13 14 14 12 7 1 6 3 8 23 27 13 14 16 22 28 29 26 31 28 29 22 22 19 19 18 16 15 15 14 13 11
14 14 14 14 15 14 13 13 12 13 11 14 12 9 7 7 6 7 12 18 24 24 18 19 22 19 17 17 19 21 20 23 22 21 19 18 17 16 16 15 15 14 13
14 13 13 12 13 13 11 11 11 9 6 8 9 11 12 11 13 18 14 17 17 18 14 17 17 12 13 17 17 17 18 20 20 20 18 17 17 17 16 17 14 11 12
15 14 14 13 12 10 9 6 4 4 6 7 8 11 10 11 14 17 16 15 15 14 15 13 10 14 19 18 18 20 19 19 19 18 18 18 18 18 17 15 13 14 11
15 15 13 10 9 9 9 6 4 4 3 5 5 9 13 12 13 15 17 17 17 17 14 12 14 16 17 17 17 17 17 17 17 18 18 17 18 17 16 15 15 13 11
13 15 11 9 9 10 8 6 3 3 5 5 6 9 9 10 12 10 10 11 14 15 14 14 15 15 14 14 14 16 16 17 17 18 18 18 17 17 17 16 14 12 11
15 13 11 10 11 11 8 7 6 3 2 3 12 13 8 9 11 12 14 15 18 16 15 14 14 15 15 13 13 13 15 16 17 18 18 18 17 19 16 15 13 12 11
12 11 10 11 10 9 8 7 6 6 7 11 8 7 9 9 10 11 12 14 15 16 16 14 12 12 11 12 12 13 19 22 16 18 17 17 18 18 16 14 13 12 12
13 13 11 11 11 11 10 8 7 8 7 11 8 8 8 10 9 10 11 12 14 15 15 13 12 10 11 11 12 14 14 16 18 18 16 17 17 16 15 13 13 13 12

GFSGL_850_spd_051.txt.gz
Wind_Speed
48 49 48 48 47 44 43 41 37 34 30 29 25 26 25 25 27 27 25 21 23 22 22 22 22 18 14 13 12 11 11 11 9 7 7 10 16 14 11 13 10 10 12
47 47 51 51 49 48 45 45 43 40 39 37 33 33 31 27 30 30 29 25 27 26 26 26 27 23 23 20 16 16 14 14 12 14 10 11 14 14 13 14 10 10 11
43 44 47 49 50 51 49 46 44 43 41 40 38 37 37 33 32 35 35 34 30 31 29 27 28 27 27 25 24 18 20 21 17 19 14 14 15 15 15 14 13 11 17
41 42 45 49 51 48 46 46 45 44 42 42 40 40 39 37 36 37 38 36 34 30 30 30 29 31 31 30 30 27 24 21 20 19 18 19 18 17 16 15 15 13 12
44 46 48 48 47 48 47 44 44 45 46 45 43 43 43 43 39 40 40 39 37 37 36 34 32 34 34 35 32 33 30 31 25 26 24 21 20 19 18 16 15 13 14
41 46 44 44 47 48 48 48 45 45 48 48 47 46 46 45 42 40 39 41 38 38 39 40 40 37 36 36 36 33 33 33 32 32 27 25 22 20 19 16 15 16 14
44 39 43 42 45 46 47 49 51 52 51 52 51 48 48 48 46 45 41 41 40 38 40 38 38 37 40 40 39 39 39 39 36 32 31 26 21 24 22 20 22 21 17
38 44 41 44 45 45 45 48 50 50 52 52 52 51 48 47 47 46 47 47 46 46 42 43 41 41 43 46 44 44 46 47 44 40 34 29 29 26 25 26 24 25 19
41 44 47 43 46 45 48 47 44 44 45 47 46 43 47 47 43 42 43 46 49 49 48 46 46 48 52 52 50 51 50 50 47 44 36 31 28 27 32 24 23 19 15
31 40 42 42 44 46 46 44 41 40 41 35 37 42 42 44 43 40 39 38 41 47 53 56 56 56 51 47 51 51 50 50 45 43 34 29 30 29 35 30 23 22 15
27 29 37 40 43 41 40 39 38 37 32 36 36 37 38 40 43 36 35 42 47 43 53 55 58 55 50 50 47 49 49 40 34 38 32 28 39 32 37 32 29 22 15
28 29 31 34 34 31 38 35 35 34 33 36 34 35 34 38 40 43 44 43 36 43 41 43 44 39 39 38 40 49 51 45 31 32 32 41 29 30 33 32 27 23 15
28 30 30 32 31 31 31 34 30 31 28 27 27 28 28 28 30 35 42 41 42 49 34 35 39 41 47 49 47 42 47 40 38 38 40 48 33 31 28 25 18 21 23
29 28 30 31 32 29 26 25 25 25 25 25 24 24 22 24 25 24 33 35 29 29 33 37 40 43 39 38 39 39 39 43 40 30 34 30 26 26 27 26 22 20 17
24 23 26 25 27 25 24 26 23 21 24 21 20 19 18 20 20 25 29 23 24 24 32 35 38 41 42 42 36 35 34 33 27 40 28 29 28 29 29 25 16 15 13
21 21 20 21 21 23 25 28 28 27 26 24 22 19 19 21 21 18 19 22 20 23 26 32 35 38 34 33 33 28 32 36 33 33 29 30 33 31 26 22 20 16 14
16 17 18 20 19 20 21 20 24 28 23 27 29 27 23 23 22 24 23 16 13 18 22 24 26 27 27 26 24 27 31 35 34 33 29 31 28 24 26 23 18 16 13
17 20 18 16 16 16 15 15 16 15 14 22 22 22 22 20 18 12 9 8 11 10 11 14 15 14 13 18 20 26 25 27 29 32 25 27 28 27 25 20 17 14 13
15 16 14 15 15 16 14 12 11 11 10 9 11 11 9 8 7 8 10 6 7 17 9 9 10 14 17 22 22 24 26 28 30 30 25 25 23 22 21 18 15 15 14
16 17 20 19 19 14 13 12 12 11 9 9 8 6 8 9 9 8 10 11 14 19 11 12 13 9 11 12 14 15 15 25 27 25 24 22 21 19 16 15 14 13 15
15 16 15 14 13 13 12 10 9 8 7 5 5 12 12 8 9 12 14 9 10 12 11 10 9 11 11 11 13 21 22 24 23 21 22 21 19 17 16 14 14 14 12
14 14 14 12 13 12 11 9 7 5 5 4 3 5 11 9 5 9 12 12 10 10 9 11 8 7 14 19 16 17 18 19 20 21 20 18 18 17 15 15 14 14 15
14 14 13 13 12 13 10 9 8 7 5 6 7 8 10 10 8 8 10 9 10 12 10 9 11 13 12 14 16 18 18 19 20 20 19 19 18 17 17 16 16 16 16
17 16 16 14 16 12 10 10 9 7 5 6 8 7 6 7 9 10 9 9 9 11 12 11 14 14 16 16 14 16 16 18 19 19 19 18 18 18 17 17 17 17 17
16 15 15 13 15 15 14 13 10 8 9 10 9 3 3 7 7 8 8 9 10 10 11 11 10 12 13 14 14 15 19 21 18 18 18 17 18 18 18 17 18 17 17
17 15 13 14 14 14 11 11 14 12 11 12 12 10 6 9 8 8 9 8 9 10 10 10 10 11 12 11 13 17 20 22 25 20 16 17 18 18 18 18 18 17 17

GFSGL_850_spd_054.txt.gz
Wind_Speed
46 44 44 46 45 42 42 40 36 36 34 28 18 24 26 22 20 27 28 24 24 24 23 20 19 17 17 17 18 17 16 14 15 12 10 13 14 14 16 17 18 19 17
49 46 45 45 45 45 43 42 40 36 33 31 33 24 28 26 21 27 30 29 25 26 26 26 27 24 23 21 21 19 18 17 16 15 12 15 18 17 16 21 22 14 16
45 47 45 45 48 48 46 43 43 40 39 38 36 35 35 33 29 26 29 31 30 31 32 31 29 31 28 27 28 25 22 22 24 25 23 24 22 20 18 17 17 18 19
45 44 46 47 47 46 47 45 44 44 43 41 41 40 39 39 36 33 31 31 33 33 35 36 35 33 32 31 30 32 31 29 28 31 29 27 21 22 21 20 18 17 16
45 46 47 45 45 44 44 44 44 43 44 44 43 43 41 40 40 38 35 34 34 36 36 39 41 40 37 34 32 32 33 35 33 31 29 27 24 21 23 22 21 19 20
44 47 46 45 44 44 45 46 45 44 42 42 44 45 44 44 43 41 39 38 39 39 39 39 41 42 41 38 37 35 35 36 39 39 34 33 29 23 20 20 22 19 17
42 44 47 46 47 46 45 45 45 46 45 43 43 44 46 48 46 43 41 41 40 41 42 42 41 43 45 46 44 41 41 40 38 37 37 37 29 20 17 18 19 22 24
43 41 42 46 47 46 46 46 45 45 47 48 46 46 47 50 49 47 44 43 44 45 47 47 46 46 46 45 44 44 43 44 43 41 39 32 26 24 24 24 28 32 34
37 44 43 43 45 47 48 47 45 44 46 49 50 50 51 52 52 51 46 44 46 49 54 54 55 53 52 48 45 46 46 46 44 46 41 35 31 29 36 33 37 33 31
27 32 42 44 44 49 49 48 46 46 46 45 48 50 51 53 52 50 47 45 49 57 55 58 58 59 56 53 50 49 49 52 46 46 45 45 45 38 43 41 37 33 28
25 27 29 41 46 43 44 44 44 44 44 45 45 44 44 45 45 46 46 46 50 48 48 46 46 50 50 50 49 50 54 49 50 51 48 40 42 41 38 41 36 26 30
29 28 27 31 37 41 41 43 42 41 41 41 40 40 41 42 41 41 40 42 45 49 42 32 31 35 37 39 46 52 51 51 55 54 50 41 42 39 37 35 28 26 26
23 29 30 28 31 34 35 41 38 38 38 37 38 35 36 35 32 34 35 36 39 41 47 43 37 28 30 35 38 38 39 52 57 48 43 39 38 30 29 30 27 25 21
27 28 29 31 31 30 33 33 34 34 36 35 30 31 30 28 27 31 33 30 32 34 38 37 38 44 41 42 43 39 38 43 52 51 47 40 29 25 26 26 25 24 28
22 27 28 29 28 29 30 28 30 31 31 30 28 23 23 26 26 25 29 28 23 24 22 26 31 33 37 39 40 41 40 37 45 43 37 31 23 23 28 22 24 28 26
25 24 24 25 25 27 31 34 32 30 31 27 25 25 26 25 26 23 28 27 21 20 23 26 27 30 31 36 37 39 31 35 37 33 20 12 19 22 23 24 30 24 19
21 19 22 23 24 27 28 30 34 29 26 27 24 22 25 19 17 16 16 18 21 22 23 26 28 29 28 27 24 25 26 25 14 10 15 14 23 23 23 28 26 20 18
18 21 20 21 21 22 25 22 15 25 23 23 24 22 22 24 25 25 24 23 18 18 18 17 13 11 10 9 9 8 11 14 9 15 17 15 17 15 25 29 28 26 22
18 11 18 20 20 19 19 18 15 15 18 16 17 20 21 19 17 16 17 17 16 15 13 8 5 5 7 7 10 13 11 10 12 13 18 19 18 25 28 28 23 23 21
22 22 21 17 18 19 18 16 16 14 8 8 8 10 12 11 12 12 12 13 12 10 7 6 8 9 12 12 11 11 9 11 16 16 11 20 26 29 30 24 23 23 23
22 21 21 20 17 17 16 14 12 11 10 8 10 10 10 8 11 11 10 6 6 8 7 10 9 4 5 5 5 8 10 13 19 17 22 29 25 27 25 22 23 23 24
16 18 15 15 16 16 15 13 11 9 9 8 11 11 11 11 8 10 11 8 8 10 11 9 8 6 8 10 9 8 10 11 16 23 22 25 26 26 24 24 24 20 19
19 23 23 21 18 20 16 14 11 12 10 8 4 9 11 8 7 4 7 10 8 7 7 6 8 4 6 9 10 9 12 15 16 20 21 21 21 24 22 22 22 23 19
26 24 22 21 20 20 14 14 12 11 8 10 9 7 7 6 4 5 4 4 5 7 9 9 8 8 8 9 9 12 13 11 11 20 20 19 21 21 22 21 21 20 20
28 29 29 29 26 21 20 17 12 13 12 11 10 7 9 7 6 6 6 5 7 6 7 7 8 6 7 10 10 14 15 15 17 19 21 20 21 20 22 20 21 21 20
27 25 21 18 15 14 15 14 12 10 12 13 14 16 14 10 8 6 7 6 6 6 6 7 9 11 11 11 11 15 15 16 18 20 20 22 20 19 20 21 19 20 21

GFSGL_850_spd_057.txt.gz
Wind_Speed
44 41 41 42 41 42 43 38 35 34 29 27 27 21 23 25 22 18 22 26 27 23 21 20 17 18 21 21 19 19 18 20 23 21 15 16 20 21 18 16 16 17 15
44 43 42 41 42 42 43 41 38 35 37 32 30 30 24 25 24 20 19 27 27 28 26 25 24 22 24 24 25 23 23 23 23 21 21 19 24 22 19 16 16 19 21
48 45 43 41 42 42 41 40 40 38 37 38 38 35 33 29 26 25 22 21 27 30 29 29 28 27 28 29 30 30 28 26 26 27 24 24 23 21 21 20 19 17 16
48 48 46 44 43 41 40 39 39 40 39 38 38 39 40 39 37 32 29 27 26 28 33 35 35 34 33 32 31 34 35 34 32 32 31 30 29 25 25 25 24 21 15
46 45 45 43 42 41 40 41 41 40 41 41 41 41 41 41 41 41 37 35 33 32 32 36 39 39 39 38 36 35 36 39 40 38 37 36 34 35 34 29 26 23 20
47 46 41 40 40 41 40 40 40 39 39 42 44 44 44 44 43 42 40 38 38 38 38 36 38 39 40 40 40 38 37 38 42 45 44 42 39 38 33 30 27 27 27
48 47 46 44 41 38 37 38 39 40 39 40 40 40 43 44 44 44 42 41 42 42 42 42 43 43 43 42 42 41 41 41 40 40 43 46 46 41 35 30 28 27 31
46 48 47 47 45 42 41 41 38 39 41 41 42 42 42 42 40 42 42 42 44 45 45 46 47 47 46 45 44 44 45 44 43 43 43 44 45 43 37 30 26 25 30
46 45 47 48 47 47 46 46 42 41 41 43 44 44 45 46 44 42 41 44 47 50 49 48 50 52 51 48 47 47 47 48 46 46 46 47 45 42 40 34 36 33 38
43 44 43 41 41 45 46 46 45 43 42 41 43 44 45 46 47 46 44 44 48 51 50 52 54 54 52 50 49 48 52 54 50 51 51 50 52 46 48 49 43 42 35
32 27 29 36 43 42 42 44 45 45 43 43 42 43 44 45 45 44 44 45 50 49 50 50 51 49 44 44 46 48 51 49 52 53 55 53 53 59 59 56 46 41 41
25 30 31 30 31 38 41 42 42 43 43 43 42 42 43 44 44 43 42 42 41 43 47 46 44 36 30 31 32 33 34 36 49 54 57 57 55 56 63 55 45 39 33
18 24 24 32 29 28 34 41 40 40 42 43 43 43 43 42 42 41 40 37 34 37 38 39 40 40 38 36 36 32 30 35 43 48 52 54 56 57 55 56 45 21 28
17 22 22 27 28 27 27 33 36 40 43 43 43 42 40 37 36 34 32 31 28 28 28 30 34 38 39 41 43 44 44 39 37 42 49 52 52 53 48 30 17 22 25
23 23 25 28 29 29 28 30 35 36 39 39 40 37 34 33 31 29 25 23 21 20 20 23 28 31 33 33 33 32 31 34 39 43 40 42 42 39 17 6 26 23 26
22 22 24 28 30 30 30 30 33 32 34 33 30 26 25 29 26 23 21 27 23 21 23 25 26 27 27 29 31 32 32 28 25 22 26 14 5 10 7 21 21 23 24
23 22 24 27 28 30 32 32 29 33 33 27 27 27 26 27 26 23 20 22 22 21 20 19 21 24 27 28 27 23 18 15 10 6 10 4 6 14 18 19 21 21 19
24 24 24 26 28 31 31 30 29 28 30 27 27 26 25 22 21 17 15 15 16 17 21 21 21 20 18 13 6 3 3 5 8 7 7 9 8 16 18 23 18 20 21
22 23 23 24 25 31 31 30 27 28 25 27 29 27 25 24 23 22 19 19 20 19 17 15 13 9 5 3 3 6 8 11 9 8 10 12 13 18 24 17 22 24 22
18 20 20 25 28 32 33 31 28 25 21 19 22 20 21 21 18 18 16 14 13 11 9 7 5 5 6 9 11 9 7 5 8 9 8 11 12 14 17 22 23 22 22
15 20 18 23 24 28 32 29 26 20 14 15 15 12 13 14 12 11 10 9 7 8 7 6 5 8 6 5 5 7 7 6 12 9 12 8 14 19 19 20 20 20 22
20 18 22 23 27 27 26 23 17 17 15 12 10 10 10 11 11 10 9 8 6 8 7 7 7 6 2 5 6 7 9 7 11 17 14 16 23 19 15 18 19 18 20
17 16 17 20 22 23 21 20 17 15 11 8 8 10 10 6 3 5 7 9 8 7 7 7 7 7 5 3 5 5 6 5 7 14 17 21 21 21 21 21 22 22 22
22 28 27 27 26 25 25 26 23 20 16 13 14 13 12 9 6 5 7 6 5 4 6 6 3 5 6 5 5 7 7 6 7 11 12 15 19 19 22 18 18 22 21
33 30 31 27 24 22 21 19 21 21 18 16 16 16 13 14 11 8 6 4 6 6 4 6 4 6 5 5 5 4 8 7 7 8 16 17 16 18 21 21 20 20 22
34 34 32 31 27 22 19 19 19 16 15 14 16 15 14 13 12 11 14 14 12 9 8 10 7 9 8 8 6 7 9 11 11 12 14 16 16 18 20 21 21 20 21

GFSGL_850_spd_060.txt.gz
Wind_Speed
51 48 46 43 41 42 41 38 34 31 32 30 29 27 23 22 27 25 23 20 24 25 23 22 22 20 23 25 24 23 24 23 28 27 25 19 20 21 21 21 19 18 18
47 47 47 43 42 43 43 42 38 35 34 34 31 32 31 27 24 27 25 22 24 28 30 28 27 24 25 26 28 27 28 26 26 27 24 26 26 24 23 24 23 21 20
48 46 44 44 43 42 42 42 41 39 37 36 36 34 31 30 25 25 25 24 22 25 30 33 32 30 30 29 30 32 32 31 30 30 30 27 27 28 29 30 29 27 23
48 45 42 41 41 40 38 38 39 39 39 38 37 41 37 34 33 32 29 27 27 26 26 30 33 35 34 32 32 32 33 35 36 36 35 33 34 32 31 32 33 32 29
48 45 41 38 39 38 38 37 36 37 38 38 38 39 41 44 42 39 37 36 34 32 31 31 32 34 35 35 36 36 36 36 38 40 41 40 41 41 40 39 38 34 33
50 46 42 41 39 40 39 39 37 37 36 37 37 39 41 43 44 43 41 40 39 39 38 37 36 36 37 36 37 38 39 39 40 41 43 47 48 47 47 45 42 39 40
47 44 44 43 43 41 39 39 39 37 36 37 37 39 41 42 43 42 42 42 43 43 43 41 41 41 40 41 40 41 41 41 40 40 43 47 47 48 47 49 50 48 44
47 44 41 41 40 38 37 36 34 35 36 36 35 36 37 38 38 39 39 41 43 44 44 44 45 45 44 44 44 45 44 44 44 43 44 46 46 44 47 47 43 43 45
45 45 42 41 40 39 39 37 34 34 34 33 34 35 37 37 35 35 35 38 41 44 44 45 47 48 47 45 45 47 48 50 45 45 45 46 47 48 49 48 47 43 48
43 44 43 42 42 42 39 39 36 37 37 36 36 36 35 36 35 35 34 36 41 43 44 46 47 48 48 47 46 46 50 49 47 46 46 47 47 48 55 55 53 48 50
42 44 45 44 41 38 40 41 42 42 41 41 39 38 38 37 35 35 34 36 39 40 44 45 45 45 44 43 41 40 42 38 38 42 47 49 48 47 47 49 55 54 47
13 36 40 41 39 37 37 38 39 40 41 42 41 41 40 38 37 36 35 35 33 36 39 39 38 38 36 35 34 33 31 30 34 40 46 48 50 50 52 50 48 52 53
5 8 18 22 27 31 32 32 34 36 39 41 42 42 41 39 38 37 34 32 31 33 34 33 32 32 32 34 33 33 31 31 35 36 38 41 44 45 45 46 43 45 45
7 11 13 17 22 25 29 32 32 34 36 39 41 42 40 38 38 35 31 29 28 28 27 27 28 27 30 32 33 33 35 36 37 37 36 35 36 32 37 32 25 14 25
9 12 14 18 20 23 28 31 33 32 35 36 37 38 38 37 36 31 27 25 23 20 19 23 26 27 29 28 29 29 31 32 33 31 28 29 23 23 20 11 13 18 19
12 15 18 20 23 26 27 33 34 34 35 35 33 32 31 28 22 20 20 18 14 15 21 21 21 21 23 25 27 28 28 31 29 26 22 18 12 2 14 10 12 16 20
18 22 23 22 22 25 26 32 35 34 35 34 29 27 31 24 23 20 18 19 20 21 25 25 25 25 24 22 21 25 27 21 11 5 2 4 6 9 11 9 12 17 20
22 21 24 24 21 23 27 30 31 31 30 29 30 27 26 24 25 24 21 19 18 18 18 19 20 20 21 20 19 16 10 6 5 6 5 5 7 9 9 10 14 17 20
20 23 21 24 24 26 29 32 31 28 28 28 26 26 25 26 23 22 19 17 15 16 18 19 18 15 14 13 10 9 8 10 11 10 8 8 11 9 11 14 17 19 17
20 21 24 21 23 26 30 33 31 31 30 27 24 22 24 24 25 24 23 20 18 18 17 14 12 11 10 9 9 11 12 11 8 8 10 10 11 12 14 18 14 16 22
20 20 25 25 22 25 33 33 32 32 31 26 21 19 19 19 19 18 16 14 13 12 12 11 9 8 7 7 6 7 6 4 5 8 11 14 12 12 15 17 15 20 20
17 17 22 23 21 23 27 32 34 30 28 24 20 18 16 13 11 11 11 11 11 11 9 8 6 5 5 4 6 7 8 6 8 11 10 9 9 11 12 16 21 23 22
20 20 22 21 20 22 24 26 26 23 21 17 13 13 12 10 8 9 10 10 10 10 9 8 7 8 5 5 6 8 8 7 7 13 16 13 15 17 15 17 18 19 21
24 25 26 27 30 33 33 27 25 24 19 16 15 13 12 11 9 9 12 11 9 8 7 6 4 5 5 5 5 7 8 7 5 7 12 12 20 19 17 15 16 18 19
28 34 31 33 27 32 34 33 27 23 21 20 20 18 16 13 12 13 14 13 12 11 8 9 9 8 8 8 8 8 8 7 6 8 9 12 15 15 17 17 18 18 21
37 37 36 34 34 29 26 25 24 22 19 19 18 16 15 13 11 11 12 12 11 12 12 12 12 12 11 8 7 8 8 8 8 8 7 14 16 16 18 20 20 20 20

GFSGL_850_spd_063.txt.gz
Wind_Speed
53 52 52 46 41 37 36 35 33 31 30 29 27 25 23 21 21 24 24 23 22 21 23 24 24 22 24 26 26 27 27 26 28 26 25 24 27 26 23 22 23 23 22
54 52 51 47 44 41 39 37 35 35 33 31 31 28 27 25 23 22 24 28 27 25 23 27 28 26 25 24 25 28 30 29 30 32 29 27 27 27 28 29 27 26 27
55 54 53 50 48 45 41 39 38 36 36 34 33 33 32 30 30 29 27 28 29 27 23 24 28 30 30 28 28 29 31 32 34 36 37 35 32 31 32 32 33 33 32
53 54 52 51 49 45 41 40 39 38 37 38 36 36 36 34 32 30 30 28 27 26 25 25 23 26 30 32 33 33 34 34 35 38 41 42 41 38 38 39 39 37 37
50 52 50 46 44 42 39 39 38 38 37 37 37 39 39 39 39 36 34 34 33 31 30 29 28 28 27 27 30 32 35 36 38 40 42 44 44 44 45 45 45 43 42
48 47 44 46 45 42 39 38 37 37 36 36 37 38 40 41 40 40 40 39 37 36 36 35 35 35 34 33 33 34 36 38 39 42 44 45 46 46 44 44 45 47 49
48 47 45 45 44 41 39 39 39 38 36 36 36 36 38 40 41 41 41 42 44 44 42 41 41 40 38 38 38 39 41 42 43 43 48 50 49 48 47 47 47 47 49
49 47 45 44 43 41 41 40 38 37 37 36 36 37 37 37 37 38 39 41 43 44 43 42 42 42 41 40 40 41 42 41 39 38 41 45 44 43 45 47 50 50 48
45 44 42 41 39 40 40 39 35 36 36 33 32 34 36 35 32 32 32 35 38 39 39 40 40 40 39 38 39 41 42 43 41 38 36 34 33 33 36 43 52 50 52
41 40 39 39 38 38 35 34 32 33 32 31 31 30 29 28 26 26 28 31 35 37 37 38 39 40 39 38 39 39 41 39 35 35 34 31 29 28 31 33 40 49 51
34 36 35 36 36 37 35 34 33 33 33 34 35 34 34 33 30 28 26 28 32 33 35 36 37 34 31 29 30 31 32 27 26 28 31 34 38 39 36 34 35 36 39
28 33 29 30 32 33 35 35 34 35 35 37 37 37 37 36 34 31 29 29 28 31 33 33 33 30 26 25 24 25 26 25 26 29 31 33 34 36 37 36 34 31 30
14 13 17 21 23 25 28 29 32 31 31 33 34 35 35 35 34 32 29 28 28 30 31 30 28 25 26 25 24 24 24 29 27 31 29 32 35 35 35 33 30 28 22
12 11 9 7 10 16 20 24 27 30 30 30 32 32 31 32 32 30 28 26 26 26 27 26 27 26 29 26 26 25 24 28 26 29 31 30 32 33 30 29 23 20 12
10 10 9 9 9 10 14 19 24 26 28 29 30 28 29 30 27 23 22 22 22 22 20 23 25 22 24 24 23 22 23 24 26 26 28 31 28 23 19 11 2 7 15
6 9 11 12 13 14 16 19 23 26 29 29 28 28 27 25 23 19 17 16 15 15 20 25 23 20 19 19 19 20 21 22 22 25 23 16 8 6 1 5 1 6 12
4 7 12 17 19 19 19 21 23 26 28 29 28 28 28 25 20 18 17 16 15 17 22 23 24 22 20 19 20 19 18 21 19 12 8 2 2 3 5 7 7 10 13
10 9 10 11 14 18 21 23 23 23 22 23 27 28 26 26 20 19 21 20 21 20 21 23 24 23 21 19 19 21 19 14 9 8 5 5 5 6 7 3 6 9 14
13 13 13 13 12 13 19 23 24 23 22 23 26 26 23 21 23 23 21 21 19 19 18 17 17 17 18 20 19 15 13 11 11 10 10 11 9 9 7 8 10 13 17
17 16 16 17 15 12 15 22 24 24 24 25 27 24 21 17 20 22 22 21 19 19 18 18 19 18 18 16 13 13 12 12 10 8 9 12 12 11 11 12 14 17 16
20 17 18 19 17 16 15 21 23 24 23 24 25 25 21 19 17 20 20 20 21 19 18 17 16 15 14 12 12 12 12 10 7 7 8 12 12 13 13 15 19 13 16
24 22 21 23 22 17 18 21 23 23 24 23 25 24 22 20 20 18 18 17 16 15 15 14 13 11 10 10 9 8 9 8 5 8 9 12 13 13 13 15 19 14 18
27 25 26 28 25 23 20 21 26 26 27 27 25 24 20 17 14 12 12 13 14 14 13 12 11 10 11 7 8 10 10 9 9 11 12 12 11 11 13 16 20 21 22
28 27 27 26 27 26 26 25 26 25 24 26 25 22 18 15 15 15 16 15 15 15 14 12 10 9 8 6 7 8 8 9 7 7 11 16 14 14 15 15 16 18 18
23 25 25 28 25 27 27 27 29 30 30 29 27 21 17 17 15 17 16 16 16 14 14 12 11 11 11 10 9 8 9 8 7 6 7 10 10 18 19 16 17 17 18
20 24 27 26 29 29 31 36 34 33 28 26 24 22 22 18 17 17 17 16 15 15 14 13 13 13 11 7 7 7 6 7 6 7 9 8 8 14 17 18 19 18 20

GFSGL_850_spd_069.txt.gz
Wind_Speed
44 43 42 41 39 38 36 32 31 29 25 22 21 22 21 21 20 19 17 16 17 16 15 15 14 14 15 16 16 17 18 20 24 23 23 25 23 23 23 25 26 27 29
43 43 43 41 39 38 37 33 30 30 28 25 24 24 25 24 24 24 21 19 18 18 18 18 18 17 17 18 19 21 21 22 24 29 28 30 32 32 32 32 31 33 35
47 46 44 43 42 40 37 35 31 29 29 27 28 28 27 28 28 28 26 24 22 21 19 19 18 20 21 20 20 22 24 26 29 32 35 35 37 38 40 39 38 36 36
51 50 47 46 43 40 37 35 33 30 29 30 30 30 30 29 30 30 30 28 26 24 23 22 21 21 22 20 21 22 23 25 27 30 32 31 31 34 35 36 38 38 37
49 49 48 43 40 40 40 36 32 32 30 30 30 31 32 33 33 32 33 32 31 30 29 27 25 23 21 21 22 23 24 26 28 25 28 29 28 26 27 26 30 37 40
47 45 43 41 40 39 39 38 36 32 32 32 33 33 34 35 36 35 34 34 34 34 32 30 29 28 27 26 26 26 28 31 33 36 36 33 42 33 29 29 31 33 38
45 41 40 38 38 37 37 37 37 36 34 35 35 36 37 37 36 36 36 37 37 37 36 35 34 34 32 31 31 32 33 35 36 38 43 44 44 38 36 35 34 34 36
46 41 38 38 36 35 35 36 36 37 36 36 36 37 37 38 36 35 35 36 38 39 40 38 38 37 37 36 35 37 38 38 38 38 39 41 38 32 25 28 32 34 36
44 43 38 36 35 35 36 35 33 34 34 36 35 35 36 36 34 33 32 34 36 37 36 37 38 38 36 35 36 37 38 38 36 37 35 33 29 20 23 26 30 34 40
40 41 38 37 35 33 30 28 28 29 31 32 33 33 33 32 31 31 31 33 36 36 35 35 35 35 33 32 32 33 37 36 32 31 29 23 19 20 21 24 29 33 32
36 39 38 33 28 27 28 30 31 32 32 33 33 33 32 31 29 28 28 30 33 34 34 34 32 31 28 27 28 30 33 28 26 25 25 24 22 21 23 22 25 27 27
28 30 30 30 30 29 29 29 29 28 29 30 29 30 29 26 25 25 25 27 27 31 31 30 29 27 24 24 25 27 26 23 23 24 25 24 24 25 27 24 25 25 24
26 24 25 25 25 26 26 27 28 28 28 28 29 28 27 25 25 25 26 28 28 31 31 31 30 27 25 26 26 25 21 24 26 26 24 22 23 23 24 27 29 29 20
22 23 25 26 26 26 25 25 25 27 27 28 26 25 23 23 23 20 21 24 26 29 30 31 29 29 28 27 25 24 26 26 27 26 24 24 26 24 26 27 27 20 5
19 19 21 23 21 22 24 24 26 26 25 25 24 23 22 23 21 15 15 18 20 23 22 26 29 29 29 28 29 29 27 29 30 27 26 26 23 25 26 24 17 7 3
15 13 11 10 21 25 25 25 25 26 26 25 24 24 23 24 22 19 19 19 18 20 23 27 29 27 26 26 26 26 26 27 26 25 23 23 24 25 23 16 10 7 8
9 12 10 2 11 17 17 16 18 20 21 23 24 26 27 26 23 20 19 19 20 23 28 27 25 24 23 24 24 24 24 23 22 22 23 23 23 23 18 15 12 9 12
8 11 15 24 15 14 16 17 19 20 20 22 24 24 26 28 26 24 23 23 25 27 28 26 23 22 22 23 23 22 22 22 21 22 22 22 21 19 17 17 14 14 15
4 4 8 11 10 8 5 7 10 12 15 19 23 24 24 26 26 28 28 29 28 28 26 24 22 24 24 24 23 24 23 23 22 21 22 21 20 18 18 16 15 16 19
5 5 7 7 7 6 7 7 7 6 6 9 15 18 22 23 26 26 29 30 31 30 29 27 26 25 25 24 22 20 22 22 22 22 22 21 19 20 20 17 16 18 20
10 10 11 11 10 11 12 13 13 12 11 11 14 17 20 23 25 27 27 27 27 30 30 28 27 27 24 22 20 19 21 22 22 22 21 20 20 21 20 19 17 18 20
16 15 15 15 17 19 20 19 18 19 19 18 20 20 21 24 27 28 27 27 24 24 27 25 23 23 23 22 22 21 21 21 21 22 22 21 20 20 22 22 21 17 21
21 21 21 20 21 23 24 25 23 22 22 22 23 24 22 23 25 27 26 27 27 23 23 21 21 22 23 23 22 22 22 22 22 22 20 20 19 21 23 24 24 24 20
20 21 23 24 24 22 21 20 20 23 23 24 25 25 22 20 25 27 26 27 27 26 24 23 24 24 23 22 22 22 21 19 19 18 18 18 19 20 20 22 24 27 21
14 16 19 22 21 20 21 22 20 20 21 23 23 21 20 21 25 29 29 27 28 26 24 22 21 21 21 21 21 21 21 20 20 19 19 20 17 17 19 17 17 19 24
10 12 15 16 18 23 25 28 26 27 24 21 20 21 22 24 28 29 30 29 25 25 22 22 20 19 19 20 21 19 18 17 17 16 15 16 18 20 20 18 18 19 20

GFSGL_850_spd_072.txt.gz
Wind_Speed
45 46 44 42 40 39 36 34 31 27 25 22 19 16 16 17 17 18 18 14 13 12 12 12 11 10 10 11 11 11 12 13 16 15 14 16 22 25 25 24 26 28 26
42 48 47 46 43 37 38 35 32 30 26 24 23 21 19 18 17 20 20 15 16 15 14 14 14 12 14 13 13 16 15 16 17 23 20 20 21 22 31 34 30 26 23
38 39 43 45 43 42 40 38 35 32 29 26 26 25 23 22 21 21 22 22 20 18 16 16 16 15 16 15 16 15 15 17 18 21 25 22 23 22 24 25 23 24 25
37 38 40 45 46 43 41 39 36 34 31 29 29 28 26 25 24 23 21 24 24 21 19 19 18 18 18 18 17 18 18 19 20 22 24 24 23 22 22 22 24 23 26
41 39 43 46 45 42 41 39 37 35 33 32 31 30 28 28 26 27 26 25 26 27 24 23 22 23 23 22 18 19 19 20 21 23 26 26 26 24 23 27 29 30 29
45 46 44 47 46 44 43 42 40 37 35 35 34 33 32 31 28 29 29 26 28 29 29 28 28 29 28 27 27 27 27 29 31 29 29 30 33 30 27 29 31 32 31
47 48 49 49 48 47 45 42 41 39 36 37 36 35 36 35 33 32 31 31 31 32 33 33 31 26 28 30 31 31 32 32 35 37 42 42 42 34 28 28 27 28 29
45 46 47 47 48 47 45 44 42 40 40 39 38 38 38 38 36 35 33 33 35 36 37 37 37 36 36 36 35 35 35 35 35 36 40 41 37 30 27 28 27 29 30
47 49 47 45 45 44 45 45 42 41 40 41 40 40 40 40 38 36 34 35 37 38 38 38 39 39 37 35 36 38 39 40 36 38 38 36 34 30 24 24 26 25 30
49 48 46 45 43 44 43 43 41 39 40 38 39 39 39 38 37 37 35 35 35 35 37 37 37 38 36 34 35 35 38 37 33 30 28 28 30 25 20 23 25 27 28
33 33 37 40 41 39 39 36 35 36 33 35 34 35 36 38 37 37 35 36 35 30 30 29 29 33 31 31 31 34 35 32 30 30 29 25 19 18 18 20 22 24 23
30 32 34 39 37 32 36 34 33 33 34 34 33 30 28 33 33 33 33 34 34 35 33 26 25 29 31 27 27 30 30 28 31 29 26 29 27 25 22 21 22 21 26
29 31 30 30 32 29 32 33 31 33 28 28 27 26 24 24 27 30 30 31 31 34 33 26 27 29 31 30 31 31 29 30 31 29 29 23 18 18 22 23 22 24 26
26 25 24 25 26 28 25 26 27 27 27 27 25 25 23 22 21 20 27 30 31 33 35 35 35 35 33 32 32 32 32 31 27 26 26 19 22 24 25 24 24 22 19
22 23 23 22 25 24 25 23 24 25 25 25 25 23 23 22 21 21 20 17 22 28 29 31 32 34 36 37 35 33 29 30 30 31 31 30 28 27 27 23 24 18 8
16 17 20 20 18 19 19 20 24 23 26 27 25 23 20 21 23 24 21 21 21 21 22 22 26 30 31 30 30 29 28 29 30 30 31 31 29 26 24 21 19 11 9
18 13 18 18 18 20 16 10 9 13 25 24 28 30 28 21 27 28 23 23 25 26 29 27 27 30 28 25 25 25 26 25 26 27 27 26 25 25 24 16 13 11 12
11 13 11 14 19 24 21 13 1 16 11 17 27 26 28 27 26 24 23 25 28 30 33 33 33 31 29 23 21 23 25 25 25 24 24 25 26 26 23 17 15 14 14
6 4 5 6 6 14 35 30 17 17 27 26 23 20 21 21 20 21 23 28 27 25 25 27 26 24 23 22 21 24 25 26 26 25 25 26 27 21 18 16 17 19 18
2 2 4 5 7 8 9 18 23 23 20 20 17 13 15 16 20 22 24 26 30 27 24 24 24 24 25 27 26 27 28 27 26 25 25 24 21 18 18 16 17 17 20
5 5 4 1 3 6 11 10 9 15 16 16 14 12 14 12 10 12 14 19 25 26 25 24 24 22 22 24 29 28 28 25 22 23 23 20 18 17 19 18 19 18 16
6 7 7 7 6 5 6 8 14 16 15 15 13 12 15 17 20 20 18 17 16 18 20 25 23 21 21 21 22 26 26 23 22 22 20 20 19 19 20 20 20 19 20
7 7 8 9 10 12 13 13 14 15 15 14 13 13 15 17 19 22 21 21 19 20 19 26 25 19 22 25 26 25 25 24 22 20 19 21 20 20 22 23 22 24 24
8 8 9 9 11 12 12 12 13 13 14 15 15 16 17 17 17 21 23 23 23 25 23 24 23 19 20 23 21 21 17 16 16 18 20 23 20 23 22 23 22 24 21
6 6 8 10 10 9 10 10 11 13 13 16 16 17 21 23 24 23 22 24 26 26 26 26 27 22 28 24 16 15 24 25 23 18 21 20 18 21 22 21 22 25 27
8 5 5 8 11 12 14 17 19 19 22 24 26 28 26 25 25 23 24 25 28 30 27 31 31 31 31 31 28 25 22 23 23 24 19 19 19 17 17 19 19 20 21

GFSGL_850_spd_075.txt.gz
Wind_Speed
43 44 43 42 40 40 36 31 31 24 21 22 18 15 15 16 16 18 17 14 13 12 14 11 12 12 11 10 11 11 11 12 14 13 12 14 19 22 27 29 31 28 22
41 45 45 45 42 39 42 39 33 29 27 25 22 20 17 18 18 18 17 16 17 16 14 14 14 13 16 13 14 14 14 15 15 21 18 19 19 19 22 24 27 22 22
39 41 43 45 44 44 38 40 36 33 32 28 26 24 22 20 20 20 19 18 18 16 16 16 16 16 18 16 17 16 15 17 16 17 20 20 22 21 21 21 22 24 22
36 39 43 45 45 45 43 40 39 37 35 32 30 28 26 23 22 22 21 21 21 19 19 18 18 19 19 19 19 20 19 20 19 20 21 21 21 21 21 22 21 24 25
41 40 44 46 46 44 45 44 42 39 39 35 33 31 29 26 24 25 24 24 22 21 21 20 19 20 21 22 19 18 18 19 19 20 22 23 23 22 21 26 26 29 31
41 44 42 44 44 46 46 45 43 42 39 36 36 34 33 28 26 27 26 25 26 25 24 23 23 25 27 27 27 27 26 28 30 28 28 28 29 27 26 29 27 28 27
40 41 40 41 43 45 45 44 44 43 40 39 38 36 36 35 30 29 29 29 26 26 26 26 25 22 24 26 27 27 28 29 32 34 38 38 39 36 33 27 21 26 25
42 40 42 42 43 44 43 45 45 44 41 40 39 39 39 38 35 33 33 32 31 31 31 31 32 31 30 31 32 34 35 35 34 33 36 36 34 26 25 28 30 29 25
42 47 45 45 44 43 47 48 47 45 43 42 42 41 41 40 38 35 34 34 35 35 34 34 35 36 35 35 35 36 37 38 34 33 34 33 29 26 26 24 25 21 20
48 47 44 44 43 44 47 49 48 46 45 40 40 43 42 41 39 38 36 36 32 33 35 36 37 37 36 35 36 36 38 36 34 31 30 28 22 20 22 18 19 21 20
36 38 41 42 43 42 40 42 46 47 36 42 36 37 39 40 41 41 38 38 35 30 30 30 29 30 29 29 31 34 36 33 32 31 26 21 23 20 18 16 20 21 21
33 36 39 39 39 35 39 38 36 39 40 37 39 35 31 40 39 39 38 38 37 38 36 28 26 26 29 30 30 30 28 26 28 29 25 22 22 19 20 20 22 20 21
31 33 35 36 37 35 37 37 34 35 32 32 29 30 30 27 29 36 36 35 34 37 37 31 31 31 31 32 33 31 28 30 31 29 24 23 21 19 20 23 22 24 23
28 31 32 34 36 39 32 30 30 29 29 28 28 28 25 25 27 24 27 31 34 36 37 37 36 35 35 35 31 31 32 32 29 25 25 22 18 19 24 23 22 22 21
24 26 29 30 32 35 32 30 29 28 28 27 27 23 24 24 24 24 23 25 24 31 32 34 34 35 36 34 28 26 26 25 25 25 25 24 19 23 27 26 27 18 17
22 26 27 27 27 30 32 29 29 27 30 28 25 24 18 23 23 24 28 29 23 20 19 23 24 23 25 23 27 30 24 25 27 28 29 28 30 30 29 27 25 17 12
12 23 24 26 27 29 29 29 26 31 27 32 32 29 28 21 26 23 24 28 32 29 27 18 19 20 23 30 26 24 24 24 24 26 27 28 28 26 25 24 23 17 13
10 16 13 24 23 26 26 25 24 20 23 27 23 18 21 28 28 23 29 27 29 30 31 23 23 24 27 25 19 19 19 19 23 23 22 24 25 24 24 24 22 17 15
4 7 7 11 19 21 22 21 20 21 21 23 21 14 7 5 12 25 31 33 29 24 22 22 23 23 23 21 20 20 22 22 23 23 23 25 25 23 26 26 20 20 18
4 9 5 1 9 10 12 12 14 11 12 22 19 11 9 10 16 20 25 26 29 32 26 24 24 23 23 24 22 23 23 26 27 25 25 27 27 27 26 25 19 19 20
4 5 4 5 3 4 12 8 10 15 15 12 15 11 8 15 16 6 13 19 20 25 25 23 24 23 24 28 22 20 25 26 21 23 24 25 24 26 21 18 19 20 18
2 3 2 6 3 3 1 9 9 7 12 25 11 9 24 20 21 13 16 17 18 17 14 17 20 21 22 23 24 21 20 20 20 23 24 24 22 22 19 20 22 21 19
6 7 2 2 1 1 8 15 9 13 14 14 17 20 17 16 14 18 18 16 15 14 14 18 22 19 20 21 22 22 22 23 21 21 20 19 19 20 22 24 22 22 24
2 1 1 2 2 5 5 5 5 7 10 12 11 13 12 12 12 12 16 15 13 15 14 15 16 17 16 18 17 18 21 24 22 19 18 16 17 20 24 23 24 24 24
2 4 5 2 2 6 9 9 10 13 8 8 15 17 18 17 19 18 19 18 13 15 21 23 23 20 21 24 24 23 23 23 24 23 20 18 20 20 19 22 23 26 27
7 5 6 4 4 6 6 10 13 13 13 14 15 18 19 21 22 22 20 18 16 20 25 28 30 31 32 35 34 32 31 29 28 27 25 17 20 19 21 27 28 27 24

GFSGL_850_spd_078.txt.gz
Wind_Speed
44 41 45 45 44 41 34 33 30 28 28 23 16 16 17 17 19 19 18 17 18 12 12 10 13 10 15 13 7 10 13 12 16 17 16 18 20 21 20 20 25 25 25
45 43 43 46 46 44 43 37 37 32 31 31 28 20 19 18 18 19 17 21 16 17 12 18 17 14 11 12 15 16 15 13 17 23 22 19 17 19 23 22 24 25 26
42 43 42 44 46 45 44 45 38 38 36 32 30 28 27 22 20 20 19 17 23 22 20 20 17 16 17 18 14 16 15 15 15 19 22 20 22 16 22 24 21 19 21
40 42 43 44 45 46 43 43 47 39 39 37 33 31 29 26 23 22 22 21 20 23 21 19 18 18 18 18 18 18 19 20 19 20 21 19 21 20 19 17 24 29 28
42 43 43 45 45 42 42 42 42 43 43 39 35 33 32 29 28 27 25 25 22 22 23 24 22 22 23 22 21 21 19 19 19 20 21 19 23 25 27 30 34 35 34
42 45 41 41 42 44 43 42 41 41 40 40 38 35 35 33 31 27 26 26 27 25 24 25 26 24 23 22 22 23 23 26 28 30 32 33 33 32 32 35 31 27 27
40 41 42 42 44 45 44 43 43 44 42 43 41 38 38 37 33 28 27 28 26 26 27 26 25 24 22 23 22 22 23 24 25 27 30 30 31 28 28 29 24 23 30
38 39 41 43 44 45 45 45 45 44 44 43 43 41 39 38 35 33 31 31 31 30 28 28 27 26 24 25 27 29 30 30 30 29 31 32 32 32 27 24 25 29 27
42 40 40 43 44 44 45 44 44 43 42 45 42 41 40 39 37 34 33 35 36 35 33 32 33 33 31 29 30 32 32 34 33 34 34 33 29 26 24 24 25 25 23
39 41 38 39 43 45 46 44 42 42 44 43 43 41 41 40 38 36 35 34 37 38 37 36 35 34 33 33 34 35 37 36 34 33 31 29 26 25 23 23 19 19 18
33 38 39 40 42 44 42 41 41 41 41 42 41 41 42 41 40 38 37 38 39 38 38 37 36 34 32 29 25 25 27 24 24 26 28 28 24 18 21 23 16 19 19
24 36 40 41 41 40 40 40 40 40 40 38 39 38 39 39 38 38 38 38 38 40 40 39 36 30 26 24 24 26 25 24 25 28 29 28 25 20 26 20 19 22 22
29 36 38 38 40 40 39 41 40 40 40 42 38 40 38 33 37 37 36 36 36 38 38 37 37 36 30 28 28 29 28 29 29 30 31 30 24 24 22 20 23 22 21
30 34 35 37 38 39 39 39 42 40 41 38 37 34 32 34 33 31 31 27 27 34 35 34 35 36 36 36 37 36 35 34 32 31 30 26 22 23 19 25 23 20 20
17 26 29 31 35 37 38 35 39 40 39 40 37 32 30 28 26 28 31 30 24 21 23 29 34 36 37 38 37 36 36 35 33 29 26 23 24 23 21 26 24 25 25
12 16 22 26 29 35 34 37 35 35 36 34 30 27 25 30 29 27 26 31 28 22 19 19 23 27 27 27 27 26 24 24 27 26 26 25 25 24 23 26 28 30 26
12 20 23 24 27 31 33 37 33 37 34 35 34 29 30 26 31 30 25 30 25 21 23 23 21 18 18 19 19 24 28 28 24 23 26 25 24 28 28 26 27 25 24
4 15 20 24 27 23 33 33 33 36 38 36 36 35 35 35 32 28 28 25 26 25 25 25 25 21 18 21 26 28 28 23 20 18 18 20 22 21 22 23 23 23 23
3 2 11 15 10 18 27 32 33 26 30 30 27 34 36 37 34 32 31 29 31 31 28 24 22 21 24 27 31 25 16 14 19 20 22 27 23 22 23 24 23 24 25
10 7 4 6 8 13 7 17 24 25 25 18 22 18 28 24 23 23 24 26 29 30 28 28 21 18 20 21 22 21 17 15 19 24 27 29 28 25 23 26 25 28 27
2 8 3 8 10 9 8 14 13 9 6 4 17 12 13 8 13 9 8 7 6 8 6 18 22 24 20 16 23 21 26 29 27 28 28 26 23 23 20 25 25 25 25
8 7 6 4 9 9 6 7 11 9 8 8 2 15 20 16 16 16 6 5 9 7 2 8 10 9 14 17 21 23 26 27 28 24 23 26 22 21 20 24 20 20 22
2 4 7 6 7 7 4 9 7 8 5 8 13 7 15 11 9 9 16 13 16 17 11 10 11 15 16 15 19 21 21 24 23 23 26 25 21 19 19 21 20 22 23
2 5 10 6 7 9 11 5 5 6 5 5 16 8 7 7 12 21 17 17 24 22 16 15 15 18 19 21 24 22 22 21 19 21 18 22 25 18 17 19 22 24 26
4 3 4 5 6 6 6 9 14 12 13 16 11 8 11 10 7 7 9 11 11 10 14 18 20 22 24 26 25 26 30 29 25 24 25 21 21 18 22 21 23 23 26
14 12 8 5 3 5 2 2 3 4 5 5 5 5 7 7 8 10 11 12 14 17 18 19 22 24 26 27 29 30 30 31 29 28 26 27 24 23 27 28 29 26 28

GFSGL_850_spd_081.txt.gz
Wind_Speed
41 39 44 46 41 39 39 32 31 28 26 19 17 20 16 13 15 15 13 12 11 10 8 9 13 12 18 15 11 12 12 13 17 17 14 14 19 16 13 15 20 23 23
44 41 39 44 46 43 42 39 35 31 29 18 19 21 19 15 15 17 16 16 18 15 16 12 17 13 13 14 19 17 15 14 17 20 19 18 17 15 14 20 22 14 16
48 44 41 39 44 48 45 42 40 35 34 32 27 26 25 21 17 17 17 16 20 20 16 15 14 18 20 17 15 15 15 16 17 20 23 23 19 12 16 14 14 24 26
50 47 45 42 41 43 46 45 43 39 38 39 37 35 33 29 25 21 19 18 18 24 23 21 19 19 20 17 17 17 17 19 19 20 20 17 17 15 16 26 30 28 30
48 46 44 41 40 39 40 44 44 45 42 40 39 37 34 32 30 27 24 22 21 20 22 24 22 20 19 19 19 19 19 19 19 20 21 22 25 26 28 30 29 29 26
47 44 40 37 34 37 39 40 40 43 47 43 41 41 40 36 33 30 28 26 25 24 22 22 23 23 22 20 21 22 23 25 26 27 28 29 28 27 26 25 26 27 26
49 45 41 38 36 33 35 38 40 41 42 47 45 42 40 38 35 32 29 28 27 25 25 24 23 24 24 24 24 25 25 23 24 25 28 27 27 24 25 27 25 22 24
45 47 45 41 38 36 34 36 39 40 40 41 43 42 40 38 36 34 31 30 29 27 26 26 26 24 23 23 23 24 25 26 26 27 29 30 30 30 28 25 24 24 23
37 45 45 43 41 39 39 37 37 39 40 42 41 42 43 40 37 34 32 33 34 34 31 30 30 29 27 25 26 28 29 31 30 31 32 32 30 26 24 24 23 20 22
8 36 42 40 40 42 40 39 38 38 39 39 41 41 41 41 38 35 34 33 35 37 36 36 34 33 31 30 32 34 36 32 29 26 25 25 24 24 20 21 19 20 20
11 12 31 39 39 41 42 40 40 39 38 39 41 42 41 39 38 36 35 35 36 36 37 37 36 34 32 31 29 29 30 22 19 21 23 24 23 22 20 18 18 19 20
16 16 21 38 38 40 42 43 41 40 39 39 39 41 40 38 36 36 35 36 35 37 37 35 35 34 32 30 25 23 21 23 27 26 27 27 25 23 21 18 18 21 19
20 22 22 30 40 40 40 43 43 41 40 39 39 39 40 38 37 36 35 35 34 36 37 36 35 36 35 31 26 25 24 24 25 29 30 29 26 23 18 15 20 21 20
18 18 22 24 36 39 38 39 42 43 41 40 40 41 41 40 40 38 37 34 32 33 32 33 36 36 36 36 38 38 37 35 34 32 30 27 24 19 13 17 21 20 21
14 4 12 17 27 37 38 39 39 42 42 40 42 41 40 40 41 37 37 35 33 31 26 28 31 33 35 35 35 35 34 33 32 30 29 26 20 16 17 20 21 20 21
15 9 9 16 21 28 33 37 39 39 40 40 37 38 39 37 35 32 30 28 24 24 26 28 25 25 26 28 30 28 27 27 27 24 19 18 21 18 16 19 21 21 21
18 16 8 9 19 22 25 32 38 39 38 37 36 35 33 34 27 30 30 27 24 25 32 30 28 24 21 19 17 15 15 16 15 17 20 21 21 19 16 19 21 24 24
14 17 13 9 17 24 26 31 36 37 40 40 34 35 35 30 28 27 30 33 32 34 37 33 29 24 21 19 16 15 17 19 20 23 24 18 17 14 15 17 18 19 22
12 14 16 12 11 21 29 32 34 36 35 38 38 35 39 39 35 33 28 22 22 25 29 30 27 24 23 22 22 22 22 22 23 19 17 15 17 18 18 19 19 21 22
8 10 12 11 7 8 16 26 30 34 33 35 38 40 40 37 34 30 28 26 26 24 23 23 23 21 20 20 20 18 18 19 17 20 20 17 18 21 24 26 22 21 22
1 5 5 6 6 2 6 10 15 21 20 26 25 25 23 33 35 30 21 11 8 11 17 17 17 19 24 21 12 16 21 20 18 18 20 21 19 22 24 24 20 19 21
4 2 3 9 8 3 5 11 17 18 16 18 18 17 15 16 15 18 12 8 12 9 10 12 15 12 16 19 19 17 14 12 17 20 24 23 20 19 19 21 19 19 20
8 6 5 6 10 5 6 6 12 17 17 21 18 18 18 21 21 17 18 15 14 13 11 11 8 12 18 14 15 15 14 15 19 21 22 23 18 21 20 20 21 21 21
7 7 6 4 5 8 9 6 8 10 12 12 14 16 17 14 14 14 16 15 15 11 8 5 13 21 18 20 20 18 19 20 21 20 21 21 22 26 22 22 19 17 17
3 2 4 5 5 3 5 5 3 7 11 2 6 6 7 6 9 10 11 13 8 10 14 16 18 16 16 20 20 19 23 22 22 23 23 29 24 28 27 24 22 21 22
6 5 5 6 7 7 7 8 9 9 9 10 10 10 10 9 6 5 2 3 5 6 2 9 12 11 14 15 20 24 26 25 25 24 26 28 30 28 30 28 29 28 29

GFSGL_850_spd_084.txt.gz
Wind_Speed
44 40 39 42 41 41 40 32 29 26 24 22 21 19 22 17 13 14 13 12 13 14 13 13 13 18 19 16 12 11 12 14 17 17 15 14 16 16 14 11 15 16 15
43 41 39 40 43 41 43 40 33 31 30 27 26 21 23 21 16 15 15 16 15 16 14 13 12 15 17 21 20 16 15 15 18 22 22 21 19 17 10 13 9 16 28
50 44 40 39 42 45 43 43 40 36 32 33 31 27 23 22 19 15 15 16 17 18 18 16 15 15 16 15 16 17 20 18 19 21 24 23 19 13 15 15 20 28 25
50 50 44 41 40 42 45 43 45 42 38 34 32 29 27 26 22 18 16 16 17 18 19 20 18 17 17 18 18 17 17 18 18 20 22 21 20 19 21 28 29 24 24
45 52 49 44 41 38 40 46 45 45 44 40 37 35 32 30 28 26 23 21 19 19 20 21 22 20 19 17 18 18 17 18 19 21 22 23 25 26 26 26 26 25 23
43 52 52 47 45 43 41 40 44 48 47 46 43 41 39 38 36 32 28 26 24 22 22 22 22 23 22 21 20 20 19 20 22 24 26 27 27 27 24 24 26 27 27
35 42 47 47 46 44 42 41 43 44 49 52 49 45 44 43 40 37 33 31 29 27 25 23 23 23 22 23 22 22 23 24 25 27 29 29 30 26 27 29 28 24 22
18 28 34 43 47 43 40 38 38 41 43 48 50 50 47 45 41 38 35 35 33 31 28 26 24 22 22 22 22 24 25 25 25 26 28 29 30 29 30 30 27 24 23
17 16 21 37 45 44 40 38 33 33 36 41 45 45 48 46 42 38 35 35 35 34 30 29 27 26 23 22 23 26 26 27 25 26 29 31 31 29 28 26 23 21 22
37 31 33 28 41 43 44 40 37 34 31 32 37 41 43 42 40 38 36 34 35 35 34 32 31 31 28 27 27 29 31 29 28 27 23 21 21 21 18 19 20 21 19
18 28 19 24 38 52 49 44 41 38 37 35 33 33 35 37 38 37 35 35 35 35 35 34 33 31 30 29 28 31 32 28 28 25 21 21 22 21 18 17 18 19 18
15 13 26 42 43 51 51 48 45 43 40 39 37 36 35 35 34 34 33 33 33 35 36 32 32 31 30 30 31 31 30 28 25 25 27 26 24 21 19 20 21 18 16
13 12 17 37 34 38 44 49 45 44 43 41 40 38 38 36 35 33 32 31 31 33 34 33 31 31 32 32 31 30 28 27 27 28 27 25 25 22 20 22 17 13 13
17 16 14 24 29 32 37 41 43 42 44 43 41 40 38 36 36 35 34 32 31 31 32 33 33 32 32 32 32 32 32 32 32 34 35 32 25 22 21 16 14 14 13
18 16 17 11 22 26 32 35 41 39 39 38 38 39 38 37 37 35 34 31 30 30 29 32 35 34 35 35 35 35 35 35 36 35 33 29 25 22 19 15 16 17 18
21 17 15 11 14 24 30 39 37 37 37 34 30 31 32 31 29 31 30 30 29 26 30 33 32 34 33 31 29 28 29 30 31 31 29 26 22 18 17 15 17 17 15
22 18 16 14 11 15 24 28 31 31 30 32 31 30 30 32 30 28 29 26 25 25 30 32 31 31 29 29 26 22 21 19 19 19 17 15 14 15 17 18 17 15 15
19 17 16 15 17 16 21 26 28 29 30 30 31 33 32 32 30 29 27 27 31 30 32 32 31 30 30 27 22 20 18 14 15 14 14 15 15 15 15 14 14 14 15
19 16 14 12 13 17 18 18 20 20 25 26 26 28 33 34 32 30 27 33 29 29 32 34 33 33 33 25 22 20 19 19 17 15 15 17 18 18 18 17 15 17 17
16 15 14 13 9 12 15 15 19 21 24 27 26 26 30 33 36 35 34 32 23 20 21 20 20 19 20 22 24 22 21 21 19 18 17 17 15 17 16 16 18 20 24
9 11 12 13 10 8 10 9 8 12 17 23 26 28 28 29 35 33 31 28 26 25 26 28 27 26 26 25 25 24 22 20 20 22 21 20 18 18 17 15 17 19 20
8 9 11 11 10 8 4 6 7 9 12 13 18 19 26 24 26 28 26 24 13 21 22 24 28 29 27 24 23 26 25 18 18 19 18 19 17 16 17 16 17 17 18
8 11 10 9 9 5 3 3 4 10 12 18 21 21 25 26 21 23 25 23 23 28 20 19 19 19 18 16 16 15 14 17 19 17 17 17 16 16 19 18 19 20 20
7 11 11 9 6 8 7 5 6 10 16 14 18 23 21 19 21 22 23 23 21 20 16 13 14 15 15 14 16 16 14 16 16 14 14 13 18 23 25 23 20 21 23
6 7 7 8 7 6 8 11 10 6 12 17 17 16 23 20 15 9 8 8 5 4 6 6 8 8 8 9 10 11 11 12 14 15 14 21 25 24 24 24 23 22 28
4 6 7 8 8 7 9 10 10 11 11 9 9 9 7 7 9 8 8 10 14 16 17 10 6 6 4 7 9 13 14 14 18 19 17 22 25 25 25 26 25 24 25

GFSGL_850_spd_087.txt.gz
Wind_Speed
42 35 33 31 31 33 36 35 31 24 24 23 19 19 19 19 18 16 15 15 17 17 19 18 18 18 19 18 16 13 11 12 15 16 16 15 17 18 18 12 17 18 24
44 40 38 35 32 33 36 38 36 29 27 26 23 22 22 20 23 22 17 17 16 17 17 18 16 15 17 19 19 18 16 16 18 22 22 20 17 17 13 16 17 20 27
49 45 41 40 38 35 36 38 40 37 30 30 28 27 26 25 23 25 20 17 18 18 18 18 17 15 17 17 18 17 17 19 20 23 23 21 20 15 16 17 21 22 21
45 46 46 43 39 38 36 38 40 41 39 34 33 32 31 28 24 23 21 17 16 17 18 20 21 19 17 17 17 17 17 18 18 20 22 22 21 20 21 24 25 23 23
36 43 47 46 41 38 38 37 40 41 43 41 37 35 31 31 29 27 24 22 19 19 18 19 20 20 20 20 20 18 17 18 19 20 22 22 22 21 22 25 27 27 26
29 40 41 44 45 41 39 39 38 41 43 44 45 41 39 37 35 32 30 28 25 24 23 21 21 21 21 21 21 21 20 21 21 22 23 24 24 24 25 27 28 29 31
29 31 31 39 41 36 38 40 42 40 40 45 46 47 47 44 40 38 36 33 31 30 28 26 25 24 23 23 21 22 22 22 22 23 26 26 27 26 27 29 30 29 27
23 26 31 32 30 32 33 36 41 43 42 42 45 49 49 48 46 43 39 38 37 36 34 32 30 27 24 23 22 23 22 23 23 23 25 25 26 27 29 29 30 28 23
12 20 24 23 22 26 31 35 34 40 43 43 44 45 48 51 50 47 44 43 42 40 37 35 33 31 27 23 23 25 25 25 23 22 24 25 25 26 24 24 23 21 22
16 19 16 17 19 17 27 33 34 34 39 39 39 42 46 46 47 45 44 44 44 42 39 37 35 33 29 27 27 27 30 28 26 24 25 25 23 22 19 19 19 19 19
6 10 21 20 22 24 27 28 37 34 33 37 37 34 34 39 41 42 40 41 42 42 41 39 36 33 31 29 28 30 31 28 29 29 29 27 23 20 19 19 20 20 21
16 10 12 26 30 30 24 26 32 35 34 38 39 38 35 32 31 33 36 38 38 40 41 39 37 34 30 28 28 28 29 29 30 30 30 28 24 21 18 18 22 24 22
18 13 16 18 26 30 32 28 24 31 40 41 42 42 40 37 33 31 31 31 33 37 37 38 34 31 29 29 28 28 27 29 30 31 31 29 25 21 22 25 22 20 16
19 17 15 21 22 23 30 26 23 31 39 43 45 44 42 40 36 33 31 29 30 32 33 33 31 31 31 29 29 29 30 30 31 32 31 29 29 28 27 21 21 17 15
22 20 20 20 18 25 25 33 35 36 44 42 38 35 37 38 35 30 27 26 26 27 27 30 33 33 32 32 33 33 31 32 33 34 34 33 32 30 27 22 22 17 18
22 21 21 20 17 13 28 35 39 37 39 34 31 32 30 27 22 22 22 19 18 16 21 26 29 30 31 31 31 30 29 27 26 27 30 32 31 30 26 23 20 17 20
20 20 20 21 20 18 14 23 31 31 34 33 31 29 31 28 20 17 17 15 17 19 24 24 26 28 29 29 28 26 25 24 24 24 24 24 23 22 19 19 20 22 20
22 18 20 17 21 22 19 17 17 24 29 35 33 31 30 28 26 25 25 22 23 24 26 27 27 25 25 24 25 25 24 24 22 18 15 13 13 15 16 17 18 18 19
21 19 19 15 18 20 20 19 18 19 24 27 28 28 30 29 29 31 35 30 27 26 28 28 28 29 27 26 26 28 27 23 19 19 18 16 14 15 18 18 16 18 17
19 17 18 15 16 18 20 20 18 19 20 23 26 27 27 27 30 31 32 32 32 29 31 31 29 25 25 27 27 25 25 24 24 22 20 18 16 14 14 14 14 16 20
16 15 17 14 14 17 19 18 17 16 20 23 25 28 29 27 26 27 26 30 33 33 33 28 23 21 20 19 20 21 23 26 28 27 26 23 21 20 17 17 17 18 18
14 15 15 14 14 14 14 14 16 16 19 21 20 20 21 25 27 27 27 27 29 29 29 27 25 25 26 27 28 27 27 28 27 25 26 26 25 23 22 20 18 17 14
10 15 17 15 14 9 9 9 11 13 17 17 16 17 19 21 23 25 26 25 26 28 23 20 20 19 21 23 25 24 25 26 28 28 24 20 21 23 23 20 16 16 13
9 14 18 15 13 7 10 9 7 7 12 14 15 18 21 18 18 19 18 18 16 14 12 12 14 14 13 12 10 11 13 14 14 14 15 15 16 18 19 19 22 22 19
8 10 10 10 9 9 9 10 7 7 11 16 16 14 15 20 21 19 17 17 16 16 14 11 6 6 4 6 6 4 6 13 12 11 11 13 13 14 19 20 20 21 22
4 5 5 6 6 6 6 9 10 9 11 14 17 17 17 16 17 17 17 15 16 14 10 7 10 15 20 17 10 9 9 10 15 15 14 14 14 17 19 18 22 24 23

GFSGL_850_spd_093.txt.gz
Wind_Speed
41 39 34 29 27 24 22 26 26 20 20 18 16 13 13 12 11 10 7 6 7 9 10 11 14 14 14 14 15 15 15 15 14 14 18 20 20 18 18 16 19 20 24
36 41 40 35 30 29 25 24 25 28 23 21 19 16 15 16 16 14 12 11 11 9 11 12 13 14 14 14 14 14 15 15 17 19 19 22 21 19 18 16 18 20 24
31 34 38 40 37 33 30 25 24 25 27 26 24 20 18 18 18 17 14 12 13 14 13 14 13 13 14 13 14 14 13 15 16 18 20 18 21 19 19 18 20 21 21
22 27 32 34 37 37 34 31 28 26 27 30 30 27 23 21 21 20 19 16 14 15 14 14 14 14 15 15 16 17 16 16 15 18 18 18 17 19 18 17 20 20 26
21 21 25 27 28 31 36 37 34 32 29 29 31 31 30 27 26 25 22 20 17 15 15 12 11 11 12 14 16 16 17 18 16 17 17 17 16 15 16 18 18 22 21
20 25 26 26 26 26 27 30 34 35 35 34 32 33 34 35 32 28 26 24 22 20 19 18 16 15 14 13 14 15 17 19 21 20 19 18 21 19 17 17 23 22 18
13 18 20 25 28 28 27 27 29 31 32 36 36 35 35 37 37 35 31 29 26 25 23 23 22 21 18 18 17 17 19 20 22 22 24 22 21 19 20 23 22 24 25
8 13 17 22 23 25 28 29 31 31 32 33 35 35 36 35 37 37 36 35 34 32 31 29 27 26 25 23 22 23 23 24 24 24 25 23 22 20 21 23 26 27 27
16 9 12 21 27 26 25 27 28 29 31 34 34 36 37 36 34 34 36 38 40 40 37 36 35 33 29 26 26 28 27 27 26 25 25 24 23 23 23 25 26 19 19
15 19 19 11 16 24 27 26 21 25 29 32 35 37 38 38 36 34 33 35 39 43 43 42 41 39 35 31 30 30 32 30 28 28 26 26 28 28 26 27 27 25 19
9 11 16 20 17 17 22 23 20 18 23 24 32 36 37 37 37 37 36 37 39 38 39 40 43 41 38 37 34 34 35 29 29 31 31 31 31 32 30 29 26 26 25
17 9 11 13 18 18 15 22 21 21 24 22 20 22 28 31 32 33 35 37 38 40 41 36 40 41 38 36 35 36 34 31 32 34 33 33 32 31 29 27 26 26 26
20 21 14 9 12 22 16 12 20 26 25 26 26 26 23 26 31 29 28 29 31 33 35 37 39 39 38 36 35 35 32 33 35 36 35 34 31 30 29 28 29 28 28
25 22 23 18 13 17 26 16 16 20 29 33 28 27 25 26 31 33 33 30 29 32 32 31 31 34 36 37 36 36 37 37 37 37 36 32 29 30 32 29 29 27 26
25 26 23 24 24 17 23 23 17 19 22 32 32 30 25 29 32 34 33 32 31 31 31 31 33 35 37 38 38 38 34 37 39 39 38 35 32 31 32 31 31 30 25
24 24 24 25 26 25 22 26 22 23 22 26 35 34 34 35 33 29 29 28 28 26 28 32 36 38 40 39 40 38 37 36 35 34 34 33 32 30 28 28 28 27 26
25 24 25 25 27 27 26 25 25 27 28 23 23 25 31 34 32 27 24 23 24 25 30 35 37 39 41 40 39 39 38 31 31 31 31 32 32 30 30 30 31 32 34
27 25 24 27 27 27 28 26 29 30 32 28 20 20 22 27 30 30 26 24 26 27 30 33 35 38 37 37 35 34 32 30 28 29 30 31 29 29 30 31 30 31 31
27 27 24 26 27 27 27 28 29 29 30 31 30 18 19 19 22 28 27 27 28 29 30 32 31 33 34 33 31 30 29 28 28 29 28 28 29 29 29 28 27 25 23
25 25 24 27 28 26 26 26 25 26 31 28 28 22 18 17 19 20 18 22 23 21 25 28 32 32 34 32 32 31 28 28 29 30 30 28 28 28 29 29 28 27 25
23 24 25 25 25 23 24 26 25 27 29 25 26 22 19 19 20 23 24 24 24 23 20 19 24 32 34 35 34 34 33 34 34 33 33 32 32 32 30 29 29 29 30
21 22 23 24 23 23 23 25 25 25 26 27 24 21 21 19 22 24 30 35 32 21 23 23 37 38 37 35 37 37 36 38 35 32 31 29 27 27 29 31 31 29 30
21 22 21 22 22 20 20 23 23 24 25 26 23 20 20 18 17 23 27 26 30 30 25 28 29 27 26 24 27 31 28 27 27 26 26 26 25 25 26 28 29 30 32
19 20 19 21 23 22 20 21 22 22 24 26 21 20 20 18 17 18 19 20 21 20 20 18 18 17 16 14 14 15 13 13 12 12 13 17 19 17 16 18 22 22 24
21 21 21 20 22 23 21 20 21 21 23 24 18 17 18 16 16 15 14 15 12 12 12 12 12 12 13 11 10 8 7 6 5 4 5 4 7 7 7 6 6 8 12
13 15 15 16 18 18 18 18 18 19 19 18 14 12 12 13 13 13 12 12 13 14 14 15 13 13 13 11 9 9 8 6 5 7 8 10 10 10 8 9 11 11 11

GFSGL_850_spd_096.txt.gz
Wind_Speed
23 23 27 27 24 22 20 18 17 17 15 15 14 12 11 10 9 10 10 9 8 8 9 9 11 13 9 10 9 9 10 10 13 13 13 13 19 16 15 16 13 14 18
17 19 22 28 30 23 21 20 17 19 20 18 18 17 15 13 13 13 11 10 9 8 8 10 10 10 13 13 11 11 11 11 12 15 14 14 15 17 15 17 13 13 16
14 15 18 22 29 31 27 23 21 19 20 21 19 19 18 17 17 17 15 13 12 11 12 12 12 12 13 12 12 11 10 11 12 14 16 14 15 14 15 14 13 16 14
11 13 16 19 21 25 30 29 25 23 21 22 22 21 21 18 17 18 17 16 15 14 13 14 14 14 14 13 12 13 13 13 14 15 15 14 14 14 13 13 15 14 16
7 12 12 14 17 19 21 26 29 26 26 25 24 24 25 23 21 20 20 19 18 17 15 15 14 14 15 14 13 14 14 14 14 15 16 15 14 13 14 14 15 15 15
10 9 11 14 14 14 16 18 21 25 28 29 29 27 26 25 26 27 26 21 21 20 18 18 17 18 16 16 16 16 17 17 17 16 16 17 19 15 14 14 15 16 15
2 6 11 14 15 17 16 17 19 21 23 25 29 31 31 31 29 31 32 29 23 22 22 21 20 20 21 20 19 19 20 20 21 20 23 22 21 17 16 17 15 18 19
12 4 4 8 12 15 17 21 22 20 21 23 25 26 30 32 34 33 34 34 35 32 27 25 25 24 23 23 22 21 21 21 23 23 25 25 23 21 19 17 19 23 19
12 11 9 6 7 12 17 23 21 22 24 27 24 25 28 31 34 34 34 35 35 39 37 36 32 31 32 30 30 27 25 25 23 26 26 26 26 23 24 24 21 19 20
15 12 10 11 9 16 20 22 27 28 29 24 25 26 27 30 32 35 34 34 33 33 37 40 42 42 40 37 36 35 34 32 26 23 24 29 27 27 27 28 27 22 21
15 15 15 9 5 8 8 14 21 23 21 25 24 25 27 27 29 36 37 37 35 33 33 34 35 38 41 41 41 40 41 36 31 28 26 26 25 24 22 25 26 26 23
16 16 17 17 15 9 5 8 14 20 25 25 26 28 25 26 31 36 39 40 42 40 38 33 33 36 39 39 38 39 39 38 35 31 29 28 26 25 23 24 25 29 25
21 20 18 19 19 18 17 10 10 14 22 24 20 24 31 26 28 26 33 37 39 43 43 37 36 37 37 38 39 38 34 34 37 31 32 31 28 26 26 25 26 30 30
24 23 20 19 20 22 20 20 16 11 17 15 20 25 22 20 24 24 25 30 35 38 39 40 39 37 36 35 36 39 39 38 32 30 30 30 28 26 25 22 22 22 23
25 23 21 21 21 21 21 24 22 18 13 17 20 20 29 32 26 24 25 24 26 36 38 34 31 33 34 31 29 29 28 28 35 31 30 29 29 27 27 25 24 23 25
25 24 22 21 21 21 21 21 24 25 22 20 22 26 26 33 36 38 33 31 29 35 31 28 28 30 31 30 30 29 27 28 28 27 27 28 30 29 28 26 25 25 26
26 25 24 24 21 22 21 21 24 22 25 27 22 23 25 28 34 38 37 35 37 35 36 33 30 32 32 31 31 33 34 31 27 27 29 29 28 27 27 27 27 27 28
26 27 26 25 23 22 22 20 21 24 24 24 20 24 19 24 29 33 31 32 36 33 38 36 30 29 30 34 35 35 33 33 29 26 26 26 26 26 26 27 28 28 27
25 26 26 25 24 23 23 22 21 23 24 24 27 29 23 24 24 28 21 26 34 36 37 34 34 29 31 31 32 33 33 31 30 30 31 30 27 26 28 29 29 28 27
25 26 28 25 24 23 24 22 21 22 23 24 23 31 30 27 24 23 21 17 28 30 34 31 28 27 27 30 30 29 29 30 30 29 28 28 29 28 28 26 24 25 24
22 20 21 21 23 24 23 22 20 19 20 23 21 24 31 27 26 24 21 18 20 20 24 26 22 17 18 24 28 29 30 31 32 30 31 31 31 33 35 36 36 34 32
21 19 18 20 21 23 23 21 17 17 18 20 23 26 28 28 28 25 23 24 25 29 29 28 27 23 23 25 28 28 26 28 34 36 37 37 35 35 34 34 35 33 31
19 20 19 20 20 21 21 20 18 18 17 20 25 26 26 26 27 25 22 24 27 30 30 31 30 29 32 33 31 28 30 28 30 35 39 35 32 30 28 27 27 29 28
17 18 18 19 18 19 18 16 19 21 23 23 24 25 26 25 26 26 23 23 25 27 29 29 26 27 33 30 28 27 29 23 21 23 23 20 19 18 17 18 20 19 21
16 17 19 20 20 20 18 18 21 22 23 23 24 24 24 25 24 24 23 22 21 21 24 24 26 23 23 23 24 23 19 16 15 16 14 13 11 10 10 10 10 10 10
14 15 16 17 18 21 22 21 21 21 22 22 22 22 21 20 21 19 19 18 16 17 17 16 17 18 17 16 16 17 17 17 15 13 10 9 8 9 7 7 9 6 7

GFSGL_850_spd_102.txt.gz
Wind_Speed
24 23 20 20 17 19 20 16 17 17 8 12 15 12 3 10 12 10 15 10 12 10 14 11 8 12 15 9 9 9 10 10 13 14 17 19 16 15 19 21 21 15 16
22 23 23 21 17 15 19 17 13 15 17 6 4 8 9 10 8 7 11 9 8 6 9 12 14 13 9 13 16 15 11 14 14 15 10 14 15 12 15 17 17 15 19
17 21 22 22 21 22 19 16 15 12 15 19 16 17 15 14 15 14 9 13 13 12 9 12 11 11 12 14 12 14 13 12 12 13 16 15 11 14 15 17 12 13 15
11 9 21 21 21 20 21 20 19 17 15 15 17 18 18 18 18 15 16 15 13 14 14 14 12 14 16 16 17 14 18 18 17 18 15 18 16 14 14 9 16 12 14
17 11 14 16 14 15 17 21 18 22 21 19 18 19 20 21 18 19 17 20 18 16 16 18 18 16 14 19 20 15 15 16 17 16 18 16 15 16 17 18 13 16 16
8 8 10 13 15 17 16 16 18 21 21 22 22 21 21 20 18 17 20 17 18 20 21 18 19 20 20 21 22 18 19 22 22 22 22 20 19 18 19 19 21 22 21
11 6 4 8 9 14 16 18 18 19 24 24 25 23 22 23 21 21 23 25 26 25 22 23 23 19 21 25 23 20 19 20 23 23 25 23 23 21 22 23 22 21 22
16 14 11 7 5 10 8 9 13 17 17 21 24 25 26 26 24 23 25 28 30 31 32 31 28 26 25 26 20 23 25 24 24 24 24 22 21 20 20 21 22 24 25
10 10 13 15 13 7 7 14 15 12 15 16 19 22 25 27 27 25 25 27 31 34 35 35 34 36 36 30 28 31 30 28 27 27 25 26 25 24 23 24 27 28 32
9 9 8 8 11 12 10 9 10 14 15 18 17 20 21 26 29 29 30 28 30 33 31 34 35 35 34 36 39 38 39 39 37 38 37 35 34 34 30 26 30 30 28
9 9 9 8 8 9 15 14 12 11 12 16 20 21 21 24 26 26 26 29 31 32 32 33 32 32 31 28 28 32 38 37 38 39 40 39 38 37 35 31 25 24 27
14 14 14 13 11 10 11 16 17 16 17 14 13 15 18 24 23 21 26 27 28 30 33 34 34 31 27 28 35 37 36 34 33 35 37 39 37 36 34 31 30 31 30
16 18 19 18 18 16 14 15 17 16 17 20 14 12 16 16 17 18 17 20 24 28 29 30 34 36 40 40 38 32 31 35 40 42 41 43 42 41 38 36 36 34 35
15 16 17 19 20 20 18 17 15 15 17 19 23 21 19 17 13 17 21 22 24 28 31 32 33 34 35 37 42 47 44 42 41 41 44 45 46 45 43 38 35 31 36
16 17 18 18 19 21 20 19 18 19 20 22 26 30 30 29 25 22 21 27 28 28 32 34 35 36 38 36 37 38 40 49 50 49 47 48 45 41 37 33 31 34 34
17 17 17 19 21 21 20 23 20 22 23 24 25 27 29 32 32 31 29 26 26 30 39 42 41 40 37 37 36 31 33 36 39 44 46 44 39 34 33 33 30 32 34
16 17 16 19 21 23 23 23 26 26 24 23 26 26 27 28 29 30 32 32 30 31 32 32 38 43 45 45 45 43 42 42 37 38 41 40 39 33 26 26 26 31 35
15 16 15 21 21 23 25 26 27 28 26 26 24 26 26 25 30 28 28 31 32 29 29 30 33 32 34 39 46 51 47 41 42 42 41 43 31 29 28 26 28 27 28
17 17 19 21 20 23 27 26 23 26 28 28 27 27 25 27 29 31 26 30 28 28 29 30 32 31 29 30 36 44 44 41 39 41 38 40 29 32 41 36 35 34 33
19 19 20 23 22 23 23 26 26 28 25 27 29 30 27 28 29 23 21 24 26 31 32 32 32 33 31 30 31 36 42 42 40 41 38 33 46 46 34 34 36 25 27
21 26 25 24 23 23 24 25 26 24 29 30 32 31 30 31 32 31 29 33 40 34 31 32 33 32 31 31 29 27 32 33 34 37 34 39 35 28 25 28 30 33 37
20 23 24 26 26 26 25 24 28 27 30 32 32 24 27 30 28 29 29 31 35 34 31 32 33 32 31 32 35 34 28 25 21 24 27 25 30 37 33 32 35 33 32
18 20 23 26 27 27 30 27 26 28 29 29 30 31 29 25 19 21 22 30 36 35 34 33 32 33 31 31 32 35 34 29 29 29 29 28 26 26 28 30 32 34 35
17 18 20 24 26 31 31 31 28 27 29 29 32 30 31 33 34 37 39 41 41 38 36 35 33 33 33 31 30 32 36 36 31 31 31 32 31 27 28 31 30 26 27
17 18 21 21 23 24 27 29 31 31 30 32 25 26 30 33 38 42 42 40 38 37 36 34 33 32 31 31 29 30 32 35 36 34 29 30 29 27 23 21 19 21 16
17 18 20 20 22 22 24 26 28 29 31 34 36 38 41 42 40 40 38 37 36 34 34 32 31 29 27 27 26 26 28 27 25 24 23 23 23 19 17 18 16 13 14

GFSGL_850_spd_105.txt.gz
Wind_Speed
20 19 20 19 18 20 22 15 13 15 6 4 9 9 14 11 9 9 11 11 9 9 11 11 11 11 14 11 10 9 11 12 13 17 17 19 16 13 10 13 16 14 16
8 20 22 21 20 21 22 20 17 17 14 10 8 15 11 9 4 5 9 13 7 7 7 15 14 12 13 13 18 16 16 13 15 16 18 15 11 11 15 14 12 11 14
27 21 22 24 21 21 22 24 19 18 18 17 12 17 13 10 12 10 7 7 12 10 6 7 8 9 8 7 10 14 15 16 16 17 19 17 15 15 14 10 8 12 13
15 13 20 25 22 21 22 21 20 17 17 21 21 18 15 15 16 13 11 12 10 14 14 13 10 10 10 11 13 14 14 16 19 21 19 15 13 14 16 17 17 18 14
2 17 16 23 17 22 21 21 22 21 19 17 17 19 18 18 18 17 16 15 14 15 16 15 15 15 14 15 16 18 17 16 16 18 19 18 17 19 20 20 19 21 18
13 14 17 14 23 20 24 24 24 22 23 22 20 19 20 19 19 18 16 16 17 18 17 16 15 16 18 18 19 20 16 17 19 22 23 24 21 19 18 20 21 22 23
15 10 4 10 19 19 18 22 23 27 27 25 24 23 23 22 22 20 19 22 22 22 22 22 21 19 20 19 18 21 25 23 21 21 24 24 25 20 16 17 18 21 22
14 13 12 11 5 1 6 8 9 17 24 26 25 24 24 24 23 24 25 26 27 27 28 29 29 29 28 24 23 27 27 26 24 24 24 23 20 20 19 21 22 25 27
10 9 9 10 10 7 5 3 10 12 13 15 18 23 23 24 25 26 27 27 29 32 32 32 32 32 32 31 32 32 33 33 31 31 32 32 30 27 24 25 27 28 33
4 5 5 5 6 6 7 6 7 4 6 11 11 13 15 19 19 22 22 25 29 32 29 30 31 32 34 33 33 33 36 36 37 37 39 38 37 37 35 34 32 32 32
6 6 5 4 3 4 5 7 8 7 7 8 8 9 12 16 16 16 19 21 23 28 32 32 29 29 29 29 28 28 31 30 32 34 35 35 34 33 32 31 31 30 31
8 9 10 10 9 9 9 9 10 10 10 11 11 10 8 8 10 14 18 16 21 26 28 29 30 32 33 32 28 26 29 32 38 41 42 42 41 40 36 33 33 32 32
11 11 11 10 11 12 12 12 12 12 12 13 17 19 15 12 12 13 14 17 19 22 25 27 31 34 35 35 35 38 39 39 37 36 36 40 42 42 42 40 38 37 39
11 11 11 10 9 8 9 10 11 11 11 12 14 17 23 22 18 18 19 18 21 25 24 26 28 32 35 35 34 31 30 33 40 46 48 47 46 44 44 44 44 43 43
11 11 10 10 11 13 13 14 13 12 12 18 18 21 24 26 23 23 22 22 23 25 26 27 29 31 32 35 35 35 33 33 33 33 35 38 42 47 49 48 47 44 41
12 10 10 11 12 13 14 16 15 17 20 19 18 23 24 26 24 23 24 23 23 25 27 27 29 28 29 29 33 35 36 35 35 35 37 36 36 37 38 39 38 39 39
15 14 14 12 12 13 13 16 20 20 18 21 20 17 22 21 21 24 22 25 26 26 28 28 27 26 26 25 26 27 31 33 36 39 38 36 37 37 35 33 32 33 34
16 15 14 16 18 19 20 22 24 26 26 25 18 20 24 24 24 26 25 31 31 29 28 29 25 25 25 26 23 24 26 28 28 32 35 33 33 34 39 35 33 35 29
18 19 19 21 21 21 22 24 23 25 29 31 31 24 21 25 27 25 28 30 31 28 26 28 27 29 28 28 27 27 25 28 26 26 29 33 32 36 33 32 35 43 43
16 18 21 21 23 25 27 23 23 24 26 29 33 28 27 25 27 26 26 30 26 27 28 30 34 38 37 32 30 28 26 27 27 31 33 30 35 33 33 26 25 34 37
17 18 19 21 23 24 23 24 26 26 26 31 31 30 30 26 27 27 26 26 26 29 29 32 35 39 38 36 33 31 27 28 29 32 29 26 22 26 32 35 39 43 41
20 19 20 22 24 25 24 26 28 28 31 32 34 33 34 34 30 27 26 20 21 24 24 26 33 35 37 37 36 34 32 29 29 32 33 31 28 28 29 28 27 31 31
16 19 21 22 23 25 27 29 30 32 31 32 31 31 28 34 36 33 32 31 30 28 28 31 38 41 41 39 36 33 34 31 31 32 34 34 32 29 29 30 30 29 28
14 21 23 26 28 27 28 28 27 29 32 35 34 33 32 28 30 36 37 36 38 39 40 39 41 46 44 40 37 33 33 32 32 32 33 35 35 34 29 31 33 31 31
15 17 21 27 28 28 29 30 29 28 31 30 31 37 42 41 38 34 38 40 39 40 41 42 41 43 41 36 34 33 32 31 31 30 31 34 32 33 32 31 30 29 26
14 17 21 25 26 30 31 32 31 29 26 28 28 31 33 34 36 40 45 46 45 44 44 42 39 37 34 33 33 31 31 30 29 25 26 28 27 26 26 26 24 23 24

GFSGL_850_spd_108.txt.gz
Wind_Speed
24 24 21 18 16 17 17 14 15 13 11 10 13 15 14 15 12 11 12 15 14 16 16 16 15 15 15 13 10 10 10 11 14 17 17 17 17 14 12 10 13 10 12
23 21 22 22 19 18 19 17 16 13 14 8 10 12 12 13 12 10 12 15 11 11 12 14 14 13 12 13 16 17 16 17 18 20 20 20 14 17 15 13 10 11 14
19 20 15 20 23 21 20 22 21 17 17 16 14 11 14 12 11 10 10 11 15 12 9 9 10 11 11 10 9 9 12 17 19 20 21 21 20 14 12 14 15 15 17
18 13 19 22 24 22 21 20 23 21 19 19 19 18 16 15 15 15 14 13 12 14 13 12 10 10 9 7 8 9 10 13 14 16 19 19 17 13 17 21 20 18 17
6 12 7 9 21 19 23 21 22 22 23 19 17 20 19 19 18 17 17 17 15 16 15 15 16 16 13 12 15 16 15 16 18 18 17 18 17 18 19 20 21 21 17
4 5 4 5 7 13 16 25 25 24 25 23 22 19 20 21 20 19 18 19 17 17 16 14 14 17 17 17 17 17 19 20 19 20 20 21 20 20 19 18 17 20 23
9 5 7 7 14 10 9 20 20 23 28 29 26 24 24 23 22 21 20 20 21 22 22 20 19 19 18 18 19 21 21 19 19 20 24 24 23 18 17 17 18 21 23
9 7 4 7 10 16 12 12 14 20 24 29 27 28 29 27 26 26 25 25 27 26 24 23 25 26 25 25 25 25 24 24 24 25 26 27 26 25 24 25 24 25 28
9 9 9 7 5 5 6 5 12 15 17 13 18 24 30 28 28 29 28 29 28 28 29 29 29 29 28 28 28 31 32 31 28 28 30 31 30 29 29 28 29 30 36
6 5 5 5 5 5 4 4 3 1 2 4 9 13 15 17 17 22 27 28 27 28 28 29 27 26 27 27 26 26 28 28 27 26 26 26 25 26 25 26 26 30 31
1 3 4 4 5 4 3 4 2 1 0 2 4 4 5 9 14 15 15 15 20 22 25 25 27 30 29 28 27 26 27 28 31 32 33 33 31 29 28 26 26 27 28
5 5 4 4 4 6 7 7 7 6 5 3 3 2 4 5 8 7 8 10 17 19 20 22 23 25 26 28 28 27 31 34 34 34 34 34 34 34 33 31 30 29 30
8 7 7 6 5 5 5 6 7 7 7 6 6 6 6 8 11 13 15 13 12 13 18 21 22 24 25 26 27 28 28 31 32 33 35 41 41 39 39 39 38 38 38
8 7 6 6 7 7 7 6 7 7 8 9 10 11 11 13 16 14 16 16 16 17 20 21 20 21 22 25 26 26 25 25 27 31 33 32 31 29 31 32 34 35 38
7 8 8 8 8 8 9 9 9 8 10 13 12 13 14 17 16 17 18 18 19 19 20 21 21 22 22 22 20 19 19 21 25 28 29 30 30 29 30 27 29 31 33
8 8 9 10 10 10 11 11 11 14 14 15 17 18 17 17 17 17 17 18 19 21 23 22 22 22 22 21 20 20 19 19 19 21 25 29 32 32 32 32 31 32 34
10 10 10 10 12 14 16 19 21 14 14 15 16 18 21 21 21 20 19 20 20 23 26 26 25 24 22 21 20 19 20 18 17 18 20 24 26 29 30 31 31 31 34
9 11 12 13 15 16 18 19 20 24 26 25 19 20 17 17 22 25 25 24 24 26 26 26 26 25 22 20 22 25 25 26 23 21 24 24 23 27 30 31 31 34 36
10 12 13 15 17 19 21 22 23 24 25 27 27 26 21 21 24 23 25 27 28 29 27 24 25 25 25 27 29 30 31 30 29 27 23 24 26 28 31 34 33 34 34
9 11 13 15 17 20 22 24 26 28 30 32 31 30 29 28 27 26 24 28 28 27 23 22 26 27 28 29 30 33 34 33 32 32 30 26 27 27 28 28 28 32 33
10 13 13 15 18 20 23 25 27 29 31 34 35 31 29 30 30 29 27 28 26 22 22 24 28 29 27 31 29 31 34 35 34 34 35 33 31 30 31 28 31 33 31
12 13 14 15 17 20 22 23 26 28 30 33 36 37 35 33 33 30 25 29 29 26 28 28 26 26 28 29 30 33 36 39 39 38 36 36 35 32 32 33 31 32 32
14 15 15 16 18 21 24 24 25 25 27 30 33 37 37 37 31 34 30 28 31 31 36 38 39 37 36 35 32 33 41 44 44 43 39 37 38 35 34 34 35 34 34
15 17 17 17 20 24 26 28 29 28 28 29 29 31 32 31 34 41 41 41 37 35 32 37 39 40 40 39 35 34 42 45 46 45 40 36 37 37 35 35 35 36 37
16 18 16 16 19 25 28 30 33 29 30 33 32 27 28 30 30 32 34 41 48 50 49 47 45 43 41 40 38 36 42 45 42 43 37 36 35 36 36 35 36 36 37
19 18 15 15 17 25 29 27 33 32 33 35 29 28 29 27 29 30 31 30 32 36 39 41 39 37 36 36 37 40 38 35 34 32 31 33 34 35 36 35 34 34 34

GFSGL_850_spd_111.txt.gz
Wind_Speed
27 22 19 17 16 13 16 16 14 12 11 13 13 14 16 13 13 13 12 12 14 13 13 14 14 14 12 12 12 11 13 15 16 16 18 17 18 18 13 13 12 12 14
25 23 21 19 18 18 18 17 14 12 13 8 8 9 13 14 14 11 11 11 12 11 12 14 16 15 13 12 13 13 14 16 17 20 22 23 21 18 15 11 14 17 19
24 20 20 20 22 21 19 17 17 14 13 12 10 10 12 12 13 11 9 9 12 13 10 10 10 10 10 9 7 7 7 9 11 15 18 18 18 15 13 13 16 16 17
13 14 20 20 22 25 24 20 18 17 16 14 14 15 14 15 12 12 11 10 10 11 14 13 11 9 8 8 7 5 10 12 11 13 15 15 15 14 15 17 15 14 14
22 19 15 14 18 22 24 21 18 19 19 18 16 15 17 17 17 15 15 16 15 14 14 12 12 11 12 13 14 10 13 15 15 17 16 17 16 15 16 17 15 14 14
15 14 11 7 6 10 20 17 16 17 19 19 20 19 16 18 19 18 18 18 17 18 17 15 14 14 14 15 16 16 17 18 19 18 20 20 18 18 17 17 17 20 21
11 9 7 7 6 5 4 9 13 16 19 18 21 20 22 20 21 21 21 21 21 20 20 20 19 18 17 17 17 18 18 18 20 22 24 22 23 21 21 21 21 22 22
10 6 4 3 3 7 9 8 7 10 19 19 22 23 23 23 25 26 25 25 25 24 23 23 23 21 21 22 23 24 24 23 23 24 26 27 27 26 26 25 25 27 26
11 9 8 7 4 2 2 7 6 9 8 11 14 15 18 22 27 29 30 31 29 28 27 26 27 27 26 26 27 29 29 29 28 27 28 28 27 25 25 25 27 28 29
6 5 5 4 4 5 5 3 2 2 1 4 12 17 22 22 19 16 19 24 27 27 26 28 27 26 26 25 25 25 28 28 29 29 28 27 27 26 24 25 25 26 27
0 1 1 2 2 1 2 2 2 3 1 1 2 1 0 2 5 5 6 9 11 14 14 16 18 20 21 22 22 24 26 28 29 29 30 31 31 30 28 27 26 26 27
5 5 5 5 7 6 6 6 5 5 4 6 8 8 4 1 3 6 7 8 8 11 14 16 16 16 17 18 20 21 22 23 24 28 30 32 33 33 31 32 30 30 31
7 7 7 7 8 9 8 8 7 8 8 8 8 7 6 7 7 7 8 9 9 11 14 15 15 16 17 18 19 20 20 22 24 26 28 30 28 27 27 27 25 26 29
5 5 5 6 7 9 9 9 10 10 9 9 10 10 10 10 12 12 12 13 14 15 15 15 16 18 19 19 19 20 20 21 22 25 27 28 29 29 29 28 29 29 30
4 4 4 5 6 7 7 8 8 7 9 10 11 12 13 14 13 13 17 18 18 18 20 19 17 18 18 19 20 19 19 20 20 21 22 24 25 27 29 29 29 29 31
3 4 4 4 4 6 7 6 8 8 9 12 13 15 14 14 17 17 18 20 21 22 23 23 21 21 21 21 21 20 19 19 20 22 22 21 20 21 24 25 26 28 31
4 4 5 6 7 9 10 11 11 7 10 11 12 13 16 19 20 21 22 24 24 23 23 25 27 26 25 22 22 20 18 18 20 24 25 25 26 24 23 25 25 27 30
5 6 6 7 9 11 13 14 16 18 18 17 16 17 16 18 20 23 24 24 25 26 27 27 30 29 27 25 24 23 23 24 24 25 27 28 28 29 28 27 26 30 30
3 4 5 8 10 12 14 16 18 20 21 24 25 23 22 24 24 23 21 22 26 27 27 26 25 26 26 25 25 26 27 26 29 31 31 31 31 32 32 31 30 27 28
3 5 6 7 9 12 15 18 21 23 25 27 28 29 30 31 30 28 26 24 22 20 22 24 21 20 22 23 27 30 30 29 30 32 32 32 34 35 36 36 38 34 34
5 4 6 9 11 14 17 20 23 26 29 31 32 32 31 32 34 33 31 28 24 22 23 22 22 24 24 25 27 29 30 33 30 32 32 35 38 39 40 40 40 38 36
6 6 7 9 11 14 17 20 24 27 30 33 35 36 36 36 37 36 33 29 25 23 26 27 29 34 33 31 31 31 32 34 36 36 35 38 40 43 43 44 43 41 39
7 7 7 9 11 14 18 22 25 28 30 32 33 35 36 35 35 37 38 36 31 33 31 33 37 37 35 37 37 36 37 38 39 40 41 40 42 45 48 48 46 44 42
8 8 9 10 11 13 16 21 24 26 29 34 36 36 36 36 36 35 35 33 32 32 27 30 37 45 45 44 44 43 42 41 41 43 41 40 44 47 50 51 48 45 41
9 9 11 11 12 13 16 20 24 26 29 33 38 38 36 35 34 33 31 31 32 32 32 30 30 34 38 42 43 42 40 38 37 38 38 39 38 45 47 46 46 44 41
10 9 12 13 12 13 14 17 21 26 30 31 36 36 33 31 30 30 29 29 28 30 32 32 33 34 34 33 31 31 34 35 36 36 36 36 39 42 44 42 41 40 39

GFSGL_850_spd_114.txt.gz
Wind_Speed
23 21 19 14 13 11 9 17 14 12 11 12 12 11 11 11 10 12 14 12 13 13 12 12 11 11 11 11 12 11 12 13 14 17 18 20 20 16 14 13 14 16 18
21 21 20 16 15 13 12 9 10 11 12 13 11 13 12 13 13 13 12 13 11 11 11 11 11 12 13 14 13 11 10 10 12 15 15 14 13 13 13 13 13 16 19
22 20 20 17 16 17 15 15 14 13 11 11 11 6 7 9 10 13 12 12 11 10 11 9 8 9 10 10 9 7 6 7 10 13 14 13 13 13 13 12 13 12 14
22 20 15 13 14 16 17 18 17 16 15 13 11 10 8 8 10 11 11 10 9 8 9 12 11 10 8 7 8 8 7 10 12 13 15 14 14 14 16 17 14 12 12
15 18 8 7 10 14 17 18 20 17 16 16 15 13 11 13 12 15 13 12 13 12 12 10 11 11 11 11 12 11 12 13 13 15 16 18 17 15 15 16 16 16 15
26 22 11 9 9 8 15 15 20 19 18 17 17 18 17 15 16 15 16 16 15 15 15 14 15 14 13 14 14 13 14 15 16 17 18 20 20 20 20 20 20 22 23
21 20 19 11 9 7 9 10 14 14 15 18 17 16 17 18 17 17 18 18 18 18 18 18 17 17 17 17 17 16 16 16 17 19 21 21 23 23 25 25 25 26 27
18 16 13 8 6 9 8 7 7 6 6 11 14 13 11 15 18 19 19 18 20 20 20 20 21 20 20 20 20 21 21 21 21 22 24 25 26 26 26 26 27 28 29
18 15 11 9 7 6 6 6 5 6 6 4 8 6 3 6 11 15 21 22 22 24 24 25 25 24 25 24 25 26 27 26 25 26 26 26 25 24 23 25 25 25 29
13 12 10 8 7 6 5 3 3 2 3 3 4 5 6 6 7 11 12 12 12 15 22 22 24 26 26 25 25 25 27 27 27 27 26 25 24 24 22 25 26 27 27
8 6 5 5 5 4 4 3 3 2 2 1 1 2 4 6 7 4 4 4 4 5 8 12 17 17 17 18 18 18 20 23 23 25 27 27 25 24 25 26 26 27 28
3 3 3 3 2 1 1 1 1 1 1 2 1 1 0 2 6 11 14 12 12 11 11 10 11 13 16 16 17 18 19 20 21 22 24 25 25 26 26 25 25 24 24
2 3 3 2 2 2 3 4 4 5 5 4 5 4 3 6 9 9 9 10 12 13 13 13 14 14 15 15 16 18 20 21 22 23 25 26 26 27 26 26 26 26 27
2 2 2 2 3 4 4 5 6 6 7 7 8 8 8 9 10 12 12 14 15 16 17 16 16 17 16 16 17 17 18 20 21 22 23 24 24 24 25 24 26 26 28
1 2 1 1 1 2 3 4 5 6 6 7 8 10 11 12 12 13 14 15 16 18 20 20 20 19 19 19 19 19 18 19 20 21 22 23 24 25 26 22 22 24 24
1 1 1 1 0 0 0 2 3 4 6 7 9 10 11 15 17 17 18 20 21 23 23 25 24 23 23 23 23 21 21 19 18 19 20 21 22 23 24 24 23 19 24
2 2 2 2 2 2 2 2 1 2 3 6 8 11 13 15 17 19 21 23 23 24 25 27 28 28 27 27 27 26 25 24 23 23 24 24 25 25 26 25 26 26 28
2 2 2 3 4 5 6 6 7 7 6 7 8 9 12 15 16 19 21 23 23 22 24 26 28 27 27 27 27 26 24 24 25 26 28 28 29 30 30 28 28 28 28
3 1 0 1 3 5 6 8 9 11 12 13 12 13 17 18 19 19 20 21 21 22 22 22 22 24 23 22 21 23 25 25 25 27 27 29 32 33 32 31 31 31 32
4 3 2 1 2 4 5 8 11 13 16 18 21 24 25 26 25 25 24 23 24 23 21 22 22 21 20 22 24 27 29 28 27 27 28 28 30 31 33 35 37 37 36
6 4 3 2 3 5 7 10 13 16 18 20 22 24 27 29 30 31 30 28 25 23 24 23 21 25 27 30 30 30 32 34 33 30 30 31 31 35 37 37 39 41 42
9 7 5 5 5 5 7 10 13 16 19 22 25 28 30 32 33 32 31 30 29 29 25 26 29 28 29 33 35 36 38 38 39 38 37 37 37 38 39 40 42 44 47
10 9 8 6 6 7 9 12 15 18 21 25 28 30 33 35 35 34 34 33 31 30 27 28 28 28 30 33 39 41 43 44 44 45 46 45 44 44 43 44 44 44 45
11 10 9 8 9 10 10 12 14 18 23 26 28 30 34 37 36 36 35 34 32 30 29 27 27 26 25 26 27 29 34 40 45 50 51 49 46 44 44 44 45 43 43
11 10 9 10 11 11 11 12 14 18 22 25 27 29 32 36 35 35 36 34 32 29 28 28 28 28 28 27 28 30 33 33 32 33 35 38 41 43 44 44 44 43 43
13 11 9 10 12 12 12 12 15 19 20 23 26 29 31 35 35 34 34 32 30 29 29 29 29 28 28 29 31 31 31 31 31 30 30 33 37 40 41 43 43 43 44

GFSGL_850_spd_117.txt.gz
Wind_Speed
23 19 16 16 12 10 9 11 14 12 11 11 10 10 11 10 10 11 13 13 12 13 13 12 13 12 10 10 11 12 11 11 10 12 16 15 15 14 12 12 14 15 16
20 21 19 17 14 11 11 5 15 12 11 10 11 13 14 14 14 12 11 13 14 13 13 13 13 14 13 13 12 12 10 10 8 11 12 12 12 12 13 13 14 13 14
22 22 20 19 17 14 12 10 9 12 12 10 12 11 12 13 14 13 12 12 12 12 12 12 10 11 11 10 10 9 8 8 9 11 11 13 13 13 14 14 13 11 10
24 26 22 21 19 16 16 15 14 14 13 11 12 11 9 8 9 9 11 11 12 11 10 11 12 11 9 9 9 10 10 10 11 11 11 12 13 14 14 14 14 13 14
25 23 21 17 17 17 16 16 17 16 16 14 15 14 13 12 11 10 11 12 12 12 11 11 10 11 11 12 12 12 12 14 12 12 13 13 13 13 14 17 16 18 18
16 18 16 10 6 9 14 18 16 18 18 16 16 16 16 15 14 15 15 16 16 14 14 13 13 13 14 14 15 15 15 15 15 14 13 14 18 18 17 19 19 17 19
12 17 16 13 8 6 7 13 17 17 17 17 16 17 18 19 19 16 16 17 18 17 16 16 16 13 16 17 17 17 17 17 18 19 22 21 22 22 24 25 22 23 22
7 9 12 16 14 10 7 8 12 12 12 12 13 15 17 18 19 18 16 16 16 17 17 17 17 17 19 18 19 20 20 21 21 22 24 25 25 26 25 24 25 25 26
18 15 12 10 10 9 7 8 9 8 7 6 6 6 6 9 10 10 11 12 15 18 19 20 20 21 23 23 22 23 24 24 23 24 25 25 24 24 23 24 20 19 22
14 14 12 10 6 7 8 7 7 7 7 7 6 6 7 5 3 4 6 7 9 9 11 14 16 19 20 21 22 23 24 23 25 24 25 25 25 25 24 26 26 22 23
11 9 8 9 8 7 7 7 6 6 5 5 6 7 7 7 6 7 4 6 7 8 8 8 8 10 11 13 14 14 16 19 18 20 22 22 22 20 18 19 24 25 23
11 11 9 8 8 8 7 6 6 6 6 7 7 5 4 5 5 4 3 3 4 4 6 10 12 13 12 12 14 15 16 18 21 21 20 17 17 17 16 20 22 23 25
8 8 8 7 7 7 7 7 7 7 7 7 7 6 5 4 4 4 5 6 6 7 8 9 11 13 13 14 14 16 17 18 18 18 16 19 19 17 19 17 18 17 20
6 6 5 5 5 5 5 6 6 6 6 6 6 6 6 7 9 10 11 12 13 14 13 13 14 15 15 16 16 17 18 19 20 19 20 21 21 20 18 18 19 19 18
4 4 4 4 3 3 2 2 2 2 3 4 5 6 7 10 12 14 15 15 16 17 18 19 21 20 19 20 20 20 19 19 19 20 20 20 20 21 20 20 20 21 18
5 5 4 3 2 2 1 0 1 1 1 3 4 6 9 10 11 11 13 16 17 18 18 21 21 20 20 22 22 19 15 19 23 22 22 23 23 23 23 22 22 21 21
6 6 6 5 5 5 4 3 1 1 2 4 5 6 7 10 12 15 15 15 17 18 19 17 18 18 19 19 17 17 17 18 22 22 23 24 24 25 27 27 25 24 23
4 4 4 5 5 5 6 6 6 4 2 2 4 6 8 10 12 13 14 15 16 17 17 20 19 14 16 18 20 21 22 22 22 24 25 25 24 24 23 20 20 20 20
5 5 6 5 5 5 5 4 3 3 3 4 6 8 9 11 13 15 17 17 16 15 14 14 15 15 17 17 19 23 23 24 24 25 22 20 26 27 27 26 25 28 31
7 6 5 5 5 3 2 2 3 4 6 8 10 12 15 17 17 18 19 19 18 18 18 21 22 21 20 20 21 21 21 20 21 21 23 24 26 29 30 31 29 28 31
8 7 7 6 5 3 2 1 3 5 7 9 12 15 19 19 20 21 21 21 20 19 21 21 22 24 25 28 27 29 32 30 29 26 27 27 29 33 35 36 37 37 36
10 9 9 8 7 6 4 2 2 4 7 10 12 16 21 19 20 22 22 23 23 24 22 22 22 21 21 24 29 32 33 34 35 37 39 39 39 41 42 47 47 45 44
12 11 10 9 8 7 6 4 3 4 7 10 11 13 14 16 19 21 24 24 26 27 26 25 26 23 21 23 23 25 33 35 34 37 38 40 42 43 43 45 47 48 47
15 13 12 11 9 8 7 7 6 7 8 8 8 11 14 17 19 23 26 27 28 27 26 27 26 25 25 24 25 26 25 26 27 28 31 36 39 40 40 39 39 39 41
19 16 14 12 11 9 9 9 8 8 10 12 14 17 20 23 26 28 31 33 32 31 30 29 28 26 25 24 24 24 26 27 29 32 34 35 36 36 36 37 38 39 41
22 18 14 13 12 11 11 11 11 10 11 13 15 18 21 24 25 27 29 30 32 31 29 28 27 26 25 24 23 24 25 24 25 26 27 30 31 32 32 34 34 36 37

GFSGL_850_spd_123.txt.gz
Wind_Speed
16 15 13 12 11 11 9 9 9 11 12 12 11 11 12 11 10 10 12 5 6 8 9 8 8 9 9 10 9 8 11 12 13 15 14 13 13 11 11 17 12 15 15
17 17 16 15 13 11 10 10 8 13 15 14 11 11 11 11 11 11 9 9 9 9 8 8 10 9 9 10 10 11 11 13 9 11 12 13 11 15 8 17 11 10 11
18 18 17 16 14 14 11 11 9 12 13 12 14 14 13 12 12 12 11 9 9 9 9 9 9 9 9 10 12 10 10 9 8 11 12 11 13 11 13 13 8 16 13
20 21 20 17 16 15 13 12 10 10 13 12 14 13 11 10 11 11 11 10 10 9 9 9 10 9 10 11 7 8 9 8 10 12 13 14 12 10 7 14 14 13 15
20 20 23 22 18 16 16 15 12 12 12 10 11 10 11 10 10 11 10 10 10 9 10 9 10 9 13 13 12 10 13 9 12 13 13 14 14 14 15 15 17 16 17
21 23 22 22 18 16 16 15 14 13 14 14 13 11 10 11 13 14 13 10 10 10 10 9 10 13 14 11 11 12 13 15 15 13 13 15 17 15 14 15 16 18 18
17 17 21 18 17 18 17 18 19 17 16 17 16 15 14 19 17 17 15 15 12 10 14 11 8 10 9 10 11 12 14 12 14 16 19 18 17 17 19 22 19 21 21
22 20 19 21 17 14 10 11 15 18 17 18 17 16 19 19 17 17 17 15 13 14 14 12 15 20 17 18 18 17 13 13 16 15 18 19 20 22 24 24 26 24 21
18 17 16 15 16 15 15 13 10 10 15 16 17 17 18 17 17 15 11 9 11 12 15 15 17 16 17 19 19 16 15 15 15 20 22 22 21 22 21 20 17 19 19
15 13 11 12 13 13 12 12 14 15 11 14 15 15 13 9 7 5 8 3 3 1 7 8 9 11 11 14 14 13 13 13 18 19 17 17 16 15 15 16 17 16 17
13 9 9 9 9 10 10 10 11 10 14 11 11 9 4 4 4 4 6 6 4 2 2 1 7 5 7 8 10 11 12 13 14 14 13 12 11 10 10 9 9 12 16
11 9 8 8 11 9 9 10 12 11 9 6 4 4 8 7 6 5 4 4 4 3 1 4 7 8 8 10 11 11 11 12 10 11 11 11 10 11 12 17 19 19 17
11 11 11 12 9 10 10 10 11 10 6 7 7 6 6 6 2 5 3 2 2 4 6 7 9 12 13 12 14 15 15 10 7 8 8 11 11 15 17 15 16 16 17
9 9 9 10 10 10 11 11 10 14 14 9 9 7 5 3 2 2 4 5 6 6 10 10 11 11 11 14 12 10 11 12 12 12 11 15 12 12 14 13 15 17 17
8 7 7 7 8 10 10 11 10 9 10 10 12 12 10 7 6 6 6 5 6 7 7 5 6 6 7 7 8 9 11 10 9 11 12 12 13 13 14 14 15 17 17
4 6 7 7 6 4 5 8 8 8 8 8 7 4 4 4 4 4 5 6 7 7 7 6 5 6 7 9 8 9 9 9 10 11 12 13 13 14 15 16 16 17 18
8 7 8 9 7 6 5 5 6 7 6 5 3 1 1 1 3 5 6 7 7 6 9 7 8 8 7 8 10 12 12 14 18 14 15 15 16 17 17 17 17 17 19
7 10 5 5 7 7 7 5 4 3 3 5 5 4 3 3 3 3 4 6 6 6 3 3 5 7 9 10 10 10 11 9 12 12 14 16 15 16 17 18 18 19 20
8 6 6 5 6 7 7 6 6 6 6 4 2 3 4 4 5 5 5 5 5 5 6 6 7 8 9 11 12 15 17 15 18 17 17 17 17 18 18 19 20 21 23
8 11 8 7 7 6 6 7 6 6 6 5 4 1 2 5 4 5 5 5 5 6 8 9 10 12 13 13 13 14 15 17 19 20 18 18 20 21 21 23 22 23 26
10 10 13 9 8 8 8 8 8 7 6 5 5 3 2 5 1 2 3 4 5 6 9 10 13 13 13 15 15 16 16 17 17 17 18 19 19 21 23 24 24 25 26
11 10 12 10 11 11 9 9 8 7 7 5 4 7 6 2 1 2 3 4 5 7 7 10 11 13 16 17 18 17 17 17 18 18 21 24 25 25 24 27 29 28 31
12 11 12 13 12 13 12 10 9 8 8 7 6 6 4 4 4 4 4 5 6 6 7 8 10 13 17 19 20 19 20 19 21 26 28 29 28 30 31 32 28 28 29
14 16 15 15 14 13 12 12 12 12 11 10 9 8 8 8 7 7 7 8 9 9 10 10 11 15 19 21 20 19 20 23 24 27 28 31 32 30 28 28 29 29 29
25 18 17 18 17 17 15 14 13 13 12 12 10 10 10 10 9 9 10 11 12 12 12 13 13 13 18 20 21 21 21 22 23 24 25 26 27 28 28 28 28 27 28
25 30 25 22 17 16 15 16 15 15 14 13 13 12 11 11 11 12 12 13 13 13 15 14 14 17 21 21 21 22 23 22 23 23 25 26 27 27 27 26 26 27 30

GFSGL_850_spd_129.txt.gz
Wind_Speed
19 19 17 17 20 17 16 17 18 13 10 10 9 10 10 10 12 10 5 10 1 3 4 9 10 9 10 3 3 2 4 5 7 3 6 10 12 10 5 8 13 17 19
21 18 17 16 16 14 13 18 20 16 14 12 9 14 12 11 12 5 7 4 7 3 0 1 1 2 4 4 5 4 2 2 3 7 11 14 14 6 11 10 10 11 15
23 22 16 13 17 15 12 13 15 17 17 17 15 14 17 15 11 8 9 4 6 5 3 4 4 4 5 6 5 5 2 3 2 4 8 6 10 10 5 7 7 8 10
27 27 25 21 21 18 16 13 13 12 13 18 18 15 15 13 14 11 11 9 8 9 5 6 4 5 9 6 6 6 4 4 5 6 9 9 9 10 10 12 13 13 13
21 30 25 23 20 21 22 18 17 16 13 14 16 14 14 15 13 12 12 11 6 4 4 4 3 4 6 7 9 8 6 6 6 6 7 9 11 14 16 16 17 18 16
22 31 18 22 25 24 24 22 20 17 13 12 15 11 13 15 11 9 8 8 6 6 5 10 9 6 7 8 7 5 6 5 6 8 10 12 11 15 14 18 20 22 22
16 17 22 21 27 25 24 25 23 21 18 14 14 15 15 15 12 10 8 9 8 9 7 10 9 8 8 6 5 5 5 9 12 14 15 13 16 17 17 18 17 16 15
20 22 22 23 24 23 25 26 23 20 20 18 19 19 19 17 15 11 10 11 13 12 11 9 9 10 11 10 9 9 10 11 12 13 14 14 14 12 10 11 11 13 12
10 8 8 7 11 11 14 20 19 21 20 20 19 19 17 15 15 14 13 13 12 12 11 12 13 12 11 11 10 9 6 5 6 6 5 4 3 5 6 7 10 11 12
4 2 2 2 5 7 4 4 17 19 15 18 18 16 16 14 13 12 9 11 11 9 8 4 2 3 3 3 2 2 3 4 4 6 5 5 9 8 8 6 7 11 14
5 4 5 6 6 7 7 2 5 17 17 16 16 16 13 12 11 9 11 12 12 11 8 6 4 2 2 3 3 3 4 4 3 1 2 3 3 4 6 7 7 8 10
6 6 5 4 4 5 4 3 6 4 10 10 14 18 15 14 12 13 16 15 12 8 4 0 1 2 4 4 4 5 4 2 1 2 4 6 7 8 8 8 7 9 8
10 6 5 5 6 9 11 12 12 10 7 8 8 9 10 7 9 9 8 8 8 5 3 2 2 4 8 7 4 1 3 3 3 3 4 5 7 9 14 16 12 12 14
12 11 10 7 8 10 9 8 8 9 10 9 6 6 8 3 2 5 2 7 4 4 4 7 10 9 10 7 4 1 3 4 4 4 5 7 10 12 13 15 17 18 18
11 10 8 7 6 6 6 6 9 9 9 6 5 3 5 6 3 5 1 3 5 6 12 12 12 10 9 6 5 6 9 9 9 10 12 14 16 16 14 14 16 17 17
13 12 12 10 11 10 4 3 6 7 7 6 5 4 4 3 5 3 3 7 9 11 13 10 9 8 7 3 4 4 6 7 8 10 11 14 16 17 18 18 19 19 21
11 11 7 5 4 6 12 11 2 3 5 5 5 5 4 3 5 7 9 10 9 7 6 5 5 5 5 6 7 8 9 12 13 13 16 18 19 19 20 21 21 23 25
10 9 8 8 5 4 5 7 10 4 2 3 4 6 7 7 9 11 11 9 7 6 6 5 5 4 4 5 7 9 10 12 14 15 15 17 18 19 21 22 23 23 26
10 10 9 7 11 5 5 3 1 1 5 3 2 6 7 7 7 10 10 9 7 4 2 2 3 4 6 7 7 9 11 13 16 18 19 19 20 21 22 23 25 26 27
10 13 9 11 11 11 11 10 6 5 4 2 3 5 5 6 3 4 6 7 6 4 3 2 3 4 4 6 7 9 11 12 14 17 18 19 20 20 22 22 22 23 24
13 14 13 11 8 6 7 9 10 12 6 5 4 3 5 5 6 3 6 4 4 4 3 4 4 5 5 7 9 11 12 14 15 16 18 20 22 23 23 24 24 24 23
13 11 9 12 10 8 12 14 19 14 9 13 13 11 8 10 9 9 7 7 7 8 7 6 6 6 6 8 10 12 14 15 16 18 19 19 20 21 23 23 24 24 24
12 10 8 11 16 13 13 14 12 15 14 14 14 11 9 8 14 10 8 8 9 9 9 11 12 12 13 12 13 14 15 17 18 20 20 20 20 21 21 22 22 22 22
17 12 17 11 17 13 14 17 19 14 15 10 12 12 9 8 13 11 11 9 9 10 12 13 14 14 18 16 20 18 17 17 18 19 19 19 19 19 19 19 19 21 22
23 19 16 13 15 17 17 17 15 22 18 19 12 10 12 13 14 13 12 13 13 13 14 14 15 17 21 19 25 18 17 19 19 18 18 18 18 18 18 18 19 21 21
18 25 21 20 20 19 16 16 19 18 17 17 16 19 17 16 15 16 16 14 15 14 14 15 16 19 20 22 27 18 19 23 21 19 18 18 18 19 18 17 16 19 20

GFSGL_850_spd_132.txt.gz
Wind_Speed
21 21 21 19 20 20 19 16 20 17 16 11 14 14 14 14 12 8 6 10 5 5 3 7 7 6 7 8 5 4 4 3 4 9 9 7 8 6 4 3 5 7 7
19 21 20 18 19 20 17 17 17 18 14 12 12 12 13 14 12 10 8 5 11 4 2 2 2 1 2 4 4 6 5 3 3 4 4 8 8 7 7 5 4 7 8
21 20 19 17 18 19 15 12 17 20 16 15 15 15 16 16 16 16 10 8 11 8 4 5 3 3 3 4 3 4 3 5 6 8 4 4 4 4 6 8 9 8 8
20 22 23 17 17 19 17 14 15 17 20 19 19 17 16 19 18 17 14 13 11 10 8 6 7 4 5 4 2 2 2 4 7 8 7 7 7 8 9 9 7 10 9
28 26 27 23 22 19 17 16 15 17 17 16 18 21 18 19 20 20 16 14 13 14 14 11 8 8 7 9 6 5 5 6 6 7 6 8 8 9 8 12 13 12 8
35 28 28 27 26 26 23 19 20 19 18 17 16 19 18 20 20 17 15 14 14 16 12 15 12 10 10 8 8 6 6 6 6 5 7 8 6 8 10 10 12 13 13
27 23 19 23 21 27 27 25 23 23 22 18 16 17 19 19 19 17 14 13 11 11 12 12 14 11 11 5 5 6 7 9 10 10 9 9 9 10 10 8 7 7 9
26 25 30 26 20 20 24 24 26 24 22 23 20 20 21 20 18 17 14 12 14 13 11 11 12 10 7 8 9 9 11 11 12 12 11 9 8 6 6 5 6 7 5
23 34 30 22 25 26 27 29 28 24 24 23 23 21 22 21 20 20 16 14 14 15 14 11 9 9 10 11 10 9 8 5 4 4 3 3 4 5 5 4 3 4 6
9 8 8 9 8 9 6 7 9 13 17 21 28 27 25 24 19 13 13 14 15 13 11 9 7 7 7 7 7 8 8 9 10 10 10 8 6 4 3 0 3 7 9
9 8 6 7 7 6 6 4 3 8 13 14 13 14 15 15 12 8 11 16 15 14 11 10 8 8 7 8 8 8 8 9 10 8 6 4 3 2 2 3 4 6 6
8 6 6 6 5 5 4 4 3 5 9 15 15 14 14 15 14 15 17 21 18 15 13 9 8 8 8 7 6 5 4 4 5 7 8 7 5 4 4 6 6 5 7
9 10 9 9 7 9 9 10 9 7 4 4 6 8 9 11 16 19 18 17 15 13 11 10 11 10 9 9 7 5 4 4 5 5 3 3 5 7 9 10 9 7 8
9 10 9 7 9 9 9 9 8 8 6 5 5 5 5 6 9 12 11 11 12 12 13 13 15 13 10 8 6 3 1 1 1 1 3 6 9 12 15 15 15 14 14
10 10 10 10 10 9 8 8 8 8 6 4 5 4 7 6 4 2 3 1 7 13 7 8 14 17 13 9 6 3 3 3 5 5 6 7 10 12 14 16 18 19 20
8 9 9 7 6 7 8 7 10 9 6 4 4 4 3 1 0 3 6 8 12 14 18 19 18 15 11 7 6 4 4 6 8 11 13 14 15 16 18 18 19 19 20
6 8 8 7 10 14 10 7 4 5 4 5 5 6 5 4 3 6 8 11 11 10 11 11 9 8 6 5 6 6 7 8 9 10 11 11 12 13 15 17 19 20 21
9 8 8 9 10 10 8 9 9 7 7 2 4 5 6 7 6 7 8 8 7 7 6 6 5 4 3 4 5 5 7 9 10 12 13 15 16 17 18 20 22 23 24
10 8 8 7 7 6 8 7 5 4 6 6 5 2 5 8 8 8 6 5 3 2 1 2 2 2 3 4 6 6 7 9 11 12 13 14 15 17 18 18 19 19 20
11 11 8 5 7 4 5 4 2 4 4 4 8 10 6 6 8 9 7 7 6 5 4 3 3 2 1 3 4 6 7 8 9 11 13 15 16 17 18 18 19 20 21
12 13 11 7 10 11 11 7 5 12 10 4 5 2 3 4 6 4 2 3 4 3 3 3 2 3 3 4 6 8 8 9 11 12 14 15 16 18 19 20 21 21 21
17 17 16 13 12 11 11 10 6 8 9 11 11 7 5 6 9 8 6 6 4 5 5 5 5 5 7 9 9 10 11 11 11 13 14 14 16 17 19 20 21 21 20
15 16 15 9 11 13 10 13 13 13 14 11 11 14 11 9 10 12 10 8 7 7 7 6 8 8 12 10 11 13 12 12 14 15 15 15 16 18 20 21 21 21 20
19 19 16 12 8 14 16 12 13 15 13 16 13 15 15 14 12 15 14 11 10 10 8 7 8 11 13 15 13 21 15 15 17 17 16 16 17 19 20 22 22 19 15
19 22 19 15 16 12 16 16 13 14 16 15 13 13 17 15 17 18 15 13 12 13 11 10 11 12 14 15 16 20 22 17 18 19 18 17 18 18 19 21 20 13 15
21 23 23 20 18 20 19 17 19 15 14 14 18 15 13 14 16 18 18 15 15 15 14 13 14 13 15 13 15 17 20 17 17 19 19 19 18 17 18 19 16 14 13

GFSGL_850_spd_135.txt.gz
Wind_Speed
21 21 23 24 23 21 22 21 18 18 18 15 14 16 16 16 14 13 9 9 12 12 10 9 8 7 5 5 4 3 2 2 2 5 7 7 5 3 4 1 3 4 5
20 19 21 21 21 20 21 19 19 18 19 17 15 14 15 16 16 15 11 11 13 10 8 5 5 5 4 3 5 5 6 5 4 3 3 3 5 5 3 2 5 8 7
24 20 20 21 21 20 19 18 18 17 18 17 15 16 15 17 18 17 15 14 10 14 12 12 6 7 6 4 5 4 4 4 5 5 6 5 4 5 7 10 6 6 6
25 22 19 20 21 18 17 17 16 16 18 20 17 17 17 19 21 20 22 18 13 14 15 9 11 11 9 7 6 4 3 5 6 6 5 7 7 8 9 7 4 6 5
25 24 20 22 21 19 17 17 17 16 17 19 19 20 20 19 20 21 20 19 18 16 16 15 14 14 11 9 7 6 7 6 6 6 5 5 5 5 6 7 8 8 4
30 30 26 24 25 23 20 17 17 18 16 17 18 20 21 23 22 22 21 20 19 17 18 18 16 12 11 10 10 9 6 6 6 5 7 7 6 7 8 8 8 6 5
24 27 28 26 23 24 23 20 19 20 20 20 21 20 18 23 23 20 19 20 20 18 19 17 17 16 12 11 8 7 7 8 9 11 10 10 10 10 10 7 4 4 3
14 16 23 24 14 20 16 10 17 20 19 22 22 22 20 23 22 20 21 21 18 20 16 17 13 12 13 12 12 10 10 11 12 13 12 12 11 8 5 3 3 3 2
12 17 22 16 20 19 16 14 16 20 25 25 26 24 22 20 19 18 20 18 18 17 16 12 12 14 14 13 12 12 13 12 10 7 6 5 5 5 5 5 3 2 2
13 18 20 24 12 19 25 27 28 28 30 29 29 29 27 28 24 15 12 20 18 17 16 17 16 15 14 14 12 11 11 8 6 5 6 4 3 1 1 2 3 6 7
10 14 21 16 13 13 14 14 13 14 14 13 12 14 21 27 30 27 20 15 18 17 14 13 13 13 12 11 10 10 10 12 11 10 8 5 4 2 2 4 5 6 9
11 11 11 12 12 12 9 8 6 4 9 13 15 15 12 15 19 22 18 14 14 14 14 15 15 15 14 12 11 11 11 10 9 8 8 7 5 3 2 6 9 9 10
9 10 10 8 8 7 5 7 6 5 6 6 5 5 5 6 12 20 22 24 25 23 22 20 17 15 12 10 9 8 7 7 7 8 7 5 3 3 3 4 7 8 10
9 10 11 12 9 9 8 6 4 5 4 6 6 5 4 5 7 6 8 11 15 19 19 15 14 12 10 8 8 7 5 4 3 2 3 5 6 7 7 8 7 8 11
5 6 7 8 7 8 9 10 7 6 4 5 6 5 6 6 5 5 6 8 10 11 15 15 13 11 7 7 6 4 2 2 3 4 5 6 8 10 11 12 13 14 15
4 5 4 2 3 4 4 6 6 6 7 8 7 7 4 3 1 1 3 4 3 4 16 19 12 14 10 7 7 7 6 6 6 6 6 8 9 10 12 14 15 16 18
8 7 8 8 8 6 5 4 5 5 3 3 3 4 3 1 2 4 4 5 5 6 12 19 17 14 12 10 7 7 6 5 4 6 8 9 10 11 12 12 14 15 15
5 6 5 6 6 6 8 9 6 4 2 2 2 1 1 3 4 6 8 8 9 8 7 8 7 6 5 4 2 3 4 4 5 5 7 9 10 12 13 15 16 17 18
4 4 3 4 5 5 5 7 8 9 9 9 7 5 6 5 6 4 4 2 1 2 2 2 3 2 2 1 1 3 3 4 6 7 9 9 10 11 12 14 15 16 17
8 8 7 5 5 4 5 4 2 2 3 1 5 7 4 2 1 1 2 6 5 3 4 4 2 2 2 3 3 4 5 6 7 8 9 10 11 12 13 15 16 18 19
11 11 11 8 6 7 5 5 5 6 6 2 3 5 4 3 4 5 6 3 2 2 1 2 3 3 3 3 4 5 6 7 8 9 10 10 11 13 15 17 18 19 20
14 14 13 11 9 8 8 9 9 8 11 9 5 8 4 2 2 4 4 2 1 2 2 1 1 1 3 4 5 7 7 7 8 10 11 11 12 13 15 17 18 18 17
15 15 15 14 12 10 11 9 11 9 10 10 7 10 11 11 10 7 5 3 0 3 3 3 4 5 10 9 7 12 10 8 9 11 11 11 12 13 14 16 18 17 14
16 16 16 16 16 11 11 13 10 11 10 9 12 14 14 15 15 11 10 7 5 2 1 1 3 4 5 8 9 10 15 13 11 13 14 14 14 14 15 16 17 15 12
22 20 19 18 16 14 11 11 13 12 12 11 12 13 13 15 17 15 15 14 11 8 5 4 3 3 4 6 6 10 10 13 12 14 15 16 17 17 17 17 17 14 12
22 23 21 20 20 20 18 20 16 17 16 14 9 10 12 13 16 17 17 18 17 15 12 9 8 7 7 7 5 6 8 11 13 14 15 16 18 19 19 17 16 15 13

GFSGL_850_spd_138.txt.gz
Wind_Speed
19 18 20 23 22 20 17 18 18 16 18 16 15 16 19 17 17 14 14 12 10 12 12 12 12 11 10 8 7 6 6 5 3 3 1 3 3 2 1 2 4 8 10
19 17 17 20 21 21 20 17 18 17 16 17 18 15 14 20 19 18 15 12 11 13 11 10 7 7 7 6 5 6 8 8 6 7 4 2 1 2 3 3 9 11 11
22 19 17 18 19 18 18 16 16 15 15 17 19 17 18 17 18 17 16 14 13 11 14 12 9 9 9 7 7 7 6 6 6 6 7 6 5 6 9 12 10 8 7
21 24 21 18 18 17 17 16 16 16 16 18 18 16 16 17 17 18 17 17 16 16 15 17 13 12 12 11 10 8 5 5 6 6 7 7 7 7 8 8 6 4 2
25 26 22 18 18 18 18 17 15 15 13 13 16 16 17 19 19 20 21 21 20 20 18 18 16 12 14 11 11 9 9 9 6 5 5 5 5 5 5 5 4 2 1
27 23 24 20 19 18 18 17 16 16 16 13 13 15 17 20 22 22 21 21 20 21 21 19 20 19 15 12 12 11 10 8 8 7 6 6 6 6 6 6 5 1 2
27 29 25 25 20 19 18 21 19 17 16 16 16 16 17 18 21 24 24 22 22 22 21 22 19 16 16 14 12 12 11 10 9 9 10 10 10 10 9 7 3 2 1
14 17 18 24 24 17 18 14 21 19 16 14 15 15 17 18 19 21 22 23 22 20 20 18 18 16 15 15 13 13 13 12 12 13 14 13 10 8 4 3 2 2 2
16 15 12 15 16 22 13 9 8 7 8 9 11 14 14 17 20 18 15 20 19 16 13 19 17 12 14 15 14 13 13 13 12 11 8 4 2 1 2 2 1 2 3
11 11 12 12 16 19 22 24 23 19 17 15 16 18 20 23 23 26 23 9 15 12 11 13 16 16 19 17 16 15 13 11 8 6 4 2 1 1 2 2 2 3 3
7 11 12 14 14 20 13 12 16 25 22 19 22 25 19 20 24 28 32 27 12 12 13 11 14 16 16 14 13 11 10 9 10 8 7 5 4 4 4 5 5 6 7
8 11 12 13 14 14 15 13 10 11 12 14 12 12 13 13 15 21 24 28 26 23 18 17 15 13 10 9 9 11 11 12 11 10 8 7 6 6 6 6 7 8 8
7 6 6 4 2 2 3 2 2 2 3 4 4 4 5 7 5 15 17 17 18 19 18 16 19 21 18 11 11 12 12 10 8 8 8 6 4 4 5 7 8 9 10
5 5 6 8 4 6 6 6 5 4 4 3 3 2 0 1 2 3 5 11 16 19 20 18 17 14 12 12 11 9 7 5 5 5 4 3 3 3 5 7 8 8 9
6 5 6 7 5 5 6 6 6 7 5 4 5 3 3 2 1 2 4 4 3 5 10 12 12 10 10 11 8 6 3 0 2 4 5 6 7 7 7 7 7 9 10
6 7 6 5 4 3 3 3 4 7 7 7 5 4 2 2 2 1 0 0 1 2 8 13 17 12 9 8 5 6 8 8 8 9 9 9 9 9 9 9 9 9 10
8 8 7 5 6 6 6 6 3 3 3 1 2 3 3 4 5 5 7 6 5 4 9 10 7 9 11 9 12 10 10 8 8 9 11 11 10 9 9 9 9 9 10
5 5 5 6 6 5 5 5 5 5 3 4 3 4 5 5 7 9 12 9 8 7 6 8 8 7 6 5 5 3 3 2 2 3 3 3 5 6 8 9 11 13 13
4 4 4 3 5 5 5 6 6 6 8 6 8 8 9 9 10 8 9 8 7 5 3 3 3 3 2 1 1 1 1 1 3 3 4 4 4 5 6 7 9 11 13
3 5 4 4 4 3 5 3 4 2 1 2 4 5 7 9 9 7 6 6 5 4 2 2 2 2 2 1 1 2 2 3 3 4 5 5 5 7 8 9 12 14 15
6 8 7 6 3 5 4 4 2 2 3 2 5 6 5 3 2 2 1 1 1 3 5 7 10 11 6 5 3 2 5 5 5 6 7 7 7 8 10 12 13 14 14
10 11 11 9 7 7 7 7 6 6 7 6 5 4 4 3 3 3 2 3 3 4 4 4 5 5 3 1 1 1 1 2 4 5 6 7 8 8 9 12 14 15 14
13 14 15 13 12 11 10 10 8 9 6 8 7 5 8 6 5 4 4 3 4 4 5 5 7 7 7 6 5 5 5 4 4 5 6 6 7 9 10 11 12 13 12
14 15 14 13 13 12 10 10 10 6 7 7 6 9 11 10 10 10 9 8 7 5 4 5 6 5 3 3 4 4 6 8 7 7 7 7 8 9 11 12 12 12 11
15 16 17 16 15 14 12 10 10 11 7 8 8 8 8 11 13 15 15 14 13 12 8 6 6 5 4 2 2 1 2 5 6 6 7 8 9 12 13 13 14 13 12
16 17 19 20 18 18 18 18 18 12 12 10 12 11 9 8 9 12 16 17 18 18 16 13 11 10 10 8 7 9 8 5 6 6 7 8 9 12 14 16 17 16 15